[[{"header":{"parameterUnit":"m.s-1","parameterCategory":1,"la1":30.6,"la2":28.766,"lo1":-90.7593,"lo2":-88.6598,"dy":0.0162,"dx":0.0183,"nx":116,"ny":114,"refTime":"2023-05-07T12:00:00:Z","depth":0,"parameterNumber":2,"parameterNumberName":"U-component_of_WINDS"},"data":[0.0,0.0,0.0,0.0,0.0,0.0,0.0,0.0,0.0,0.0,0.0,0.0,0.0,0.0,0.0,0.0,0.0,0.0,0.0,0.0,0.0,0.0,0.0,0.0,0.0,0.0,0.0,0.0,0.0,0.0,0.0,0.0,0.0,0.0,0.0,0.0,0.0,0.0,0.0,0.0,0.0,0.0,0.0,0.0,0.0,0.0,0.0,0.0,0.0,0.0,0.0,0.0,0.0,0.0,0.0,0.0,0.0,0.0,0.0,0.0,0.0,0.0,0.0,0.0,0.0,0.0,0.0,0.0,0.0,0.0,0.0,0.0,0.0,0.0,0.0,0.0,0.0,0.0,0.0,0.0,0.0,0.0,0.0,0.0,0.0,0.0,0.0,0.0,0.0,0.0,0.0,0.0,0.0,0.0,0.0,0.0,0.0,0.0,0.0,0.0,0.0,0.0,0.0,0.0,0.0,0.0,0.0,0.0,0.0,0.0,0.0,0.0,0.0,0.0,0.0,0.0,0.0,0.0,0.0,0.0,0.0,0.0,0.0,0.0,0.0,0.0,0.0,0.0,0.0,0.0,0.0,0.0,0.0,0.0,0.0,0.0,0.0,0.0,0.0,0.0,0.0,0.0,0.0,0.0,0.0,0.0,0.0,0.0,0.0,0.0,0.0,0.0,0.0,0.0,0.0,0.0,0.0,0.0,0.0,0.0,0.0,0.0,0.0,0.0,0.0,0.0,0.0,0.0,0.0,0.0,0.0,0.0,0.0,0.0,0.0,0.0,0.0,0.0,0.0,0.0,0.0,0.0,0.0,0.0,0.0,0.0,0.0,0.0,0.0,0.0,0.0,0.0,0.0,0.0,0.0,0.0,0.0,0.0,0.0,0.0,0.0,0.0,0.0,0.0,0.0,0.0,0.0,0.0,0.0,0.0,0.0,0.0,0.0,0.0,0.0,0.0,0.0,0.0,0.0,0.0,0.0,0.0,0.0,0.0,0.0,0.0,0.0,0.0,0.0,0.0,0.0,0.0,0.0,0.0,0.0,0.0,0.0,0.0,0.0,0.0,0.0,0.0,0.0,0.0,0.0,0.0,0.0,0.0,0.0,0.0,0.0,0.0,0.0,0.0,0.0,0.0,0.0,0.0,0.0,0.0,0.0,0.0,0.0,0.0,0.0,0.0,0.0,0.0,0.0,0.0,0.0,0.0,0.0,0.0,0.0,0.0,0.0,0.0,0.0,0.0,0.0,0.0,0.0,0.0,0.0,0.0,0.0,0.0,0.0,0.0,0.0,0.0,0.0,0.0,0.0,0.0,0.0,0.0,0.0,0.0,0.0,0.0,0.0,0.0,0.0,0.0,0.0,0.0,0.0,0.0,0.0,0.0,0.0,0.0,0.0,0.0,0.0,0.0,0.0,0.0,0.0,0.0,0.0,0.0,0.0,0.0,0.0,0.0,0.0,0.0,0.0,0.0,0.0,0.0,0.0,0.0,0.0,0.0,0.0,0.0,0.0,0.0,0.0,0.0,0.0,0.0,0.0,0.0,0.0,0.0,0.0,0.0,0.0,0.0,0.0,0.0,0.0,0.0,0.0,0.0,0.0,0.0,0.0,0.0,0.0,0.0,0.0,0.0,0.0,0.0,0.0,0.0,0.0,0.0,0.0,0.0,0.0,0.0,0.0,0.0,0.0,0.0,0.0,0.0,0.0,0.0,0.0,0.0,0.0,0.0,0.0,0.0,0.0,0.0,0.0,0.0,0.0,0.0,0.0,0.0,0.0,0.0,0.0,0.0,0.0,0.0,0.0,0.0,0.0,0.0,0.0,0.0,0.0,0.0,0.0,0.0,0.0,0.0,0.0,0.0,0.0,0.0,0.0,0.0,0.0,0.0,0.0,0.0,0.0,0.0,0.0,0.0,0.0,0.0,0.0,0.0,0.0,0.0,0.0,0.0,0.0,0.0,0.0,0.0,0.0,0.0,0.0,0.0,0.0,0.0,0.0,0.0,0.0,0.0,0.0,0.0,0.0,0.0,0.0,0.0,0.0,0.0,0.0,0.0,0.0,0.0,0.0,0.0,0.0,0.0,0.0,0.0,0.0,0.0,0.0,0.0,0.0,0.0,0.0,0.0,0.0,0.0,0.0,0.0,0.0,0.0,0.0,0.0,0.0,0.0,0.0,0.0,0.0,0.0,0.0,0.0,0.0,0.0,0.0,0.0,0.0,0.0,0.0,0.0,0.0,0.0,0.0,0.0,0.0,0.0,0.0,0.0,0.0,0.0,0.0,0.0,0.0,0.0,0.0,0.0,0.0,0.0,0.0,0.0,0.0,0.0,0.0,0.0,0.0,0.0,0.0,0.0,0.0,0.0,0.0,0.0,0.0,0.0,0.0,0.0,0.0,0.0,0.0,0.0,0.0,0.0,0.0,0.0,0.0,0.0,0.0,0.0,0.0,0.0,0.0,0.0,0.0,0.0,0.0,0.0,0.0,0.0,0.0,0.0,0.0,0.0,0.0,0.0,0.0,0.0,0.0,0.0,0.0,0.0,0.0,0.0,0.0,0.0,0.0,0.0,0.0,0.0,0.0,0.0,0.0,0.0,0.0,0.0,0.0,0.0,0.0,0.0,0.0,0.0,0.0,0.0,0.0,0.0,0.0,0.0,0.0,0.0,0.0,0.0,0.0,0.0,0.0,0.0,0.0,0.0,0.0,0.0,0.0,0.0,0.0,0.0,0.0,0.0,0.0,0.0,0.0,0.0,0.0,0.0,0.0,0.0,0.0,0.0,0.0,0.0,0.0,0.0,0.0,0.0,0.0,0.0,0.0,0.0,0.0,0.0,0.0,0.0,0.0,0.0,0.0,0.0,0.0,0.0,0.0,0.0,0.0,0.0,0.0,0.0,0.0,0.0,0.0,0.0,0.0,0.0,0.0,0.0,0.0,0.0,0.0,0.0,0.0,0.0,0.0,0.0,0.0,0.0,0.0,0.0,0.0,0.0,0.0,0.0,0.0,0.0,0.0,0.0,0.0,0.0,0.0,0.0,0.0,0.0,0.0,0.0,0.0,0.0,0.0,0.0,0.0,0.0,0.0,0.0,0.0,0.0,0.0,0.0,0.0,0.0,0.0,0.0,0.0,0.0,0.0,0.0,0.0,0.0,0.0,0.0,0.0,0.0,0.0,0.0,0.0,0.0,0.0,0.0,0.0,0.0,0.0,0.0,0.0,0.0,0.0,0.0,0.0,0.0,0.0,0.0,0.0,0.0,0.0,0.0,0.0,0.0,0.0,0.0,0.0,0.0,0.0,0.0,0.0,0.0,0.0,0.0,0.0,0.0,0.0,0.0,0.0,0.0,0.0,0.0,0.0,0.0,0.0,0.0,0.0,0.0,0.0,0.0,0.0,0.0,0.0,0.0,0.0,0.0,0.0,0.0,0.0,0.0,0.0,0.0,0.0,0.0,0.0,0.0,0.0,0.0,0.0,0.0,0.0,0.0,0.0,0.0,0.0,0.0,0.0,0.0,0.0,0.0,0.0,0.0,0.0,0.0,0.0,0.0,0.0,0.0,0.0,0.0,0.0,0.0,0.0,0.0,0.0,0.0,0.0,0.0,0.0,0.0,0.0,0.0,0.0,0.0,0.0,0.0,0.0,0.0,0.0,0.0,0.0,0.0,0.0,0.0,0.0,0.0,0.0,0.0,0.0,0.0,0.0,0.0,0.0,0.0,0.0,0.0,0.0,0.0,0.0,0.0,0.0,0.0,0.0,0.0,0.0,0.0,0.0,0.0,0.0,0.0,0.0,0.0,0.0,0.0,0.0,0.0,0.0,0.0,0.0,0.0,0.0,0.0,0.0,0.0,0.0,0.0,0.0,0.0,0.0,0.0,0.0,0.0,0.0,0.0,0.0,0.0,0.0,0.0,0.0,0.0,0.0,0.0,0.0,0.0,0.0,0.0,0.0,0.0,0.0,0.0,0.0,0.0,0.0,0.0,0.0,0.0,0.0,0.0,0.0,0.0,0.0,0.0,0.0,0.0,0.0,0.0,0.0,0.0,0.0,0.0,0.0,0.0,0.0,0.0,0.0,0.0,0.0,0.0,0.0,0.0,0.0,0.0,0.0,0.0,0.0,0.0,0.0,0.0,0.0,0.0,0.0,0.0,0.0,0.0,0.0,0.0,0.0,0.0,0.0,0.0,0.0,0.0,0.0,0.0,0.0,0.0,0.0,0.0,0.0,0.0,0.0,0.0,0.0,0.0,0.0,0.0,0.0,0.0,0.0,0.0,0.0,0.0,0.0,0.0,0.0,0.0,0.0,0.0,0.0,0.0,0.0,0.0,0.0,0.0,0.0,0.0,0.0,0.0,0.0,0.0,0.0,0.0,0.0,0.0,0.0,0.0,0.0,0.0,0.0,0.0,0.0,0.0,0.0,0.0,0.0,0.0,0.0,0.0,0.0,0.0,0.0,0.0,0.0,0.0,0.0,0.0,0.0,0.0,0.0,0.0,0.0,0.0,0.0,0.0,0.0,0.0,0.0,0.0,0.0,0.0,0.0,0.0,0.0,0.0,0.0,0.0,0.0,0.0,0.0,0.0,0.0,0.0,0.0,0.0,0.0,0.0,0.0,0.0,0.0,0.0,0.0,0.0,0.0,0.0,0.0,0.0,0.0,0.0,0.0,0.0,0.0,0.0,0.0,0.0,0.0,0.0,0.0,0.0,0.0,0.0,0.0,0.0,0.0,0.0,0.0,0.0,0.0,0.0,0.0,0.0,0.0,0.0,0.0,0.0,0.0,0.0,0.0,0.0,0.0,0.0,0.0,0.0,0.0,0.0,0.0,0.0,0.0,0.0,0.0,0.0,0.0,0.0,0.0,0.0,0.0,0.0,0.0,0.0,0.0,0.0,0.0,0.0,0.0,0.0,0.0,0.0,0.0,0.0,0.0,0.0,0.0,0.0,0.0,0.0,0.0,0.0,0.0,0.0,0.0,0.0,0.0,0.0,0.0,0.0,0.0,0.0,0.0,0.0,0.0,0.0,0.0,0.0,0.0,0.0,0.0,0.0,0.0,0.0,0.0,0.0,0.0,0.0,0.0,0.0,0.0,0.0,0.0,0.0,0.0,0.0,0.0,0.0,0.0,0.0,0.0,0.0,0.0,0.0,0.0,0.0,0.0,0.0,0.0,0.0,0.0,0.0,0.0,0.0,0.0,0.0,0.0,0.0,0.0,0.0,0.0,0.0,0.0,0.0,0.0,0.0,0.0,0.0,0.0,0.0,0.0,0.0,0.0,0.0,0.0,0.0,0.0,0.0,0.0,0.0,0.0,0.0,0.0,0.0,0.0,0.0,0.0,0.0,0.0,0.0,0.0,0.0,0.0,0.0,0.0,0.0,0.0,0.0,0.0,0.0,0.0,0.0,0.0,0.0,0.0,0.0,0.0,0.0,0.0,0.0,0.0,0.0,0.0,0.0,0.0,0.0,0.0,0.0,0.0,0.0,0.0,0.0,0.0,0.0,0.0,0.0,0.0,0.0,0.0,0.0,0.0,0.0,0.0,0.0,0.0,0.0,0.0,0.0,0.0,0.0,0.0,0.0,0.0,0.0,0.0,0.0,0.0,0.0,0.0,0.0,0.0,0.0,0.0,0.0,0.0,0.0,0.0,0.0,0.0,0.0,0.0,0.0,0.0,0.0,0.0,0.0,0.0,0.0,0.0,0.0,0.0,0.0,0.0,0.0,0.0,0.0,0.0,0.0,0.0,0.0,0.0,0.0,0.0,0.0,0.0,0.0,0.0,0.0,0.0,0.0,0.0,0.0,0.0,0.0,0.0,0.0,0.0,0.0,0.0,0.0,0.0,0.0,0.0,0.0,0.0,0.0,0.0,0.0,0.0,0.0,0.0,0.0,0.0,0.0,0.0,0.0,0.0,0.0,0.0,0.0,0.0,0.0,0.0,0.0,0.0,0.0,0.0,0.0,0.0,0.0,0.0,0.0,0.0,0.0,0.0,0.0,0.0,0.0,0.0,0.0,0.0,0.0,0.0,0.0,0.0,0.0,0.0,0.0,0.0,0.0,0.0,0.0,0.0,0.0,0.0,0.0,0.0,0.0,0.0,0.0,-2.4372,0.0,0.0,0.0,0.0,0.0,0.0,0.0,0.0,0.0,0.0,0.0,0.0,0.0,0.0,0.0,0.0,0.0,0.0,0.0,0.0,0.0,0.0,0.0,0.0,0.0,0.0,0.0,0.0,0.0,0.0,0.0,0.0,0.0,0.0,0.0,0.0,0.0,0.0,-2.1591,-2.2047,-2.2909,-2.4148,-2.5712,-2.5745,-2.4506,0.0,0.0,0.0,0.0,0.0,0.0,0.0,0.0,0.0,0.0,0.0,0.0,0.0,0.0,0.0,0.0,0.0,0.0,0.0,0.0,0.0,0.0,0.0,0.0,0.0,0.0,0.0,0.0,0.0,0.0,0.0,0.0,0.0,0.0,0.0,0.0,0.0,0.0,0.0,0.0,0.0,0.0,0.0,0.0,0.0,0.0,0.0,0.0,0.0,0.0,0.0,0.0,0.0,0.0,0.0,0.0,0.0,0.0,0.0,0.0,0.0,0.0,0.0,0.0,0.0,0.0,0.0,0.0,0.0,0.0,0.0,-2.5311,0.0,0.0,0.0,0.0,0.0,0.0,0.0,0.0,0.0,0.0,0.0,0.0,0.0,0.0,0.0,0.0,0.0,0.0,0.0,0.0,0.0,0.0,0.0,-1.691,-1.7608,-1.72,-1.7669,-1.7748,0.0,0.0,0.0,0.0,0.0,0.0,0.0,-1.908,-2.0162,-2.1394,-2.1843,-2.3308,-2.5662,-2.6727,-2.6444,-2.5043,-2.5313,0.0,0.0,0.0,0.0,0.0,0.0,0.0,0.0,0.0,0.0,0.0,0.0,0.0,0.0,0.0,0.0,0.0,0.0,0.0,0.0,0.0,0.0,0.0,0.0,0.0,0.0,0.0,0.0,0.0,0.0,0.0,0.0,0.0,0.0,0.0,0.0,0.0,0.0,0.0,0.0,0.0,0.0,0.0,0.0,0.0,0.0,0.0,0.0,0.0,0.0,0.0,0.0,0.0,0.0,0.0,0.0,0.0,0.0,0.0,0.0,0.0,0.0,0.0,-3.2594,-3.3261,-3.3476,-3.3278,-3.3142,-3.2851,-2.9342,-2.7956,-2.8082,0.0,0.0,0.0,0.0,0.0,0.0,0.0,0.0,0.0,0.0,0.0,0.0,0.0,0.0,0.0,0.0,0.0,0.0,0.0,0.0,0.0,0.0,-1.6727,-1.7425,-1.8841,-1.837,-1.8256,-1.8827,0.0,0.0,0.0,0.0,0.0,-1.9027,-2.0556,-2.1097,-2.0563,-2.2838,-2.4855,-2.6676,-2.9032,-2.992,-2.947,-2.7885,-2.6618,-2.5621,0.0,0.0,0.0,0.0,0.0,0.0,0.0,0.0,0.0,0.0,0.0,0.0,0.0,0.0,0.0,0.0,0.0,0.0,0.0,0.0,0.0,0.0,0.0,0.0,0.0,0.0,0.0,0.0,0.0,0.0,0.0,0.0,0.0,0.0,0.0,0.0,0.0,0.0,0.0,0.0,0.0,-2.3673,-2.5317,0.0,0.0,0.0,0.0,0.0,0.0,0.0,0.0,0.0,0.0,0.0,0.0,0.0,0.0,-3.2734,-3.3232,-3.3398,-3.324,-3.3845,-3.4134,-3.4136,-3.3198,-3.323,-3.3952,-3.2768,0.0,-3.0039,-2.9943,0.0,0.0,0.0,0.0,0.0,0.0,0.0,0.0,0.0,0.0,0.0,0.0,0.0,0.0,0.0,0.0,0.0,0.0,0.0,0.0,0.0,-1.8277,-1.9139,-1.9907,-2.0924,-2.1081,-1.9993,-2.0051,0.0,0.0,0.0,-1.9341,-2.0629,-2.0906,-2.1298,-2.1851,-2.4934,-2.6838,-2.7612,-2.9218,-3.0174,-3.055,-3.0024,-2.9182,-2.8064,-2.6738,0.0,0.0,0.0,0.0,0.0,0.0,0.0,0.0,0.0,0.0,0.0,0.0,0.0,0.0,0.0,0.0,0.0,0.0,0.0,0.0,0.0,0.0,0.0,0.0,0.0,0.0,0.0,0.0,0.0,0.0,0.0,0.0,0.0,0.0,0.0,0.0,0.0,0.0,0.0,-2.5527,-2.7161,-2.7957,-2.8865,-2.9079,0.0,0.0,0.0,0.0,0.0,0.0,0.0,0.0,0.0,-3.4316,-3.397,-3.425,-3.5313,-3.5328,-3.5602,-3.6135,-3.6588,-3.6928,-3.7091,-3.662,-3.6655,-3.7018,-3.6249,-3.5212,-3.3988,-3.2305,-3.0789,-2.9428,0.0,0.0,0.0,0.0,0.0,-2.6692,0.0,0.0,0.0,0.0,0.0,0.0,0.0,0.0,0.0,0.0,0.0,0.0,-1.8521,-2.0149,-2.1311,-2.177,-2.313,-2.3344,-2.1893,-2.1792,-2.1341,-2.0328,-2.0274,-2.0947,-2.2417,-2.2218,-2.2826,-2.4293,-2.7293,-2.8907,-2.9194,-3.0247,-3.1061,-3.1696,-3.2126,-3.1549,-3.0162,-2.8316,-2.6822,-2.5622,0.0,0.0,0.0,0.0,0.0,0.0,0.0,0.0,0.0,0.0,0.0,0.0,0.0,0.0,0.0,0.0,0.0,0.0,0.0,0.0,0.0,0.0,0.0,0.0,0.0,0.0,0.0,0.0,0.0,0.0,0.0,0.0,0.0,0.0,0.0,0.0,0.0,-2.84,-2.9879,-3.0011,-3.1814,-3.2321,0.0,0.0,0.0,0.0,0.0,0.0,-3.5453,-3.6011,-3.6843,-3.8103,-3.7515,-3.7487,-3.8194,-3.7826,-3.8223,-3.9284,-3.9456,-3.9752,-4.0178,-3.9796,-3.9621,-3.955,-3.855,-3.7795,-3.7077,-3.4427,-3.2913,-3.2136,-3.1052,-3.0037,-2.9281,-2.9642,-2.9679,-2.9678,0.0,0.0,0.0,0.0,0.0,0.0,0.0,0.0,0.0,0.0,0.0,-1.8553,-2.02,-2.187,-2.3543,-2.5205,-2.395,-2.3706,-2.5238,-2.3118,-2.2125,-2.2884,-2.2918,-2.3311,-2.4157,-2.5688,-2.6935,-2.7845,-2.9672,-3.0995,-3.1848,-3.3535,-3.4327,-3.4305,-3.4272,-3.3065,-3.0935,-2.9385,-2.8405,-2.7832,-2.6624,0.0,0.0,0.0,0.0,0.0,0.0,0.0,0.0,0.0,0.0,0.0,0.0,0.0,0.0,0.0,0.0,0.0,0.0,0.0,0.0,0.0,0.0,0.0,0.0,0.0,0.0,0.0,0.0,0.0,0.0,0.0,0.0,0.0,0.0,0.0,0.0,0.0,0.0,-3.0626,-3.3429,0.0,0.0,0.0,0.0,-3.5151,-3.667,-3.7843,-3.8449,-3.9942,-4.1018,-4.1541,-4.1083,-4.1227,-4.2007,-4.1558,-4.1758,-4.2552,-4.181,-4.1863,-4.2587,-4.1117,-4.0432,-4.0344,-3.8778,-3.8093,-3.7918,-3.6303,-3.5197,-3.4531,-3.4443,-3.3547,-3.2438,-3.3846,-3.365,-3.2722,0.0,0.0,0.0,0.0,0.0,0.0,0.0,0.0,-1.6552,-1.7422,-1.8759,-2.026,-2.1986,-2.3636,-2.5069,-2.6202,-2.5742,-2.5182,-2.4738,-2.3893,-2.3069,-2.2298,-2.333,-2.457,-2.5945,-2.6562,-2.7822,-2.9761,-3.1518,-3.2817,-3.3701,-3.4888,-3.543,-3.5394,-3.5329,-3.4531,-3.3092,-3.1154,-2.9407,-2.7856,-2.7156,-2.5605,0.0,0.0,0.0,0.0,0.0,0.0,0.0,0.0,0.0,0.0,0.0,0.0,0.0,0.0,0.0,0.0,0.0,0.0,0.0,0.0,0.0,0.0,0.0,0.0,0.0,0.0,0.0,0.0,0.0,0.0,0.0,0.0,0.0,0.0,0.0,0.0,0.0,-3.5316,-3.7851,0.0,0.0,-3.7368,-3.7854,-3.908,-3.9797,-4.0944,-4.2664,-4.3423,-4.4009,-4.4418,-4.4272,-4.4193,-4.4229,-4.3754,-4.3411,-4.318,-4.2639,-4.2254,-4.2008,-4.1464,-4.12,-4.1148,-4.0116,-3.9357,-3.8775,-3.7725,-3.6549,-3.5372,-3.4881,-3.4372,-3.3969,-3.4513,-3.4606,-3.4492,0.0,0.0,0.0,0.0,0.0,0.0,0.0,0.0,-1.7008,-1.7888,-1.9702,-2.1562,-2.3303,-2.4933,-2.6122,-2.6656,-2.618,-2.5631,-2.5107,-2.4588,-2.4078,-2.3532,-2.4906,-2.604,-2.6847,-2.8304,-2.9891,-3.1586,-3.3304,-3.4591,-3.5448,-3.5732,-3.6195,-3.6757,-3.643,-3.6086,-3.5668,-3.3936,-3.1557,-2.8904,-2.8159,-2.7221,-2.6148,0.0,0.0,0.0,0.0,0.0,0.0,0.0,0.0,0.0,0.0,0.0,0.0,0.0,0.0,0.0,0.0,0.0,0.0,0.0,0.0,0.0,0.0,0.0,0.0,0.0,0.0,0.0,0.0,0.0,0.0,0.0,0.0,0.0,0.0,0.0,-3.7705,-3.9171,-4.1469,-4.2456,-4.1274,-4.0848,-4.112,-4.2279,-4.2765,-4.3824,-4.5706,-4.6195,-4.6567,-4.6909,-4.6783,-4.6579,-4.6312,-4.5702,-4.511,-4.4575,-4.391,-4.3149,-4.2377,-4.2131,-4.1868,-4.1569,-4.0818,-4.0024,-3.9231,-3.8424,-3.7356,-3.6162,-3.5671,-3.5479,-3.5479,-3.5554,-3.5776,-3.6005,0.0,0.0,0.0,0.0,0.0,0.0,0.0,-1.6155,-1.7089,-1.7929,-2.0191,-2.2389,-2.4112,-2.5712,-2.6661,-2.6702,-2.5162,-2.493,-2.6608,-2.5196,-2.5082,-2.6851,-2.7701,-2.7783,-2.7057,-3.1142,-3.3351,-3.3452,-3.5061,-3.6285,-3.712,-3.6256,-3.6789,-3.8462,-3.7616,-3.7719,-3.8434,-3.7525,-3.4972,-3.1372,-2.9846,-3.0014,-3.078,0.0,0.0,0.0,0.0,0.0,0.0,0.0,0.0,0.0,0.0,0.0,0.0,0.0,0.0,0.0,0.0,0.0,0.0,0.0,0.0,0.0,0.0,0.0,0.0,0.0,0.0,0.0,0.0,0.0,0.0,0.0,0.0,0.0,-3.6098,-3.8633,-4.0882,-4.1833,-4.4004,-4.4719,-4.2958,-4.3564,-4.4262,-4.4782,-4.5661,-4.656,-4.7424,-4.8217,-4.8751,-4.8983,-4.8587,-4.8362,-4.8362,-4.7396,-4.6913,-4.6855,-4.5676,-4.4659,-4.3834,-4.3131,-4.2359,-4.1569,-4.0854,-4.0077,-3.9287,-3.848,-3.769,-3.7042,-3.7007,-3.6989,-3.7029,-3.722,-3.7297,-3.7247,0.0,0.0,0.0,0.0,0.0,0.0,0.0,-1.7589,-1.8671,-1.8919,-2.1097,-2.304,-2.4109,-2.5132,-2.6015,-2.6644,-2.5166,-2.4423,-2.496,-2.4566,-2.5365,-2.7746,-2.6851,-2.8233,-3.237,-3.3013,-3.4513,-3.7008,-3.6825,-3.7199,-3.8015,-3.7154,-3.7358,-3.8427,-3.8233,-3.828,-3.8476,-3.8217,-3.7443,-3.6115,-3.3183,-3.1828,-3.13,0.0,0.0,0.0,0.0,0.0,0.0,0.0,0.0,0.0,0.0,0.0,0.0,0.0,0.0,0.0,0.0,0.0,0.0,0.0,0.0,0.0,0.0,0.0,0.0,0.0,0.0,0.0,0.0,0.0,0.0,0.0,0.0,-3.9123,-3.9602,-4.1775,-4.3834,-4.5248,-4.6901,-4.7652,-4.7015,-4.7163,-4.735,-4.7445,-4.7739,-4.831,-4.9232,-4.9545,-5.0007,-5.0692,-4.999,-4.9602,-4.9602,-4.8132,-4.7093,-4.6534,-4.5574,-4.4395,-4.3096,-4.2903,-4.2359,-4.1587,-4.1394,-4.0867,-4.0095,-3.9305,-3.8515,-3.7742,-3.7218,-3.7085,-3.722,-3.7278,-3.7391,-3.7504,0.0,0.0,0.0,0.0,0.0,0.0,0.0,-1.8374,-1.9295,-1.9264,-2.1124,-2.2755,-2.3573,-2.4072,-2.4419,-2.4555,-2.4011,-2.3676,-2.3744,-2.5123,-2.6434,-2.7562,-2.7718,-2.9585,-3.343,-3.4084,-3.5539,-3.7856,-3.7715,-3.8084,-3.8921,-3.8047,-3.8309,-3.9472,-3.9175,-3.9247,-3.9584,-3.9588,-3.953,-3.9213,-3.6867,-3.5499,-3.4622,-3.1806,-3.1476,-3.2224,-2.9771,-2.9349,-2.9602,-2.7558,0.0,0.0,0.0,0.0,0.0,0.0,0.0,0.0,0.0,0.0,0.0,0.0,0.0,0.0,0.0,0.0,0.0,0.0,0.0,0.0,0.0,0.0,0.0,0.0,-4.096,-4.3357,-4.4881,-4.5583,-4.6555,-4.8205,-4.9301,-4.9877,-4.9714,-4.975,-4.9714,-4.9602,-4.9658,-4.9917,-5.0472,-5.0546,-5.0823,-5.1379,-5.0915,-5.0636,-5.0636,-4.8934,-4.7907,-4.7554,-4.6221,-4.4812,-4.3432,-4.3318,-4.2658,0.0,-4.1604,-4.099,-3.9989,-3.9849,-3.8954,0.0,0.0,0.0,0.0,0.0,-3.7503,-3.7594,0.0,0.0,0.0,0.0,0.0,0.0,0.0,-1.8844,-1.9372,-1.9223,-2.0653,-2.1903,-2.2427,-2.2543,-2.2265,-2.1384,-2.2191,-2.2918,-2.3269,-2.6188,-2.7666,-2.7122,-2.9571,-3.1451,-3.2561,-3.4941,-3.6623,-3.7536,-3.8212,-3.8989,-3.9829,-3.8957,-3.9425,-4.098,-4.0262,-4.0372,-4.1085,-4.1103,-4.1054,-4.0936,-4.0212,-3.9738,-3.8999,-3.4987,-3.529,-3.7355,-3.3879,-3.2812,-3.2846,-3.1562,0.0,0.0,0.0,0.0,0.0,0.0,0.0,0.0,0.0,0.0,0.0,0.0,0.0,0.0,0.0,0.0,0.0,0.0,0.0,0.0,0.0,0.0,0.0,0.0,-4.4988,-4.8097,-5.0546,-4.9638,-4.9217,-5.0629,-5.1162,-5.1343,-5.1213,-5.1324,-5.1306,-5.1119,-5.1157,-5.125,-5.1343,0.0,0.0,0.0,0.0,-5.1546,-5.1546,-4.9854,-4.9089,-4.9202,-4.7372,-4.5806,-4.4552,-4.4309,-4.3349,-4.1864,-4.182,-4.0989,-3.9666,-4.026,-3.9241,-3.7275,-3.7119,-3.7182,-3.7353,-3.7594,-3.7667,-3.7613,0.0,0.0,0.0,0.0,0.0,0.0,0.0,-1.9726,-2.0014,-1.9294,-2.0659,-2.1214,-1.9969,-2.0408,-2.045,-1.959,-2.0994,-2.2824,-2.4963,-2.5726,-2.6953,-2.889,-3.0767,-3.3159,-3.6124,-3.7326,-3.8677,-4.0245,-3.9701,-3.9896,-4.0731,-3.9863,-4.0039,-4.1067,-4.0925,-4.0918,-4.1011,-4.1081,-4.1066,-4.0983,-4.0837,-4.0274,-3.931,-3.7136,-3.6471,-3.6426,-3.4242,-3.445,-3.5362,-3.2765,-3.2851,-3.3713,-3.1936,-3.0327,0.0,0.0,0.0,0.0,0.0,0.0,0.0,0.0,0.0,0.0,0.0,0.0,0.0,0.0,0.0,0.0,0.0,0.0,0.0,-4.5122,-4.8087,-5.0596,-5.2442,-5.2546,-5.2351,-5.201,-5.163,-5.1343,-5.1213,-5.1213,-5.1213,-5.1176,-5.1195,-5.1528,-5.2289,-5.2326,0.0,-5.3311,-5.2717,-5.2364,-5.2364,-5.1017,-5.0065,-4.9504,0.0,0.0,-4.614,-4.5995,-4.505,-4.3516,-4.3188,-4.2504,-4.1591,-4.081,-3.9958,-3.8994,-3.7908,-3.7503,-3.7594,-3.7933,-3.7986,-3.7811,0.0,0.0,0.0,0.0,0.0,0.0,0.0,-2.0234,-2.0346,-1.9919,-2.0951,-2.1415,-2.0492,-2.1144,-2.1294,-2.0427,-2.1188,-2.2799,-2.5371,-2.6405,-2.7865,-3.0002,-3.2182,-3.4558,-3.7136,-3.8029,-3.9064,-4.0354,-4.0349,-4.0563,-4.0996,-4.0584,-4.0658,-4.1093,-4.1107,-4.1081,-4.1053,-4.1089,-4.1079,-4.1048,-4.1044,-4.0772,-4.0241,-3.9357,-3.8868,-3.8498,-3.7356,-3.729,-3.7497,-3.5773,-3.5609,-3.5923,-3.484,-3.3476,-3.2026,0.0,0.0,0.0,0.0,0.0,0.0,0.0,0.0,0.0,0.0,0.0,0.0,0.0,0.0,-3.7225,0.0,0.0,-4.4987,-4.8279,-5.0621,-5.2463,-5.3685,-5.4172,-5.403,-5.302,-5.2731,-5.2568,-5.2512,-5.2493,-5.2493,-5.2493,-5.2493,-5.2697,-5.3181,-5.32,-5.3385,-5.3794,-5.3423,-5.3218,-5.3293,-5.204,-5.1297,-5.1083,-4.961,-4.8382,-4.7376,-4.6699,-4.5785,-4.4665,-4.407,-4.3361,-4.2531,-4.0913,-4.0164,-3.9973,-3.92,-3.8616,-3.8167,-3.7846,-3.7703,-3.7594,0.0,0.0,0.0,0.0,0.0,0.0,0.0,-2.0507,-2.0446,-2.0296,-2.1013,-2.1399,-2.0996,-2.1731,-2.2116,-2.1744,-2.1396,-2.2498,-2.5568,-2.7307,-2.9035,-3.0886,-3.3534,-3.5656,-3.7184,-3.8051,-3.89,-3.9714,-4.0583,-4.1011,-4.1018,-4.1073,-4.1096,-4.1103,-4.1101,-4.1097,-4.1093,-4.1098,-4.1094,-4.1088,-4.1099,-4.1094,-4.1088,-4.0974,-4.0915,-4.082,-4.0222,-3.9257,-3.8252,-3.814,-3.726,-3.6274,-3.6814,-3.5851,-3.4319,-3.3205,-3.2826,0.0,0.0,0.0,0.0,0.0,0.0,0.0,0.0,0.0,-3.6826,-3.9477,-4.022,-4.1509,-4.5126,-4.6575,-4.8202,-5.1189,-5.2941,-5.4116,-5.4679,-5.5109,-5.497,-5.3955,-5.3883,-5.387,-5.3813,-5.3851,-5.387,-5.3794,-5.387,-5.387,-5.3794,-5.3813,-5.3813,-5.3813,-5.3832,-5.3888,-5.4,-5.2993,-5.2566,-5.2642,-5.052,-4.9183,-4.8604,-4.7454,-4.6555,-4.5827,-4.4948,-4.4053,-4.3087,-4.1391,-4.0742,-4.0732,-4.049,-3.9888,-3.9073,-3.8054,-3.7553,-3.7353,0.0,0.0,0.0,0.0,0.0,0.0,0.0,0.0,-2.0234,-1.9531,-2.0137,-2.005,-1.8495,-1.9103,-2.0206,-2.1655,-2.0315,-2.1478,-2.6416,-2.7662,-2.9312,-3.1833,-3.4464,-3.6305,-3.7279,-3.8077,-3.8922,-3.9799,-4.059,-4.1039,-4.1086,-4.1091,-4.1107,-4.1106,-4.1108,-4.1097,-4.1096,-4.1097,-4.1066,-4.1014,-4.108,-4.1109,-4.1109,-4.1072,-4.1003,-4.0752,-3.9683,-3.7769,-3.5885,-3.7034,-3.5873,-3.4472,-3.7446,-3.6834,-3.5012,-3.4975,-3.347,-3.1459,-2.9648,-3.0454,-3.2883,-3.7401,-3.748,-3.7906,0.0,0.0,-4.3037,-4.5017,-4.6566,-4.7901,-4.9114,-5.0573,-5.2216,-5.4148,-5.5204,-5.579,-5.5752,-5.5595,-5.5389,-5.5135,-5.4594,-5.4125,-5.3832,-5.4072,-5.4125,-5.3813,-5.4072,-5.4125,-5.3832,-5.3813,-5.3813,-5.3813,-5.3926,-5.3982,-5.4,-5.3925,-5.3569,-5.2927,-5.1836,-5.0907,-5.0123,-4.9267,-4.8381,-4.746,-4.6366,-4.5004,-4.3524,-4.3284,-4.2623,-4.1701,-4.1194,-4.0816,-4.0443,-3.9445,-3.8438,-3.7576,0.0,0.0,0.0,0.0,0.0,0.0,0.0,0.0,0.0,-2.0058,-2.0736,-2.0977,-2.0257,-2.0945,-2.177,-2.2482,-2.1368,-2.2175,-2.5846,-2.6946,-2.8823,-3.1904,-3.4096,-3.5887,-3.7273,-3.7585,-3.8411,-3.9798,-4.0131,-4.0577,-4.1093,-4.1109,-4.1109,-4.1105,-4.1105,-4.1107,-4.109,-4.1107,-4.108,-4.1069,-4.1098,-4.1104,-4.0992,-3.9976,-3.8928,-3.8065,-3.8551,-3.738,0.0,-3.5962,-3.6047,-3.6216,-3.7587,-3.7326,-3.6358,-3.568,-3.5082,-3.4641,-3.4511,-3.4999,-3.6387,0.0,-4.1118,-4.2288,-4.5936,-4.6212,-4.6386,-4.8789,-4.9797,-5.0674,-5.2032,-5.3257,-5.4258,0.0,-5.5682,-5.6164,-5.6042,-5.5451,-5.4767,-5.4051,-5.3658,-5.3678,-5.4319,-5.438,-5.4378,-5.4428,-5.4248,-5.4143,-5.4192,-5.4018,-5.3926,-5.3963,-5.4037,-5.411,-5.4165,-5.42,-5.4066,-5.3813,-5.2849,-5.2253,-5.1879,-5.052,-4.9179,-4.7962,-4.7519,-4.6073,-4.4025,-4.4272,-4.3458,-4.2098,-4.2334,-4.1842,-4.0798,-3.9478,-3.8616,-3.8016,0.0,0.0,0.0,0.0,0.0,0.0,0.0,0.0,0.0,0.0,-2.1074,-2.146,-2.1476,-2.2012,-2.2485,-2.2718,-2.2094,-2.2682,-2.5023,-2.6026,-2.7967,-3.1164,-3.2813,-3.4467,-3.6185,-3.6659,-3.7489,-3.8757,-3.9236,-3.98,-4.0407,-4.0403,-4.0536,-4.0741,-4.0741,-4.0879,-4.1108,-4.1093,-4.1094,-4.1093,-4.1104,-4.0814,-4.0195,-3.8475,-3.673,-3.5404,-3.6827,-3.5786,-3.3821,-3.4434,-3.498,-3.5513,-3.6177,-3.635,-3.6061,-3.4914,-3.4979,-3.5722,-3.7138,-3.8192,0.0,-4.2671,-4.4702,-4.6446,-4.8265,-4.8879,-4.97,-5.1927,-5.2401,-5.2734,-5.3727,-5.4479,-5.491,-5.4783,-5.5471,-5.5981,-5.5841,-5.5217,-5.4374,-5.3259,-5.3009,-5.3314,-5.428,-5.433,-5.4469,-5.4862,-5.4588,-5.4411,-5.4503,-5.4281,-5.4127,-5.4109,-5.4146,-5.42,-5.4308,-5.4307,-5.434,-5.439,-5.3478,-5.305,-5.2941,-5.1226,-4.9728,-4.8496,-4.8539,-4.726,-4.5168,-4.5213,-4.4236,-4.2727,-4.3087,-4.2484,-4.1237,-3.9936,-3.914,-3.8644,0.0,0.0,0.0,0.0,0.0,0.0,0.0,0.0,0.0,0.0,0.0,0.0,0.0,-2.0608,-2.0927,-2.1774,-2.1745,-2.2443,-2.4212,-2.5147,-2.6827,-2.9457,-3.0499,-3.1791,-3.3471,-3.5165,-3.606,-3.6118,-3.7812,-3.8652,-3.8677,-3.8678,-3.9096,-3.9844,-3.9844,-4.0312,-4.1107,-4.1108,-4.1108,-4.1109,-4.1093,-4.0097,-3.8396,-3.6716,-3.4996,-3.3581,-3.4338,-3.1984,-2.9015,-3.2191,-3.1648,-3.0078,-3.2553,-3.3295,-3.3078,-3.2244,-3.1974,-3.2502,-3.5076,0.0,-4.174,-4.5976,-4.8349,-5.0073,-5.1766,-5.284,-5.3766,-5.4699,-5.4943,-5.4732,-5.3877,-5.3884,-5.4019,-5.3944,-5.4725,-5.5272,-5.5142,-5.5048,-5.463,-5.3601,-5.337,-5.3292,0.0,-5.3802,-5.4325,-5.486,-5.5167,-5.5109,-5.4535,-5.4487,-5.4378,-5.4109,-5.4236,-5.4308,-5.4308,-5.4357,-5.4409,-5.439,-5.3583,-5.3136,-5.2941,-5.133,-5.0164,-4.9471,-4.9471,-4.8639,-4.7236,-4.6404,-4.5223,-4.386,-4.3118,-4.2542,-4.2073,-4.1308,-4.0402,-3.9476,0.0,0.0,0.0,0.0,0.0,0.0,0.0,0.0,0.0,0.0,0.0,0.0,0.0,0.0,0.0,0.0,-2.0922,-2.1381,-2.2501,-2.3428,-2.4838,-2.6833,-2.8369,-2.9704,-3.0856,-3.2023,-3.3152,-3.4265,-3.4864,-3.5711,-3.6815,-3.7402,-3.781,-3.8099,-3.8626,-3.9382,-4.0194,-3.9627,-3.9379,-3.9284,-3.8164,-3.7344,-3.6477,-3.3631,-3.1832,-3.0765,0.0,-3.0203,-3.0114,-3.1184,-3.136,-3.1273,-3.2139,-3.2387,-3.2324,-3.2058,-3.3144,-3.5146,-3.8296,0.0,-4.5335,-4.9594,-5.15,-5.277,-5.4439,-5.5061,-5.5073,-5.4294,-5.3235,-5.1813,-4.9766,-4.9917,-5.0355,-5.0379,-5.2109,-5.3853,-5.5056,-5.4605,-5.3803,-5.2946,-5.2712,0.0,0.0,0.0,0.0,-5.4712,-5.4487,-5.4517,-5.4936,-5.4754,-5.4546,-5.4304,-5.434,-5.4357,-5.4357,-5.4392,-5.4409,-5.439,-5.3581,-5.2869,-5.2238,-5.1166,-5.0228,-4.9509,-4.9409,-4.8609,-4.7383,-4.7279,-4.6356,-4.5036,-4.4856,-4.4249,-4.3462,-4.3373,-4.2578,-4.1312,0.0,0.0,0.0,0.0,0.0,0.0,0.0,0.0,0.0,0.0,0.0,0.0,0.0,0.0,0.0,0.0,0.0,-2.0722,-2.1233,-2.2125,-2.3257,-2.4652,-2.5826,-2.7145,-2.8647,-2.9521,-3.065,-3.2015,-3.2008,-3.2564,-3.3652,-3.3906,-3.4331,-3.4934,-3.5442,-3.6369,-3.7471,-3.6914,-3.6672,-3.6581,-3.5507,-3.4667,-3.3816,-3.1326,-2.982,0.0,-2.8139,-2.8925,-3.0351,-3.0311,-3.0897,-3.1542,-3.1249,-3.1132,-3.121,-3.1807,-3.4017,-3.7071,-4.0846,-4.4609,-4.8405,-5.2419,-5.4003,-5.4888,-5.5928,-5.5696,-5.4854,-5.3516,-5.1589,-4.9464,-4.7165,-4.6735,-4.6946,-4.7565,-4.9112,-5.11,-5.3522,-5.3523,-5.3193,-5.2983,-5.2852,0.0,0.0,0.0,0.0,-5.4665,-5.4636,-5.4814,-5.5322,-5.5053,-5.4776,-5.4552,-5.4458,-5.4409,-5.4409,-5.4409,-5.4409,-5.439,-5.3883,-5.3019,-5.1874,-5.1367,-5.0522,-4.9509,-4.9409,-4.8877,-4.8053,-4.7757,-4.7053,-4.6139,-4.5753,-4.5028,-4.4268,-4.4443,-4.3932,-4.2902,0.0,0.0,0.0,0.0,0.0,0.0,0.0,0.0,0.0,0.0,0.0,0.0,0.0,0.0,0.0,0.0,0.0,0.0,-2.037,-2.1143,-2.1989,-2.2869,-2.295,-2.4149,-2.6687,-2.7599,-2.8435,-2.9233,-2.924,-2.9288,-2.9385,-2.8641,-2.914,-3.066,-3.0757,-3.1742,-3.3338,-3.3294,-3.3266,-3.3256,-3.3178,-3.2142,-3.0571,-2.972,-2.8902,-2.8101,-2.7243,-2.8047,-2.9549,-2.9588,-3.0249,-3.0889,-3.0068,-2.9814,-3.0141,-3.1701,-3.4633,-3.8299,-4.2576,-4.6816,-5.0852,-5.4287,-5.5745,-5.6299,-5.6145,-5.4757,-5.3229,-5.2261,-4.9967,-4.7591,0.0,0.0,-4.3933,-4.5648,-4.6096,-4.7461,-5.0935,-5.2071,-5.2886,0.0,0.0,0.0,0.0,0.0,0.0,-5.4735,0.0,-5.5845,-5.5618,-5.5353,-5.5107,-5.4836,-5.4568,-5.4424,-5.4424,-5.4409,-5.4409,-5.4409,-5.4352,-5.3508,-5.1968,-5.1874,-5.1011,-4.9565,-4.9509,-4.9424,-4.9201,-4.7911,-4.7351,-4.7169,-4.5854,-4.5068,-4.4671,-4.4703,-4.4577,-4.4165,0.0,0.0,0.0,0.0,0.0,0.0,0.0,0.0,0.0,0.0,0.0,0.0,0.0,0.0,0.0,0.0,0.0,0.0,-1.8637,-1.8859,-1.9369,-2.0224,-2.0885,-2.1826,-2.3108,-2.3984,-2.484,-2.5694,-2.5692,-2.6021,-2.6641,-2.7715,-2.8454,-2.8923,-3.0172,-3.137,-3.2394,-3.1731,-3.1458,-3.1342,-3.0098,-2.9294,-2.8706,-2.7244,-2.6931,-2.7153,-2.6325,-2.7148,-2.873,-2.9389,-3.101,-3.2711,-3.2498,-3.3318,-3.4548,-3.5556,-3.8314,-4.1717,-4.4785,-4.873,-5.2358,-5.3869,-5.4875,-5.5157,-5.3783,-5.2113,-5.025,-4.8082,-4.5049,-4.2401,0.0,0.0,0.0,-4.4407,-4.6002,0.0,-5.2561,-5.3258,0.0,-5.4519,0.0,-5.4284,-5.3572,-5.4097,0.0,0.0,-5.4987,-5.5247,-5.5579,-5.5533,-5.5384,-5.5121,-5.4851,-5.4689,-5.4689,-5.4505,-5.4409,-5.439,-5.3789,-5.328,-5.2829,-5.1574,-5.0767,-5.0353,-4.9652,-4.9324,-4.9273,-4.8887,-4.8626,-4.8398,-4.7868,-4.7242,-4.667,-4.6677,-4.5834,-4.4655,0.0,0.0,0.0,0.0,0.0,0.0,0.0,0.0,0.0,0.0,0.0,0.0,0.0,0.0,0.0,0.0,0.0,0.0,0.0,-1.8361,-1.8771,-1.9232,-2.0082,-2.0944,-2.178,-2.2282,-2.2961,-2.3834,-2.344,-2.3494,-2.3942,-2.4549,-2.5019,-2.5423,-2.638,-2.7515,-2.869,-2.8203,-2.8203,0.0,0.0,-2.7148,-2.7045,-2.6483,-2.6307,-2.6361,-2.6308,-2.7148,-2.8555,0.0,0.0,-3.3086,-3.4589,-3.5762,-3.6953,-3.8906,0.0,-4.4198,-4.7168,-5.0253,-5.2851,-5.3686,-5.398,-5.3609,-5.1843,-4.9772,-4.7384,-4.4417,-4.1894,0.0,0.0,0.0,0.0,0.0,0.0,0.0,-5.086,-5.2396,-5.3674,0.0,-5.5462,0.0,-5.4655,-5.5045,-5.5335,0.0,-5.5335,-5.5466,-5.576,-5.566,-5.5533,-5.5377,-5.5121,-5.4919,-5.4806,-5.4536,-5.4409,-5.439,-5.3939,-5.3543,-5.3167,-5.1818,-5.1029,-5.0635,0.0,-4.939,-4.9358,-4.9057,-4.8869,-4.8747,-4.844,-4.7939,-4.7398,-4.7472,-4.6585,-4.5345,0.0,0.0,0.0,0.0,0.0,0.0,0.0,0.0,0.0,0.0,0.0,0.0,0.0,0.0,0.0,0.0,0.0,0.0,0.0,0.0,-1.9147,-1.9218,-1.9943,-2.0745,-2.1627,-2.1636,-2.2019,-2.2756,-2.2007,-2.1636,-2.1607,-2.0966,-2.1079,-2.1815,-2.1913,-2.2871,-2.4394,-2.4277,-2.4802,-2.5679,-2.5447,-2.5427,-2.5603,0.0,-2.6015,-2.5488,-2.6465,-2.7305,-2.8418,-3.144,-3.2592,-3.3358,-3.6543,-3.7812,-3.8788,-4.1972,-4.4061,-4.6034,-4.9235,-5.1319,-5.2741,-5.3406,-5.2908,-5.1751,-4.9839,-4.7265,-4.4296,-4.0859,0.0,-3.8399,-3.6918,-3.6841,-3.7665,-3.9687,0.0,-4.3733,-4.8197,-5.0792,-5.3151,-5.5702,-5.611,-5.6132,-5.6001,-5.6012,-5.6012,-5.6012,-5.6012,-5.6012,-5.6012,-5.5769,-5.5639,-5.5607,-5.5365,-5.5115,-5.4866,-5.46,-5.4401,-5.4288,-5.4257,-5.3808,-5.2998,-5.2137,-5.1367,-5.067,0.0,0.0,-4.9459,-4.8937,-4.8727,-4.8692,-4.8384,-4.8038,-4.7681,-4.765,-4.7021,-4.6039,0.0,0.0,0.0,0.0,0.0,0.0,0.0,0.0,0.0,0.0,-1.9715,-1.9803,0.0,0.0,0.0,0.0,0.0,0.0,0.0,0.0,0.0,-1.9256,-1.9428,-1.9913,-2.0788,-2.0806,-2.0857,-2.0955,-2.0805,-2.0727,-2.0742,-2.1302,-2.1658,-2.1832,-2.2541,-2.3439,-2.4354,-2.3635,-2.4241,-2.5568,-2.4128,-2.3975,-2.4564,-2.3983,0.0,0.0,-2.5351,-2.6015,-2.6989,-3.2429,-3.5202,-3.6745,-3.8728,-4.0837,-4.2989,-4.5039,-4.6347,-4.7581,-4.955,-5.1327,-5.2455,-5.1884,-5.1108,-4.9638,-4.6503,-4.3269,0.0,0.0,-3.5521,-3.5252,-3.4915,-3.6028,-3.8239,-4.2022,0.0,0.0,0.0,0.0,-5.2132,0.0,0.0,0.0,0.0,0.0,0.0,0.0,0.0,0.0,-5.6012,-5.5958,-5.5827,-5.5618,-5.5555,-5.5389,-5.5128,-5.4861,-5.4394,-5.3747,-5.3505,-5.2944,-5.21,-5.1273,-5.0839,-5.067,0.0,0.0,-4.949,-4.9393,-4.9343,-4.9343,-4.9279,-4.9214,-4.9036,-4.811,-4.7228,-4.636,0.0,0.0,0.0,0.0,0.0,0.0,0.0,-1.8847,-1.932,-1.9762,-2.0186,-1.9965,-1.8701,-1.8225,0.0,0.0,0.0,0.0,0.0,0.0,0.0,0.0,-1.9725,-2.0172,-2.0581,-2.0599,0.0,0.0,0.0,-2.0523,-2.0512,0.0,-2.119,-2.1185,-2.1619,-2.2283,-2.3102,-2.3106,-2.3576,-2.4318,-2.3936,-2.3763,-2.3687,0.0,0.0,0.0,0.0,-2.5312,-2.6404,-3.1088,-3.3837,-3.5955,-3.9919,-4.2011,-4.3448,-4.5612,-4.6895,-4.8052,-5.0103,-5.1263,-5.1773,-5.1358,-4.9611,-4.7067,-4.3646,0.0,0.0,0.0,-3.3605,-3.4198,-3.3229,0.0,0.0,0.0,0.0,0.0,0.0,0.0,0.0,0.0,0.0,0.0,0.0,0.0,0.0,0.0,0.0,0.0,-5.6012,-5.6012,-5.5949,-5.5818,-5.5533,-5.5329,-5.5205,-5.4371,-5.3767,-5.3371,-5.2801,-5.2306,-5.1874,-5.1067,-5.0707,-5.067,-4.9847,0.0,-4.9471,-4.9002,-4.9096,-4.9399,-4.8356,-4.8218,-4.8466,-4.7347,-4.6411,-4.5651,0.0,0.0,0.0,0.0,0.0,0.0,0.0,-1.8814,-1.9618,-2.0302,-2.0404,-1.9929,-1.8601,-1.834,-1.8337,0.0,0.0,0.0,0.0,0.0,0.0,0.0,0.0,0.0,0.0,0.0,0.0,0.0,0.0,0.0,0.0,0.0,0.0,0.0,0.0,-2.1077,-2.1918,-2.2546,-2.2937,0.0,0.0,-2.3433,0.0,0.0,0.0,0.0,0.0,-2.4687,-2.5956,-2.9393,-3.1439,-3.3495,-3.8807,-4.0976,-4.2103,-4.4861,-4.632,-4.7571,-4.999,-5.0937,-5.1174,-5.0965,-4.8344,-4.4926,-4.1503,-3.8591,0.0,0.0,-3.2303,-3.3449,-3.1821,0.0,-3.6543,0.0,0.0,0.0,0.0,0.0,0.0,0.0,0.0,0.0,0.0,0.0,0.0,0.0,0.0,0.0,-5.6012,-5.6012,-5.5915,-5.576,-5.5327,-5.4997,-5.4745,-5.3646,-5.2988,-5.2736,-5.2,-5.1555,-5.1367,-5.0729,-5.035,-5.0144,-4.949,0.0,0.0,-4.8232,-4.8345,-4.8817,-4.723,-4.7039,-4.7492,-4.6407,-4.5506,-4.4802,0.0,0.0,0.0,0.0,0.0,0.0,0.0,-1.9674,-2.0305,-2.0386,-2.0455,-2.043,-2.0279,-1.9562,-1.9409,0.0,0.0,0.0,0.0,0.0,0.0,0.0,0.0,0.0,0.0,0.0,0.0,0.0,0.0,0.0,0.0,0.0,0.0,0.0,0.0,0.0,0.0,-2.1888,0.0,0.0,0.0,0.0,0.0,0.0,0.0,0.0,0.0,0.0,0.0,0.0,0.0,-3.0367,-3.3307,-3.6368,-3.9539,-4.2929,0.0,0.0,-4.8254,-5.0087,-5.1099,-5.0228,-4.745,-4.4025,-4.0591,0.0,0.0,-3.0242,-3.0928,-3.1833,-3.0806,-3.2827,-3.517,-3.6734,-3.7135,-3.8972,0.0,0.0,0.0,0.0,0.0,0.0,0.0,0.0,0.0,0.0,0.0,0.0,0.0,-5.6012,-5.5664,-5.4929,-5.4856,-5.4332,-5.3297,-5.2934,-5.2252,-5.1286,-5.096,-5.0429,-4.9715,-4.964,-4.9171,-4.842,0.0,0.0,0.0,-4.7143,-4.7162,-4.7203,-4.7038,-4.7005,-4.6948,-4.6071,-4.5232,-4.4538,0.0,0.0,0.0,0.0,0.0,0.0,-1.8985,-1.9759,-2.0334,-2.0334,-2.0369,-2.0396,-2.0432,-1.9665,-1.9308,0.0,0.0,0.0,0.0,0.0,0.0,0.0,0.0,0.0,0.0,0.0,0.0,0.0,0.0,0.0,0.0,0.0,0.0,0.0,0.0,0.0,0.0,0.0,0.0,0.0,0.0,0.0,0.0,0.0,0.0,0.0,0.0,0.0,0.0,0.0,0.0,0.0,-3.0449,-3.1699,0.0,0.0,-4.224,-4.4819,-4.7813,-4.9539,-5.0485,-5.0645,-4.6934,-4.2476,-3.9572,0.0,-3.2155,-2.9226,-3.0374,-3.1622,-3.0733,-3.2663,-3.4637,-3.5324,-3.5403,0.0,0.0,0.0,0.0,0.0,0.0,0.0,0.0,0.0,0.0,0.0,0.0,0.0,0.0,-5.6012,-5.5625,-5.4832,-5.464,-5.4022,-5.2863,-5.2101,-5.1442,-5.0851,-5.0262,-4.9527,-4.872,-4.872,-4.8251,-4.7481,0.0,0.0,0.0,-4.643,-4.6523,-4.6899,-4.589,-4.5495,-4.5439,-4.5115,-4.4144,-4.3074,0.0,0.0,0.0,0.0,0.0,-1.8953,-1.9291,-1.9873,-2.0276,-2.0306,-2.0318,-2.025,-2.0036,-1.9267,-1.8659,-1.8445,0.0,0.0,0.0,0.0,0.0,0.0,0.0,0.0,0.0,0.0,-2.0212,-2.0229,-2.0464,0.0,0.0,0.0,0.0,0.0,0.0,0.0,0.0,0.0,0.0,0.0,0.0,0.0,0.0,0.0,0.0,0.0,0.0,0.0,0.0,0.0,0.0,0.0,-2.8059,-2.8569,-2.9821,0.0,-3.9391,-4.2497,-4.6113,-4.8091,-4.9239,-4.9584,-4.5721,-4.1105,0.0,0.0,-3.1328,-2.8962,-2.9912,-3.1045,-3.067,-3.228,-3.3742,-3.4003,-3.4425,-3.5541,-3.7896,0.0,0.0,0.0,0.0,0.0,0.0,0.0,0.0,0.0,0.0,0.0,0.0,-5.6012,-5.5509,-5.4445,-5.4236,-5.3462,-5.2089,-5.1337,-5.0821,-5.0547,-4.9912,-4.9177,-4.84,-4.8352,-4.7876,-4.7104,0.0,0.0,0.0,-4.596,-4.5923,-4.6134,-4.4951,-4.435,-4.4158,-4.4158,-4.3074,-4.176,0.0,0.0,0.0,0.0,0.0,0.0,-2.004,-2.0201,-2.0223,-2.03,-2.0366,-2.0075,-1.9217,-1.8392,-1.7562,-1.6709,0.0,0.0,0.0,0.0,0.0,0.0,0.0,0.0,0.0,0.0,-1.9311,-1.9312,-2.0172,-2.0601,-2.0601,0.0,0.0,0.0,0.0,0.0,0.0,0.0,0.0,0.0,0.0,0.0,0.0,0.0,0.0,0.0,0.0,0.0,0.0,0.0,0.0,0.0,0.0,-2.7507,-3.0279,-3.3727,-3.5944,-3.8193,-4.2404,-4.5445,-4.7217,-4.628,-4.351,-4.0103,0.0,0.0,-3.1501,-2.9753,-2.94,-2.9667,-3.0452,-3.1332,-3.2203,-3.3064,-3.4609,-3.6299,-3.8049,0.0,0.0,0.0,0.0,0.0,0.0,0.0,0.0,0.0,0.0,0.0,0.0,-5.6012,-5.5238,-5.3575,-5.3517,-5.2582,-5.0644,-5.0606,-5.0476,-5.0214,-4.9936,-4.948,-4.8892,-4.8694,-4.8128,0.0,0.0,0.0,0.0,-4.5697,-4.5247,-4.4519,-4.4501,-4.4008,-4.3313,-4.3313,-4.2243,-4.0929,0.0,0.0,0.0,0.0,0.0,0.0,0.0,-2.0148,-2.0215,-2.0227,-2.0283,-2.0228,-1.9948,-1.867,-1.7745,-1.7517,0.0,0.0,0.0,0.0,0.0,0.0,0.0,0.0,0.0,0.0,-1.9586,-2.0191,-2.1054,-2.1172,-2.0605,-2.1211,-2.1172,0.0,0.0,0.0,0.0,0.0,0.0,0.0,0.0,0.0,0.0,0.0,0.0,0.0,0.0,0.0,0.0,0.0,0.0,0.0,0.0,0.0,0.0,-3.1376,-3.3645,0.0,-3.8454,-3.9738,-4.057,-4.1463,-3.9142,-3.6024,-3.3731,-3.2123,-3.063,-2.8871,-2.8999,-2.9838,-3.123,-3.1709,-3.2372,-3.3795,-3.4921,-3.5855,0.0,0.0,0.0,0.0,0.0,0.0,0.0,0.0,0.0,0.0,0.0,0.0,0.0,-5.549,-5.4658,-5.3536,-5.3498,-5.2563,-5.0616,-5.0587,-5.0476,-5.0195,-5.0104,-4.9697,-4.8976,-4.8895,0.0,0.0,0.0,0.0,0.0,-4.4955,-4.4726,-4.4444,-4.3895,-4.3163,-4.2399,-4.2399,-4.1379,-4.0096,0.0,0.0,0.0,0.0,0.0,0.0,0.0,-1.9907,-2.0169,-2.0207,-2.0265,-2.019,-1.9874,-1.8617,-1.7691,-1.7432,0.0,0.0,0.0,0.0,0.0,0.0,0.0,0.0,-1.8301,-1.8632,-1.9237,-2.0116,-2.1309,-2.1621,-2.1093,-2.164,-2.1601,-2.1074,-2.0741,-2.0602,0.0,0.0,0.0,0.0,0.0,0.0,-2.0605,0.0,0.0,0.0,0.0,0.0,0.0,0.0,0.0,0.0,0.0,0.0,0.0,0.0,-3.119,-3.3184,-3.5528,-3.637,-3.6872,-3.7949,-3.5921,0.0,0.0,-3.0603,-2.9447,-2.8368,-2.8554,-2.9528,-3.1528,-3.1902,-3.2463,-3.4158,-3.5116,0.0,0.0,0.0,0.0,0.0,0.0,0.0,0.0,0.0,0.0,0.0,0.0,0.0,0.0,0.0,-5.3904,-5.3033,-5.3014,-5.2269,-5.0738,-5.0718,-5.0635,-5.0458,-5.0048,-4.9484,-4.8769,-4.8334,0.0,0.0,0.0,0.0,0.0,-4.5038,-4.4763,-4.4407,-4.3613,-4.2769,-4.1967,-4.1667,-4.0741,-3.9719,0.0,0.0,0.0,0.0,0.0,0.0,0.0,0.0,-1.9936,-2.0003,-2.0065,-1.983,-1.9092,-1.8285,-1.7481,-1.6665,0.0,0.0,0.0,0.0,0.0,0.0,0.0,0.0,-1.6773,-1.7597,-1.8496,-1.9492,-2.1152,-2.1992,-2.1992,-2.205,-2.2011,-2.1855,-2.1054,-2.0663,-2.0605,-2.06,-2.0554,-2.0511,-2.0578,-2.0605,0.0,0.0,0.0,0.0,0.0,0.0,0.0,0.0,0.0,0.0,0.0,0.0,0.0,0.0,0.0,0.0,0.0,-3.4632,-3.5177,-3.5162,0.0,0.0,0.0,-2.9231,0.0,-2.819,-2.8145,-2.889,-3.1514,-3.1952,-3.2499,-3.4302,0.0,0.0,0.0,0.0,0.0,0.0,0.0,0.0,0.0,0.0,0.0,0.0,0.0,0.0,0.0,0.0,-5.3041,-5.2229,-5.2132,-5.1718,-5.0917,-5.0898,-5.0898,-5.0898,-4.9889,-4.908,-4.8461,-4.7405,0.0,0.0,0.0,0.0,0.0,-4.5709,-4.5134,-4.4382,-4.3498,-4.2671,-4.185,-4.1055,-4.0332,-3.9728,0.0,0.0,0.0,0.0,0.0,0.0,0.0,0.0,0.0,0.0,-1.8263,-1.8255,-1.8126,-1.7918,-1.7481,0.0,0.0,0.0,0.0,0.0,0.0,0.0,0.0,0.0,-1.7653,-1.7891,-1.9082,-2.1289,-2.2324,-2.2812,-2.2831,-2.3494,-2.3123,-2.1894,-2.1698,-2.121,-2.0605,-2.0605,-2.0584,-2.0583,-2.0586,-2.0605,0.0,0.0,0.0,0.0,-2.2576,-2.3494,0.0,0.0,0.0,0.0,0.0,0.0,0.0,0.0,-2.9865,-2.9524,-2.9671,0.0,-2.8994,-2.9,-2.8575,-2.7945,0.0,-2.7566,-2.8199,-2.8209,0.0,0.0,0.0,-3.2392,-3.2753,0.0,0.0,0.0,0.0,0.0,0.0,0.0,0.0,0.0,0.0,0.0,0.0,0.0,0.0,0.0,0.0,0.0,-5.243,-5.2287,-5.1579,-5.1111,-5.0898,-5.0898,-5.0898,-5.0898,-5.0645,-5.0132,-4.9397,-4.9119,0.0,0.0,0.0,0.0,-4.564,-4.4698,-4.4197,-4.3893,-4.2428,-4.1724,-4.1438,-4.0641,-4.0172,-3.9931,0.0,0.0,0.0,0.0,0.0,0.0,0.0,0.0,0.0,0.0,0.0,0.0,0.0,0.0,0.0,0.0,0.0,0.0,0.0,0.0,0.0,0.0,0.0,-1.6636,-1.7965,-1.8789,-2.0078,-2.1894,-2.3105,-2.3691,-2.371,-2.4178,-2.3709,-2.242,-2.1656,-2.1034,-2.0605,-2.0605,-2.0605,-2.0605,-2.0605,0.0,0.0,0.0,0.0,0.0,-2.2477,-2.3319,0.0,-2.4393,-2.5566,-2.7012,0.0,0.0,0.0,0.0,-2.9542,-2.9735,-2.806,-2.755,-2.7405,-2.7,-2.6646,-2.6385,-2.6266,-2.6679,-2.7279,-2.8041,0.0,0.0,0.0,0.0,0.0,0.0,0.0,0.0,0.0,0.0,0.0,0.0,0.0,0.0,0.0,0.0,0.0,0.0,0.0,0.0,0.0,0.0,-5.1687,-5.1744,-5.1223,-5.0948,-5.0948,-5.0914,-5.0914,-5.0929,-5.0542,-4.9938,-4.9139,-4.8732,0.0,0.0,0.0,0.0,-4.4925,-4.3771,-4.3309,-4.3175,-4.1896,-4.1399,-4.1304,-4.0501,-4.0185,-4.0185,0.0,0.0,0.0,0.0,0.0,0.0,0.0,0.0,0.0,0.0,0.0,0.0,0.0,0.0,0.0,0.0,0.0,0.0,0.0,0.0,0.0,0.0,-1.6222,-1.7162,-1.8178,-1.9783,-2.115,-2.2282,-2.3846,-2.4667,-2.4804,-2.4803,-2.4196,-2.3021,-2.1341,-2.0603,-2.0605,-2.0605,-2.0605,-2.0605,-2.0605,0.0,0.0,0.0,0.0,0.0,0.0,0.0,0.0,-2.4198,-2.5273,-2.6465,-2.5722,0.0,0.0,0.0,0.0,0.0,-2.7674,-2.7846,-2.8291,-2.7023,-2.6299,-2.608,-2.6766,-2.6491,-2.6535,-2.8074,0.0,0.0,0.0,-3.2889,0.0,0.0,0.0,0.0,0.0,0.0,0.0,0.0,0.0,0.0,0.0,0.0,0.0,0.0,0.0,0.0,0.0,0.0,0.0,-5.1107,-5.1034,-5.0942,-5.0814,-5.0886,-5.0956,-5.0993,-5.0129,-4.929,-4.8477,-4.7611,-4.6661,0.0,0.0,0.0,-4.4079,-4.2964,-4.2518,-4.2422,-4.1628,-4.1302,-4.1225,-4.0541,-4.0359,-4.0434,0.0,0.0,0.0,0.0,0.0,0.0,0.0,0.0,0.0,0.0,0.0,0.0,0.0,0.0,0.0,0.0,0.0,0.0,0.0,0.0,0.0,-1.5397,-1.6226,-1.7445,-1.9073,-2.0091,-2.1715,-2.402,-2.5019,-2.5879,-2.6601,-2.6597,-2.5359,-2.3023,-2.1352,-2.0596,-2.0598,-2.0598,-2.0599,-2.0601,-2.0601,0.0,0.0,0.0,0.0,0.0,0.0,0.0,0.0,-2.3298,-2.3961,-2.4782,-2.4646,0.0,0.0,0.0,0.0,0.0,-2.8,-2.9226,-2.9661,-2.6642,-2.6347,-2.6834,-2.696,-2.7465,-2.8175,-2.911,0.0,0.0,0.0,-3.3323,0.0,0.0,0.0,0.0,0.0,0.0,0.0,0.0,0.0,0.0,0.0,0.0,0.0,0.0,0.0,0.0,0.0,0.0,0.0,-5.1108,-5.1088,-5.0739,-4.9989,-5.0713,-5.1067,-5.1067,-5.0202,-4.933,-4.8477,-4.7611,-4.6351,0.0,0.0,-4.4176,-4.346,-4.2484,-4.2097,-4.2019,-4.1208,-4.09,-4.0881,-4.0752,-4.0688,-4.0649,0.0,0.0,0.0,0.0,0.0,0.0,0.0,0.0,0.0,0.0,0.0,0.0,0.0,0.0,0.0,0.0,0.0,0.0,0.0,0.0,-1.6751,-1.6756,-1.7584,-1.8436,-1.923,-2.1014,-2.2989,-2.5096,-2.5987,-2.6615,-2.6982,-2.6038,-2.4701,-2.3049,-2.1806,-2.0992,-2.0551,-2.0551,-2.0573,-2.0596,0.0,0.0,0.0,0.0,0.0,0.0,0.0,0.0,0.0,0.0,-2.2987,-2.3612,-2.3183,0.0,0.0,0.0,0.0,0.0,-2.6906,-2.7801,-2.8364,-2.6793,-2.7389,-2.8352,-2.8403,-2.8697,-2.9184,-3.0033,0.0,0.0,0.0,0.0,0.0,0.0,0.0,0.0,0.0,0.0,0.0,0.0,0.0,0.0,0.0,0.0,0.0,0.0,0.0,0.0,0.0,0.0,0.0,0.0,-5.0429,-5.0216,-4.9864,-4.9316,-4.9259,-4.9686,-4.8858,-4.7998,-4.7117,-4.6282,-4.521,-4.397,0.0,-4.3045,-4.262,-4.1718,-4.1345,-4.1318,-4.0931,-4.08,-4.0804,-4.084,-4.0832,-4.0793,0.0,0.0,0.0,0.0,0.0,0.0,0.0,0.0,0.0,0.0,0.0,0.0,0.0,0.0,0.0,0.0,0.0,0.0,0.0,-1.7998,-1.7818,-1.7602,-1.8619,-1.9377,-1.9795,-2.2164,-2.4235,-2.6008,-2.6868,-2.7185,-2.6964,-2.5414,-2.4118,-2.3058,-2.2194,-2.1324,-2.0503,-2.0503,-2.0642,-2.0882,0.0,0.0,0.0,0.0,0.0,0.0,0.0,0.0,0.0,0.0,0.0,0.0,0.0,0.0,0.0,-2.3788,-2.5134,-2.6596,-2.6121,-2.6921,-2.7802,-2.7396,-2.8278,-2.9392,-3.0033,-3.0299,-3.0717,-3.1808,0.0,0.0,0.0,0.0,0.0,0.0,0.0,0.0,0.0,0.0,0.0,0.0,0.0,0.0,0.0,0.0,0.0,0.0,0.0,0.0,0.0,0.0,0.0,0.0,-4.9043,-4.8926,-4.8993,-4.7667,-4.7417,-4.821,-4.72,-4.6363,-4.5691,-4.487,-4.398,-4.3056,-4.2399,-4.2003,-4.173,-4.1079,-4.0788,-4.0806,-4.0806,-4.0809,-4.0837,-4.0883,-4.0908,-4.0907,0.0,0.0,0.0,0.0,0.0,0.0,0.0,0.0,0.0,0.0,0.0,0.0,0.0,0.0,0.0,0.0,0.0,0.0,0.0,-1.8319,-1.7542,-1.6735,-1.8237,-1.9897,-2.1581,-2.332,-2.5099,-2.6916,-2.7716,-2.7738,-2.6981,-2.5988,-2.4649,-2.3056,-2.2185,-2.1317,-2.0501,-2.0501,-2.0976,-2.1707,-2.1703,0.0,0.0,0.0,0.0,0.0,0.0,0.0,0.0,0.0,0.0,0.0,0.0,0.0,-2.3494,-2.5058,-2.5659,-2.5958,-2.6707,-2.8686,-3.0153,-2.8591,-2.8298,-2.9001,-3.1383,-3.2548,-3.3598,-3.5283,-3.5561,0.0,0.0,0.0,0.0,0.0,0.0,0.0,0.0,0.0,0.0,0.0,0.0,0.0,0.0,0.0,0.0,0.0,0.0,0.0,0.0,0.0,0.0,0.0,0.0,-4.6288,-4.6274,-4.6157,-4.6521,-4.737,-4.5739,-4.4948,-4.4851,-4.3996,-4.3077,-4.2194,-4.2197,-4.171,-4.0897,-4.0829,-4.0801,-4.0807,-4.0807,-4.0837,-4.0883,-4.0893,-4.0907,-4.0907,0.0,0.0,0.0,0.0,0.0,0.0,0.0,0.0,0.0,0.0,0.0,0.0,0.0,0.0,0.0,0.0,0.0,0.0,0.0,-1.9594,-1.9079,-1.8183,-1.9278,-2.0479,-2.1716,-2.2894,-2.4878,-2.7675,-2.8033,-2.8043,-2.7701,-2.6228,-2.4924,-2.3816,-2.2941,-2.2367,-2.2014,-2.1519,-2.1503,-2.1854,-2.2383,-2.3007,0.0,0.0,0.0,0.0,0.0,0.0,0.0,0.0,-2.2167,-2.3043,-2.2748,-2.2866,-2.3337,-2.4549,-2.4883,-2.5077,-2.5955,-2.7694,-2.9081,-2.8452,-2.9078,-3.0524,-3.3139,-3.4771,-3.5641,-3.5269,-3.6423,0.0,0.0,0.0,0.0,0.0,0.0,0.0,0.0,0.0,0.0,0.0,0.0,0.0,0.0,0.0,0.0,0.0,0.0,0.0,0.0,0.0,0.0,0.0,0.0,-4.5491,-4.6002,-4.4428,-4.4074,-4.4923,-4.4287,-4.3704,-4.3146,-4.2287,-4.1684,-4.1357,-4.1387,-4.1177,-4.079,-4.0801,-4.0818,-4.0853,-4.0854,-4.0883,-4.0893,-4.0903,-4.0907,-4.0907,0.0,0.0,0.0,0.0,0.0,0.0,0.0,0.0,0.0,0.0,0.0,0.0,0.0,0.0,0.0,0.0,0.0,0.0,-2.0275,-2.0337,-1.9983,-1.9113,-1.9899,-2.0776,-2.1643,-2.2519,-2.4648,-2.811,-2.8152,-2.7892,-2.7321,-2.6088,-2.5066,-2.4269,-2.3675,-2.3259,-2.296,-2.2403,-2.2347,-2.2634,-2.3244,-2.3636,0.0,0.0,0.0,0.0,0.0,0.0,0.0,0.0,-2.2418,-2.3156,-2.3411,-2.3703,-2.4036,-2.4645,-2.4803,-2.4941,-2.5547,-2.6972,-2.8299,-2.8297,-2.9976,-3.2222,-3.4559,-3.6189,-3.7269,-3.7496,-3.8714,-3.9468,-3.8566,0.0,0.0,0.0,0.0,0.0,0.0,0.0,0.0,0.0,0.0,0.0,0.0,0.0,0.0,0.0,0.0,0.0,0.0,0.0,0.0,0.0,0.0,0.0,-4.4797,-4.3068,-4.25,-4.3083,-4.3083,-4.2636,-4.1767,-4.116,-4.0893,-4.0902,-4.0893,-4.0863,-4.0823,-4.0828,-4.0863,-4.0898,-4.0898,-4.0907,-4.0907,-4.0907,-4.0907,-4.0907,0.0,0.0,0.0,0.0,0.0,0.0,0.0,0.0,0.0,0.0,0.0,0.0,0.0,0.0,0.0,0.0,0.0,0.0,-2.0192,-2.0261,-1.9904,-1.9035,-1.9827,-2.07,-2.1571,-2.2458,-2.4608,-2.8081,-2.8087,-2.7207,-2.5518,-2.5498,-2.5071,-2.4312,-2.4293,-2.3814,-2.3026,-2.3012,-2.3503,-2.4294,-2.4318,-2.4815,-2.5585,0.0,0.0,0.0,0.0,0.0,0.0,0.0,-2.2395,-2.3254,-2.4133,-2.4998,-2.5703,-2.5701,-2.5703,-2.5703,-2.5703,-2.6991,-2.8313,-2.832,-3.0897,-3.3857,-3.5524,-3.66,-3.8463,-4.2817,-4.2997,-4.2098,-4.1173,0.0,0.0,0.0,0.0,0.0,0.0,0.0,0.0,0.0,0.0,0.0,0.0,0.0,0.0,0.0,0.0,0.0,0.0,0.0,0.0,0.0,0.0,0.0,-4.2194,-4.2194,-4.2194,-4.2194,-4.2194,-4.1747,-4.0907,-4.0907,-4.0893,-4.0907,-4.0893,-4.0893,-4.0907,-4.0898,-4.0907,-4.0907,-4.0907,-4.0907,-4.0907,-4.0907,-4.0907,-4.0907,0.0,0.0,0.0,0.0,0.0,0.0,0.0,0.0,0.0,0.0,0.0,0.0,0.0,0.0,0.0,0.0,0.0,0.0,-2.0211,-2.0218,-1.9868,-1.9047,-1.9783,-2.0373,-2.068,-2.2736,-2.4923,-2.7198,-2.6563,-2.63,-2.6316,-2.5147,-2.4784,-2.5126,-2.4552,-2.4464,-2.4713,-2.4144,-2.4031,-2.429,-2.4956,-2.4993,-2.4691,0.0,0.0,0.0,0.0,0.0,0.0,0.0,0.0,0.0,-2.5034,-2.5484,-2.5698,-2.5694,-2.6128,-2.66,-2.6601,-2.8339,0.0,-3.0075,0.0,0.0,0.0,-3.8443,-4.0666,0.0,-4.1991,-4.0619,-4.1001,0.0,0.0,0.0,0.0,0.0,0.0,0.0,0.0,0.0,0.0,0.0,0.0,0.0,0.0,0.0,0.0,0.0,0.0,0.0,0.0,0.0,0.0,0.0,-4.2194,-4.1587,-4.1587,-4.2194,-4.1587,-4.114,-4.0907,-4.0907,-4.0903,-4.0893,-4.0903,-4.0903,-4.0893,-4.0903,-4.0907,-4.0907,-4.0907,-4.0907,-4.0907,-4.0907,-4.0907,-4.0907,0.0,0.0,0.0,0.0,0.0,0.0,0.0,0.0,0.0,0.0,-2.0059,-2.0074,0.0,0.0,0.0,0.0,0.0,0.0,0.0,-2.0144,-1.9934,-1.9418,-1.9891,-2.0357,-2.077,-2.2659,-2.4153,-2.5216,-2.5019,-2.5193,-2.5657,-2.4621,-2.4637,-2.5437,-2.4981,-2.5053,-2.5462,-2.4943,-2.4732,-2.4757,-2.5305,-2.5217,-2.4784,0.0,0.0,0.0,0.0,0.0,0.0,0.0,0.0,0.0,-2.5329,-2.5699,-2.5696,-2.5694,-2.6069,-2.656,-2.691,-2.8669,0.0,-3.0723,-3.3299,-3.6266,-3.8281,0.0,0.0,0.0,0.0,0.0,0.0,0.0,0.0,0.0,0.0,0.0,0.0,0.0,0.0,0.0,0.0,0.0,0.0,0.0,0.0,0.0,0.0,0.0,0.0,0.0,0.0,0.0,0.0,0.0,-4.1684,-4.116,-4.116,-4.1684,-4.114,-4.0907,-4.0907,-4.0907,-4.0907,-4.0907,-4.0907,-4.0907,-4.0907,-4.0907,-4.0907,-4.0907,-4.0907,-4.0907,-4.0907,-4.0907,-4.0907,-4.0907,0.0,0.0,0.0,0.0,0.0,0.0,0.0,0.0,0.0,0.0,-2.0011,-2.0006,0.0,0.0,0.0,0.0,0.0,0.0,0.0,-2.0063,-2.0059,-2.0001,-2.0065,-2.0499,-2.1339,-2.2151,-2.2558,-2.2558,-2.3512,-2.4026,-2.4103,-2.4105,-2.457,-2.5406,-2.5467,-2.5536,-2.5608,-2.5456,-2.5487,-2.5596,-2.5464,-2.5448,-2.5515,-2.557,0.0,0.0,0.0,0.0,0.0,0.0,0.0,0.0,-2.5174,-2.5702,-2.57,-2.57,-2.576,-2.6014,-2.6884,-2.8434,0.0,-3.0826,-3.4248,0.0,-4.0537,-4.2382,0.0,0.0,0.0,0.0,0.0,0.0,0.0,0.0,0.0,0.0,0.0,0.0,0.0,0.0,0.0,0.0,0.0,0.0,0.0,0.0,0.0,0.0,0.0,0.0,0.0,0.0,0.0,0.0,-4.0907,-4.0907,-4.0907,0.0,-4.0907,-4.0869,-4.0791,-4.0869,-4.0907,-4.0907,-4.0907,-4.0907,-4.0907,-4.0907,-4.0907,-4.0907,-4.0907,-4.0907,-4.0907,-4.0907,-4.0907,-4.0907,0.0,0.0,0.0,0.0,0.0,0.0,0.0,0.0,0.0,0.0,0.0,0.0,0.0,0.0,0.0,0.0,0.0,0.0,0.0,-2.0006,-2.002,-2.0009,-2.0054,-2.0179,-2.0408,-2.0632,-2.0764,-2.0766,-2.2323,-2.3431,-2.4103,-2.4105,-2.457,-2.5401,-2.5468,-2.584,-2.6401,-2.5699,-2.5799,-2.6388,-2.568,-2.5448,-2.5513,-2.5576,-2.5481,0.0,0.0,0.0,0.0,0.0,0.0,0.0,-2.5367,-2.5701,-2.5702,-2.5702,-2.6171,-2.6913,-2.7771,-2.9741,0.0,0.0,-3.5593,-3.8818,-4.0683,-4.1913,0.0,0.0,0.0,0.0,0.0,0.0,0.0,0.0,0.0,0.0,0.0,0.0,0.0,0.0,0.0,0.0,0.0,0.0,0.0,0.0,0.0,0.0,0.0,0.0,0.0,0.0,0.0,-4.0907,-4.0907,-4.0907,-4.0907,0.0,-4.0907,-4.0577,-3.9975,-4.0616,-4.0907,-4.0907,-4.0907,-4.0907,-4.0907,-4.0907,-4.0907,-4.0907,-4.0907,-4.0907,-4.0907,-4.0907,-4.0907,-4.0907,0.0,0.0,0.0,0.0,0.0,0.0,0.0,0.0,0.0,0.0,0.0,0.0,0.0,0.0,0.0,0.0,0.0,0.0,0.0,0.0,-1.9996,-2.0,-2.0425,-2.0497,-2.0107,-2.0131,-2.035,-2.0766,-2.2105,-2.3006,-2.3494,-2.3901,-2.455,-2.535,-2.5456,-2.5952,-2.6676,-2.6187,-2.6255,-2.6641,-2.6136,-2.5758,-2.5503,-2.5535,-2.5565,-2.555,-2.5161,0.0,0.0,0.0,0.0,0.0,0.0,0.0,-2.5702,-2.5702,-2.6015,-2.6562,-2.7439,0.0,0.0,-3.4012,0.0,-3.8419,-4.0093,0.0,0.0,0.0,0.0,0.0,0.0,0.0,0.0,0.0,0.0,0.0,0.0,0.0,0.0,0.0,0.0,0.0,0.0,0.0,0.0,0.0,0.0,0.0,0.0,0.0,0.0,0.0,-3.947,-3.9703,-3.9703,-3.9703,-3.9703,-3.9703,-3.9703,-3.947,-3.9101,-3.9936,-4.0325,-4.0344,-4.0733,-4.0907,-4.0869,-4.048,-4.0558,-4.0869,-4.048,-4.081,-4.1471,-4.1043,-4.116,-4.1451,0.0,0.0,0.0,0.0,0.0,0.0,0.0,0.0,0.0,0.0,0.0,0.0,0.0,0.0,0.0,0.0,0.0,0.0,0.0,0.0,0.0,-2.0216,-2.0915,-2.0925,-2.0117,-2.0251,-2.0661,-2.1392,-2.2417,-2.293,-2.3016,-2.4058,-2.4894,-2.5543,-2.5805,-2.6359,-2.7118,-2.6901,-2.692,-2.7099,-2.6814,-2.6299,-2.5697,-2.5707,-2.5751,-2.5834,-2.5886,-2.5439,-2.4933,-2.5682,0.0,0.0,0.0,0.0,-2.57,-2.5702,-2.5703,-2.5898,-2.6755,0.0,-3.0776,-3.4786,-3.6423,0.0,-3.8997,0.0,0.0,0.0,0.0,0.0,0.0,0.0,0.0,0.0,0.0,0.0,0.0,0.0,0.0,0.0,0.0,0.0,0.0,0.0,0.0,0.0,0.0,0.0,0.0,0.0,-3.8609,-3.8609,-3.8624,-3.8697,-3.8833,-3.8833,-3.8833,-3.8833,-3.8542,-3.8318,-3.8194,-3.8911,-3.9334,-3.9509,-4.0189,-4.0461,-4.0422,-3.9742,-3.9956,-4.0635,-3.9951,-4.0645,-4.1902,-4.1165,-4.1368,-4.1883,0.0,0.0,0.0,0.0,0.0,0.0,0.0,0.0,0.0,0.0,-2.1278,0.0,0.0,0.0,0.0,0.0,0.0,0.0,0.0,0.0,0.0,-2.1124,-2.1236,-2.0915,-2.0122,-2.078,-2.1229,-2.1402,-2.2979,-2.3749,-2.3795,-2.5471,-2.6314,-2.6467,-2.7233,-2.8058,-2.8818,-2.7986,-2.8084,-2.8703,-2.7878,-2.7097,-2.6457,-2.6524,-2.6624,-2.6721,-2.6748,-2.6654,-2.6593,-2.676,-2.6242,0.0,0.0,0.0,-2.5701,-2.5703,-2.5703,-2.5898,0.0,0.0,-3.1321,0.0,-3.5525,-3.6409,0.0,0.0,0.0,0.0,0.0,0.0,0.0,0.0,0.0,0.0,0.0,0.0,0.0,0.0,0.0,0.0,0.0,0.0,0.0,0.0,0.0,0.0,0.0,0.0,0.0,-3.9529,-3.9529,-3.9529,-3.9527,-3.9858,-4.0558,-4.0577,-4.0577,-4.0558,-3.9086,-3.7996,-3.7277,-3.7386,-3.7858,-3.8581,-3.8697,-3.8736,-3.8736,-3.862,-3.9082,-3.9854,-3.9737,-4.0295,-4.1146,-4.0958,-4.1014,-4.1146,0.0,0.0,0.0,0.0,0.0,0.0,0.0,0.0,0.0,0.0,0.0,-2.1942,0.0,0.0,0.0,0.0,0.0,0.0,0.0,0.0,0.0,-2.2046,-2.1983,-2.1608,-2.078,-2.0675,-2.11,-2.2074,-2.284,-2.3941,-2.5331,-2.6647,-2.7015,-2.6584,-2.742,-2.827,-2.9057,-2.8644,-2.8696,-2.9015,-2.8594,-2.7712,-2.6711,-2.7184,-2.7179,-2.6957,-2.7407,-2.7274,-2.6915,-2.6988,-2.6413,-2.5703,-2.5697,0.0,0.0,0.0,-2.5703,-2.5898,-2.6757,-2.8533,-3.0518,0.0,-3.3905,-3.5489,0.0,0.0,0.0,0.0,0.0,0.0,0.0,0.0,0.0,0.0,0.0,0.0,0.0,0.0,0.0,0.0,0.0,0.0,0.0,0.0,0.0,0.0,0.0,0.0,-3.768,-3.8027,-3.8085,-3.7579,-3.7566,-3.7744,-3.8101,-3.8092,-3.8104,-3.8088,-3.7357,-3.6796,-3.6428,-3.6428,-3.6891,-3.7692,-3.8194,-3.8688,-3.9084,-3.8594,-3.8905,-3.9707,-3.9747,-4.0237,-4.0949,-4.0961,-4.1268,-4.1606,0.0,0.0,0.0,0.0,0.0,0.0,0.0,0.0,0.0,0.0,0.0,0.0,0.0,0.0,0.0,0.0,0.0,0.0,0.0,0.0,0.0,-2.2958,-2.2881,-2.2481,-2.1658,-2.1042,-2.1457,-2.2931,-2.2988,-2.4189,-2.6434,-2.7331,-2.7528,-2.7178,-2.7975,-2.8702,-2.9295,-2.9288,-2.9288,-2.9289,-2.9072,-2.8189,-2.7048,-2.7464,-2.7323,-2.7015,-2.7829,-2.7734,-2.724,-2.7296,-2.6744,-2.5994,-2.5774,-2.5699,0.0,0.0,0.0,0.0,0.0,0.0,-2.9408,-3.0004,-3.2112,-3.4202,0.0,0.0,0.0,0.0,0.0,0.0,0.0,0.0,0.0,0.0,0.0,0.0,0.0,0.0,0.0,0.0,0.0,0.0,0.0,0.0,0.0,0.0,0.0,0.0,-3.6036,-3.6523,-3.6562,-3.5916,-3.6116,-3.6228,-3.6231,-3.6428,-3.6419,-3.62,-3.6204,-3.6105,-3.5903,-3.5891,-3.6235,-3.6829,-3.7478,-3.8257,-3.9017,-3.8356,-3.8744,-3.9719,-3.9529,-4.0045,-4.0902,-4.0726,-4.1194,-4.1799,0.0,0.0,0.0,0.0,0.0,0.0,0.0,0.0,0.0,0.0,0.0,0.0,-2.2597,-2.2498,-2.2821,-2.3668,-2.2979,0.0,0.0,0.0,0.0,-2.3835,-2.383,0.0,-2.2543,-2.2486,-2.292,-2.3837,-2.3833,-2.4748,-2.6502,-2.7268,-2.8058,-2.8919,-2.9716,-3.0092,-3.0131,-3.0061,-3.0073,-3.0065,-2.9302,-2.8527,-2.7769,-2.7106,-2.6887,-2.7007,-2.7873,-2.8162,-2.8136,-2.8138,-2.7603,-2.6792,-2.5964,-2.5694,0.0,0.0,0.0,0.0,0.0,-2.7031,0.0,-2.841,0.0,0.0,0.0,0.0,0.0,0.0,0.0,0.0,0.0,0.0,0.0,0.0,0.0,0.0,0.0,0.0,0.0,0.0,0.0,0.0,0.0,0.0,0.0,0.0,0.0,0.0,-3.5999,-3.5942,-3.5942,-3.5899,-3.6692,-3.7127,-3.7125,-3.789,-3.786,-3.7042,-3.7042,-3.6639,-3.5895,-3.5897,-3.5917,-3.5955,-3.6013,-3.6513,-3.7331,-3.7272,-3.8265,-3.972,-3.8822,-3.9514,-4.09,-4.0062,-4.0322,-4.1055,0.0,0.0,0.0,0.0,0.0,0.0,0.0,0.0,0.0,0.0,0.0,0.0,0.0,-2.5701,-2.5834,-2.6146,-2.5379,0.0,0.0,0.0,0.0,-2.4588,-2.4118,-2.3698,-2.338,-2.2868,-2.3032,-2.391,-2.3898,-2.5061,-2.7294,-2.8109,-2.9251,-3.0584,-3.028,-3.013,-3.0135,-3.0106,-3.0407,-3.0788,-2.948,-2.8837,-2.8767,-2.9573,-2.8981,0.0,0.0,0.0,0.0,-2.9021,-2.847,-2.7626,-2.6745,0.0,0.0,0.0,0.0,0.0,0.0,0.0,0.0,-2.8295,-2.9836,0.0,0.0,0.0,0.0,0.0,0.0,0.0,0.0,0.0,0.0,0.0,0.0,0.0,0.0,0.0,0.0,0.0,0.0,0.0,0.0,0.0,0.0,0.0,0.0,0.0,-3.445,-3.5858,-3.5975,-3.4352,-3.5135,-3.5331,-3.4765,-3.5049,-3.5314,-3.5551,-3.5526,-3.5642,-3.5896,-3.5893,-3.5893,-3.5896,-3.5893,-3.6707,-3.8027,-3.8027,-3.873,-3.9765,-3.9433,-3.9309,-3.9304,-3.9024,-3.9449,-4.0091,0.0,0.0,0.0,0.0,0.0,0.0,0.0,0.0,0.0,-2.6564,0.0,0.0,0.0,0.0,-2.6626,-2.6629,-2.6077,-2.5506,-2.5002,-2.4952,-2.4946,-2.4973,-2.4721,-2.4499,-2.4245,-2.3692,-2.3704,-2.4294,-2.4022,-2.5323,-2.8103,-2.867,-2.9856,-3.1517,-3.1133,-3.0974,-3.0997,-3.1237,-3.1662,-3.1996,-3.0438,-3.0003,-3.0371,0.0,0.0,0.0,0.0,0.0,0.0,0.0,0.0,0.0,0.0,0.0,0.0,0.0,0.0,0.0,-2.5699,0.0,0.0,0.0,0.0,0.0,0.0,0.0,0.0,0.0,0.0,0.0,0.0,0.0,0.0,0.0,0.0,0.0,0.0,0.0,0.0,0.0,0.0,0.0,0.0,0.0,0.0,0.0,0.0,0.0,-3.2673,-3.441,-3.4858,-3.3449,-3.3682,-3.3695,-3.3404,-3.3395,-3.3695,-3.4267,-3.4218,-3.4638,-3.5457,-3.5454,-3.5612,-3.5906,-3.5902,-3.672,-3.8064,-3.8064,-3.8573,-3.9336,-3.9048,-3.8711,-3.8399,-3.8159,-3.858,-3.9256,0.0,0.0,0.0,0.0,0.0,0.0,0.0,0.0,-2.6515,-2.7294,0.0,0.0,0.0,0.0,0.0,-2.4948,-2.4869,-2.4855,-2.4884,-2.4842,-2.4837,-2.4895,0.0,0.0,-2.5114,-2.5057,-2.5057,-2.5101,-2.4309,-2.5609,-2.8854,-2.8862,-2.9839,-3.164,-3.2385,-3.2737,-3.2783,-3.3504,-3.3804,-3.3712,0.0,-3.2071,-3.2546,0.0,0.0,0.0,-3.1497,-3.1374,0.0,0.0,0.0,0.0,0.0,0.0,0.0,0.0,0.0,0.0,0.0,0.0,0.0,0.0,0.0,0.0,0.0,0.0,0.0,0.0,0.0,0.0,0.0,0.0,0.0,0.0,0.0,0.0,0.0,0.0,0.0,0.0,0.0,0.0,0.0,0.0,0.0,0.0,0.0,-3.2633,-3.0894,-3.1597,-3.2451,-3.3329,-3.2528,-3.2475,-3.332,-3.332,-3.3339,-3.3358,-3.3358,-3.3807,-3.4606,-3.4606,-3.5071,-3.5908,-3.5908,-3.6387,-3.7162,-3.7181,-3.7713,-3.8409,-3.7543,-3.7714,-3.8357,-3.7497,-3.7715,-3.8575,0.0,0.0,0.0,0.0,0.0,0.0,-2.7032,-2.7074,-2.7176,0.0,0.0,0.0,-2.7911,-2.7676,-2.7011,-2.5803,-2.5672,-2.5435,-2.4855,-2.4868,-2.4856,-2.4832,-2.52,-2.5265,-2.4959,-2.5595,-2.564,-2.5025,-2.6006,-2.6998,-2.7993,-2.9181,-3.0388,-3.1587,-3.2909,-3.3533,-3.3576,-3.3739,0.0,-3.4533,-3.3108,-3.2627,0.0,0.0,0.0,0.0,0.0,-3.2643,-3.2221,0.0,-3.1592,-3.2694,0.0,0.0,0.0,0.0,0.0,0.0,-2.5705,0.0,0.0,0.0,0.0,0.0,0.0,0.0,0.0,0.0,0.0,0.0,0.0,0.0,0.0,0.0,0.0,0.0,0.0,0.0,0.0,0.0,0.0,0.0,0.0,0.0,0.0,0.0,-3.3049,-3.263,-3.089,-3.1026,-3.157,-3.242,-3.1618,-3.128,-3.1522,-3.1522,-3.1836,-3.2462,-3.2462,-3.3203,-3.4606,-3.4606,-3.5071,-3.5908,-3.5908,-3.6047,-3.6306,-3.6949,-3.7709,-3.8419,-3.7539,-3.734,-3.7466,-3.664,-3.6872,-3.7565,0.0,0.0,0.0,0.0,0.0,-2.6464,-2.727,-2.7384,-2.7629,0.0,0.0,0.0,-2.8016,-2.7916,-2.7505,-2.6574,-2.648,-2.6263,-2.5828,-2.5525,-2.5344,-2.5291,-2.5452,-2.5305,-2.4863,-2.5747,-2.5965,-2.5451,-2.6444,-2.7485,-2.8615,-2.9604,-3.0719,-3.1974,-3.3236,-3.3845,-3.3971,-3.4958,0.0,0.0,-3.451,0.0,0.0,-3.3456,-3.2237,0.0,0.0,0.0,-3.2893,-3.1334,-3.1728,0.0,0.0,0.0,0.0,0.0,0.0,0.0,-2.5785,-2.6075,0.0,0.0,0.0,0.0,0.0,-2.8403,0.0,0.0,0.0,0.0,0.0,0.0,0.0,0.0,0.0,0.0,0.0,0.0,0.0,0.0,0.0,0.0,0.0,0.0,0.0,0.0,-3.2024,-3.1878,-3.084,-3.0801,-3.1035,-3.1544,-3.1055,-3.0801,-3.0801,-3.0801,-3.1055,-3.1563,-3.1563,-3.2265,-3.3573,-3.3924,-3.4567,-3.5382,-3.5733,-3.5908,-3.5947,-3.6454,-3.696,-3.7353,-3.6869,-3.6651,-3.6606,-3.6133,-3.6304,-3.6738,0.0,0.0,0.0,-2.493,-2.5073,-2.5718,-2.7274,-2.7547,-2.8079,0.0,-2.892,-2.8126,-2.7436,-2.7241,-2.7202,-2.7319,-2.7189,-2.7133,-2.7204,-2.6545,-2.614,-2.614,-2.6211,-2.5884,-2.5088,-2.6027,-2.6427,-2.6223,-2.6514,-2.7744,-2.9864,-3.0029,-3.0926,-3.2408,-3.3359,-3.3878,-3.4183,0.0,0.0,-3.7214,-3.6204,-3.5984,0.0,0.0,-3.3045,0.0,-3.282,-3.3002,-3.3004,-3.1646,-3.0972,0.0,0.0,0.0,0.0,0.0,-2.7601,0.0,-2.6052,-2.5837,-2.6006,0.0,0.0,0.0,-2.7114,-2.7814,0.0,0.0,0.0,0.0,0.0,0.0,0.0,0.0,0.0,0.0,0.0,0.0,0.0,0.0,0.0,0.0,0.0,0.0,-3.0548,-3.0645,-3.0743,-3.0801,-3.0801,-3.0801,-3.084,-3.0938,-3.0938,-3.0938,-3.0938,-3.0938,-3.0899,-3.0801,-3.0899,-3.1408,-3.2267,-3.3047,-3.3885,-3.4778,-3.546,-3.5811,-3.5908,-3.5908,-3.5908,-3.5908,-3.5908,-3.5892,-3.5898,-3.5898,-3.5934,-3.6087,0.0,0.0,0.0,-2.5689,-2.6795,-2.7806,-2.8149,-2.8832,-2.9178,-2.8794,-2.85,-2.8493,-2.897,-2.8502,-2.8126,-2.8081,-2.758,-2.7247,-2.7204,-2.7094,-2.7043,-2.7054,-2.7099,-2.705,-2.6828,-2.8348,-2.8466,-2.7064,-2.9122,-2.972,-2.8992,-3.0208,-3.1073,-3.1594,-3.3022,-3.4102,-3.4987,0.0,0.0,-3.6771,-3.7857,0.0,-3.5407,-3.449,-3.2932,-3.1231,-3.124,-3.2081,-3.3246,0.0,-3.2329,-3.0622,0.0,0.0,0.0,0.0,0.0,0.0,0.0,0.0,0.0,0.0,0.0,0.0,-2.7888,-2.8724,0.0,0.0,0.0,0.0,0.0,0.0,0.0,0.0,0.0,0.0,0.0,0.0,0.0,0.0,0.0,0.0,0.0,0.0,-2.9009,-2.9691,-3.0392,-3.0801,-3.0801,-3.0801,-3.1113,-3.1819,-3.1858,-3.1858,-3.1858,-3.1858,-3.1486,-3.0801,-3.1505,-3.2306,-3.3144,-3.332,-3.4216,-3.5616,-3.5071,-3.5246,-3.5908,-3.5908,-3.5908,-3.5908,-3.5908,-3.5894,-3.5902,-3.5902,-3.5906,-3.5946,0.0,0.0,0.0,-2.5914,-2.6679,-2.7337,-2.773,-2.8535,-2.9089,-2.9017,-2.8942,-2.9382,-3.0606,-3.0037,-2.972,-3.0159,-2.9927,-2.9737,-2.9691,-2.9375,-2.9202,-2.9206,-2.8816,-2.8571,-2.8556,-2.9408,-2.9416,-2.8544,-2.9823,-3.0012,-2.9231,-3.043,-3.1066,-3.1265,-3.2845,-3.4112,0.0,0.0,-3.7727,-3.809,-3.7463,0.0,-3.4094,-3.3013,-3.1851,-3.0801,-3.0801,-3.1323,-3.2195,-3.3397,-3.2641,0.0,0.0,-3.0907,-3.0315,0.0,-2.8767,-2.8599,0.0,0.0,0.0,-2.645,0.0,0.0,0.0,-2.7645,-2.8017,0.0,0.0,0.0,0.0,0.0,0.0,0.0,0.0,0.0,0.0,0.0,0.0,0.0,0.0,0.0,0.0,0.0,-2.8385,-2.8814,-2.9652,-3.0158,-3.0158,-3.0567,-3.0996,-3.1447,-3.1878,-3.1897,-3.1466,-3.1878,-3.1661,-3.0801,-3.1232,-3.168,-3.2129,-3.256,-3.3456,-3.4645,-3.4625,-3.509,-3.5908,-3.5908,-3.5908,-3.5908,-3.5908,-3.5908,-3.5908,-3.5908,-3.5902,-3.5897,-2.7533,0.0,0.0,0.0,-2.632,-2.6695,-2.7327,-2.8275,-2.9223,-3.0111,-3.0282,-3.0884,-3.2395,-3.1571,-3.1384,-3.2609,-3.2184,-3.2032,-3.2468,-3.1662,-3.113,-3.1142,-3.058,-3.0194,-3.0065,-3.0364,-3.0337,-2.9989,-3.0149,-3.0122,-2.9898,-3.0603,-3.1156,-3.1602,-3.2769,-3.4093,-3.5529,0.0,0.0,-3.8772,0.0,-3.5283,-3.4243,-3.2563,-3.1728,-3.1415,-3.0939,-3.0759,-3.0992,-3.2594,0.0,-3.2028,-3.2189,-3.2222,0.0,0.0,0.0,0.0,0.0,0.0,0.0,0.0,0.0,-2.6419,0.0,0.0,0.0,-2.8456,0.0,0.0,0.0,0.0,0.0,0.0,0.0,0.0,0.0,0.0,0.0,0.0,0.0,0.0,0.0,0.0,-2.8139,-2.7957,-2.8916,-2.95,-2.9496,-3.0178,-3.0704,-3.1035,-3.1897,-3.2014,-3.1308,-3.1995,-3.1917,-3.1055,-3.1055,-3.1055,-3.1074,-3.178,-3.2657,-3.3651,-3.4157,-3.4954,-3.5908,-3.5908,-3.5908,-3.5908,-3.5908,-3.5908,-3.5908,-3.5908,-3.5908,-3.5928,-2.5488,-2.6197,0.0,0.0,0.0,0.0,-2.8267,-2.9654,-3.1223,-3.2683,-3.3082,-3.3565,-3.4479,-3.2788,-3.248,-3.4736,0.0,0.0,-3.3486,0.0,-3.1287,-3.1279,-3.1691,-3.1656,-3.1048,-3.2392,-3.2295,-3.0685,-3.1466,-3.1408,-3.0596,-3.0699,-3.1584,-3.3132,-3.2711,0.0,0.0,0.0,-3.693,0.0,-3.7091,-3.8205,0.0,-3.6781,-3.509,-3.3604,-3.1405,-3.0579,-3.0776,0.0,-3.2811,-3.282,0.0,-3.3961,0.0,0.0,0.0,0.0,0.0,0.0,0.0,0.0,-2.7991,0.0,0.0,0.0,-2.9419,-3.0339,0.0,0.0,0.0,0.0,0.0,0.0,0.0,0.0,0.0,0.0,0.0,0.0,0.0,0.0,0.0,0.0,0.0,-2.7102,-2.8564,-2.9499,-2.9496,-2.9593,-3.0355,-3.1897,-3.2793,-3.3203,-3.3105,-3.3203,-3.2813,-3.1956,-3.1956,-3.1956,-3.1956,-3.2053,-3.2969,-3.443,-3.3807,-3.445,-3.5908,-3.5908,-3.5908,-3.5908,-3.5908,-3.5908,-3.5908,-3.5908,-3.5908,-3.6006,-2.7743,-2.7482,0.0,0.0,0.0,0.0,0.0,-3.08,-3.2577,-3.3777,-3.3627,-3.3721,0.0,0.0,0.0,0.0,0.0,-3.3666,0.0,0.0,-3.3883,-3.4737,0.0,0.0,0.0,-3.4496,-3.3958,-3.2248,-3.2625,-3.231,-3.1419,-3.195,-3.2647,-3.3459,-3.3202,0.0,-3.6084,0.0,-3.6672,0.0,0.0,0.0,0.0,-3.619,-3.3902,-3.2839,-3.2299,-3.1734,-3.1496,0.0,-3.3864,0.0,0.0,0.0,0.0,0.0,0.0,0.0,0.0,0.0,0.0,0.0,0.0,0.0,0.0,0.0,-2.8565,0.0,0.0,0.0,0.0,0.0,0.0,0.0,0.0,0.0,0.0,0.0,0.0,0.0,0.0,0.0,0.0,0.0,0.0,0.0,0.0,-2.7989,-2.7996,-2.895,-2.9847,-3.057,-3.2423,-3.2903,-3.1832,-3.3331,-3.3409,-3.2046,-3.2085,-3.2365,-3.2832,-3.2326,-3.3008,-3.4586,-3.4235,-3.4781,-3.5908,-3.5908,-3.5908,-3.5908,-3.5908,-3.5908,-3.5908,-3.5908,-3.622,-3.6707,-2.9653,0.0,0.0,0.0,0.0,0.0,0.0,0.0,0.0,0.0,0.0,0.0,-3.5484,-3.5486,0.0,0.0,-3.591,-3.6028,0.0,0.0,-3.5796,0.0,0.0,0.0,0.0,0.0,-3.4892,-3.3242,-3.3467,-3.3094,-3.221,-3.2672,-3.332,-3.409,0.0,-3.4265,-3.5446,0.0,0.0,-3.7528,-3.8257,-3.9019,-3.9367,-3.5607,-3.3367,-3.2283,-3.2908,-3.2653,-3.2259,-3.3775,-3.4684,0.0,-3.4741,0.0,0.0,0.0,0.0,0.0,-3.21,0.0,0.0,0.0,0.0,0.0,0.0,0.0,0.0,0.0,0.0,0.0,0.0,0.0,0.0,0.0,0.0,0.0,0.0,0.0,0.0,0.0,0.0,0.0,0.0,0.0,0.0,0.0,0.0,0.0,-2.6907,-2.8327,-2.9243,-2.9496,-3.1797,-3.2413,-3.1106,-3.3192,-3.364,-3.2372,-3.2199,-3.2423,-3.3008,-3.2131,-3.2677,-3.4274,-3.4274,-3.4895,-3.5908,-3.5908,-3.5908,-3.5928,-3.6162,-3.6259,-3.6259,-3.6259,-3.6805,-3.7584,-2.9661,-2.957,0.0,0.0,0.0,0.0,0.0,0.0,0.0,0.0,0.0,0.0,0.0,0.0,0.0,0.0,0.0,-3.7717,-3.9287,0.0,-3.59,0.0,0.0,-3.5215,0.0,0.0,0.0,0.0,-3.3895,-3.3822,-3.2946,-3.2202,-3.3212,-3.5579,-3.4137,-3.4462,-3.6084,-3.6343,-3.5633,-3.449,-3.6196,-3.6468,-3.5936,0.0,-3.5134,-3.2967,-3.2918,0.0,0.0,-3.4454,-3.4992,0.0,0.0,0.0,0.0,0.0,0.0,0.0,0.0,0.0,0.0,-3.1912,0.0,0.0,0.0,0.0,-3.0353,0.0,0.0,0.0,0.0,0.0,-2.7018,-2.7041,0.0,0.0,0.0,0.0,0.0,0.0,0.0,0.0,0.0,0.0,0.0,0.0,0.0,0.0,-2.6907,-2.7743,-2.8639,-2.9476,-3.1213,-3.2111,-3.2053,-3.2988,-3.3417,-3.3336,-3.2501,-3.2111,-3.2111,-3.1232,-3.1797,-3.3436,-3.3436,-3.4372,-3.5908,-3.5908,-3.5908,-3.5986,-3.6824,-3.7155,-3.7155,-3.7155,-3.7701,-3.8578,0.0,0.0,0.0,0.0,0.0,0.0,0.0,-3.6612,0.0,0.0,0.0,0.0,0.0,0.0,-4.0315,0.0,0.0,-3.9579,-4.0127,-3.9381,0.0,0.0,0.0,-3.7739,0.0,0.0,0.0,0.0,0.0,-3.3988,-3.3667,-3.4164,-3.5111,-3.6391,0.0,-3.5267,0.0,0.0,0.0,0.0,0.0,-3.7212,-3.7765,0.0,0.0,-3.3928,-3.4384,-3.4127,0.0,-3.4665,-3.5381,-3.5799,-3.5533,-3.5845,-3.6119,-3.5015,-3.4358,0.0,0.0,0.0,-3.3454,-3.2767,0.0,0.0,0.0,0.0,0.0,0.0,0.0,0.0,0.0,0.0,-2.614,-2.6133,-2.6399,-2.658,0.0,0.0,0.0,0.0,0.0,0.0,0.0,0.0,0.0,0.0,0.0,0.0,0.0,-2.7431,-2.8346,-2.8639,-3.0884,-3.1792,-3.1187,-3.3173,-3.3894,-3.3348,-3.3621,-3.406,-3.4586,-3.3707,-3.394,-3.5051,-3.5051,-3.5382,-3.5908,-3.5908,-3.5908,-3.5986,-3.6863,-3.753,-3.7923,-3.74,-3.8095,-3.9415,-2.9837,0.0,0.0,0.0,0.0,0.0,0.0,0.0,0.0,0.0,-4.008,0.0,-4.093,0.0,-4.2272,0.0,-4.1954,-4.1819,-4.1369,-4.0949,0.0,-3.8998,-3.9277,0.0,0.0,0.0,0.0,0.0,0.0,-3.4485,-3.4473,-3.525,-3.6174,-3.7211,0.0,-3.6311,-3.5565,0.0,-3.5213,0.0,0.0,-3.6941,0.0,0.0,-3.5831,-3.5798,0.0,-3.4905,-3.4399,-3.483,-3.5334,-3.5695,-3.5145,-3.5353,-3.5704,-3.5182,-3.4658,-3.43,-3.4485,-3.445,0.0,-3.3613,-3.3832,0.0,-3.3174,0.0,0.0,0.0,0.0,0.0,0.0,0.0,-2.6131,-2.613,-2.5898,-2.5696,0.0,-2.6172,0.0,0.0,0.0,0.0,0.0,0.0,0.0,-2.6954,-2.6449,0.0,0.0,0.0,-2.8191,-2.8191,-3.0433,-3.1342,-3.0737,-3.3017,-3.3894,-3.3348,-3.4186,-3.4895,-3.5402,-3.4534,-3.4612,-3.5441,-3.543,-3.5602,-3.5894,-3.5894,-3.5894,-3.5969,-3.6833,-3.7676,-3.8369,-3.816,-3.8944,-4.0209,0.0,0.0,0.0,0.0,-3.4391,0.0,0.0,0.0,-4.0105,0.0,-4.1116,-4.2248,-4.2624,-4.3627,-4.4295,-4.4376,-4.4607,0.0,-4.305,-4.236,0.0,0.0,-3.8246,-3.7405,-3.6618,0.0,0.0,0.0,0.0,0.0,-3.5359,-3.5462,-3.64,-3.7986,-3.8115,0.0,-3.6396,-3.6358,-3.5666,-3.4637,-3.5388,-3.5776,-3.5844,-3.5737,0.0,-3.8303,-3.6094,-3.5138,-3.4927,-3.4898,-3.4908,-3.4908,-3.4908,-3.4908,-3.4908,-3.4908,-3.4908,-3.4964,-3.5229,-3.5187,-3.4961,-3.4475,0.0,0.0,0.0,0.0,-3.2912,0.0,0.0,0.0,0.0,0.0,0.0,-2.6892,-2.6219,-2.5699,-2.5698,0.0,0.0,0.0,0.0,0.0,0.0,0.0,-2.8711,-2.6916,-2.692,-2.6545,0.0,0.0,-2.823,-2.8208,-2.9883,-3.0801,-3.0801,-3.2538,-3.3397,-3.3417,-3.4255,-3.4661,-3.4642,-3.3809,-3.389,-3.4659,-3.4666,-3.5139,-3.5898,-3.5898,-3.5898,-3.5972,-3.6825,-3.7728,-3.8611,-3.9451,-4.02,-4.0844,-3.1304,-3.245,-3.3615,0.0,-3.5409,-3.6758,0.0,0.0,0.0,0.0,-4.317,-4.3981,-4.485,-4.521,-4.5402,-4.5416,-4.5478,0.0,0.0,0.0,0.0,-4.0461,-4.0261,-3.9071,-3.6649,-3.5855,0.0,-3.5219,0.0,0.0,-3.5993,-3.68,-3.7428,-3.7877,0.0,0.0,-3.6291,-3.6915,-3.6496,-3.5417,-3.5614,-3.6697,0.0,0.0,-3.691,-3.8303,-3.6094,-3.527,-3.5163,-3.4963,-3.4908,-3.4908,-3.4908,-3.4908,-3.4908,-3.4908,-3.4908,-3.4945,-3.5115,-3.5054,-3.4971,-3.5096,-3.5065,-3.4985,0.0,0.0,0.0,0.0,0.0,0.0,0.0,0.0,0.0,-2.6922,-2.6195,-2.5697,0.0,0.0,0.0,0.0,0.0,0.0,0.0,0.0,-2.7583,-2.7734,-2.7191,-2.6437,0.0,0.0,0.0,-2.8157,-2.9869,-3.0801,-3.0801,-3.2538,-3.3397,-3.3417,-3.4878,-3.5577,-3.5558,-3.5331,-3.536,-3.5561,-3.5503,-3.5621,-3.5834,-3.5834,-3.5834,-3.5966,-3.7415,-3.8893,-4.0209,-4.0441,-4.0237,-3.9945,-3.3081,0.0,0.0,-3.6322,0.0,0.0,-3.87,0.0,0.0,-4.3331,-4.4086,0.0,-4.5533,-4.5737,-4.5807,-4.5807,-4.5807,0.0,0.0,0.0,0.0,-4.1781,-4.1212,-3.9824,-3.7346,-3.5968,0.0,-3.5623,0.0,0.0,-3.678,-3.7432,-3.7937,0.0,0.0,-3.897,0.0,-3.7646,-3.7245,-3.655,-3.5946,0.0,0.0,-3.6161,-3.6342,-3.7063,-3.5775,-3.5219,-3.5105,-3.4945,-3.4908,-3.4908,-3.4908,-3.4908,-3.4908,-3.4908,-3.4908,-3.4936,-3.5138,-3.5044,-3.4982,-3.5345,-3.5372,-3.5327,-3.5435,-3.5084,-3.4731,0.0,0.0,0.0,0.0,0.0,0.0,0.0,0.0,0.0,0.0,0.0,0.0,0.0,0.0,0.0,0.0,0.0,-2.7504,-2.8012,-2.7637,-2.7134,0.0,0.0,0.0,-2.8726,-3.0378,-3.1304,-3.1369,-3.3073,-3.391,-3.3943,-3.5274,-3.5911,-3.5908,-3.5872,-3.5853,-3.5853,-3.5786,-3.5765,-3.5765,-3.5765,-3.5765,-3.592,-3.7632,-3.8864,-3.976,-4.0516,-4.0496,-4.0142,0.0,0.0,0.0,0.0,0.0,0.0,0.0,-4.13,0.0,-4.3693,0.0,-4.5116,-4.5426,-4.5665,-4.5807,-4.5807,0.0,-4.5696,-4.5462,-4.5028,-4.4194,-4.2909,-4.161,-4.0062,-3.8232,-3.6253,0.0,0.0,0.0,0.0,-3.7658,-3.7717,0.0,0.0,0.0,0.0,0.0,-3.827,-3.7667,0.0,-3.6145,-3.5651,-3.5651,-3.5651,-3.5553,-3.5437,-3.5323,-3.5122,-3.4917,-3.4917,-3.4908,-3.4908,-3.4908,-3.4908,-3.4908,-3.4908,-3.4908,-3.4945,-3.5179,-3.507,-3.4973,-3.5348,-3.5355,-3.5308,-3.5386,-3.5395,-3.5357,-3.5352,-3.4688,-3.3823,0.0,0.0,0.0,0.0,0.0,0.0,0.0,0.0,0.0,0.0,0.0,0.0,0.0,0.0,-2.7877,-2.8151,-2.8235,0.0,0.0,0.0,0.0,-2.9289,-3.0967,0.0,-3.2235,0.0,-3.4646,-3.4773,-3.5522,-3.5895,-3.5872,-3.5826,-3.5786,-3.5782,-3.5708,-3.5664,-3.5659,-3.5649,-3.5727,-3.6013,-3.7651,-3.8322,-3.8566,-4.0191,-4.0797,-4.0797,0.0,0.0,0.0,0.0,0.0,-4.202,-4.2184,-4.2895,-4.4018,-4.5654,-4.563,-4.5541,-4.5703,-4.5766,-4.5807,-4.5807,-4.5807,0.0,0.0,0.0,0.0,-4.3269,-4.2196,-4.0544,-3.8251,-3.6757,-3.6321,0.0,0.0,0.0,-3.8487,-3.8502,0.0,0.0,0.0,0.0,-3.8731,-3.7969,0.0,-3.588,-3.5511,-3.5374,-3.5374,-3.5374,-3.5281,-3.5171,-3.5147,-3.5105,-3.5044,-3.4926,-3.4908,-3.4908,-3.4908,-3.4908,-3.4908,-3.4908,-3.4908,-3.4898,-3.4954,-3.4908,-3.4869,-3.5113,-3.5141,-3.5197,-3.543,-3.5314,-3.5154,-3.5138,-3.4883,-3.4216,-3.2735,0.0,0.0,0.0,0.0,0.0,0.0,0.0,0.0,0.0,0.0,0.0,0.0,0.0,0.0,0.0,0.0,0.0,0.0,0.0,0.0,0.0,0.0,0.0,0.0,0.0,-3.4917,-3.5678,-3.5772,-3.5826,-3.5826,-3.5741,-3.5718,-3.5713,-3.5593,-3.5534,-3.5527,-3.5411,-3.5854,-3.6717,-3.78,-3.8655,-3.9404,-4.0429,-4.0797,-4.0797,0.0,0.0,0.0,0.0,0.0,0.0,0.0,-4.5272,0.0,-4.5461,-4.5336,-4.5294,-4.5463,-4.5216,-4.5232,-4.5742,-4.5413,-4.5355,-4.5768,-4.5807,-4.5045,-4.3363,-4.2775,0.0,-3.8164,-3.6953,-3.6806,-3.7717,0.0,0.0,-3.9313,-3.9313,0.0,0.0,0.0,-4.0257,0.0,0.0,0.0,-3.6427,-3.563,-3.5308,-3.5308,-3.5308,-3.5211,-3.5105,-3.5105,-3.5053,-3.4982,-3.4917,-3.4908,-3.4908,-3.4908,-3.4908,-3.4898,-3.4869,-3.4849,-3.4859,-3.4841,-3.4771,-3.4739,-3.4908,-3.5025,-3.5119,-3.5136,-3.5127,-3.5066,-3.4971,-3.4481,-3.359,-3.2022,-3.0828,0.0,0.0,0.0,0.0,0.0,0.0,0.0,0.0,0.0,0.0,0.0,0.0,0.0,0.0,0.0,0.0,0.0,0.0,0.0,0.0,0.0,0.0,0.0,0.0,0.0,-3.585,-3.5782,-3.5741,-3.576,-3.5718,-3.5649,-3.5599,-3.5521,-3.5457,-3.5395,-3.5338,-3.5595,-3.6166,-3.7546,-3.8305,-3.881,-4.0256,-4.072,-4.0661,0.0,-4.0953,0.0,0.0,-4.4126,0.0,-4.7433,-4.6868,-4.5988,-4.5414,-4.5121,-4.5019,-4.5222,-4.4814,-4.4856,-4.5642,-4.4974,-4.4839,-4.565,-4.5541,-4.4769,-4.3274,-4.3092,-4.1516,-3.8299,-3.7248,-3.7147,0.0,0.0,0.0,0.0,0.0,0.0,0.0,0.0,0.0,0.0,0.0,-3.7183,-3.6815,-3.5681,-3.5211,-3.5211,-3.5211,-3.5147,-3.5062,-3.5062,-3.4991,-3.4908,-3.4908,-3.4908,-3.4908,-3.4908,-3.4898,-3.486,-3.4819,-3.4778,-3.4768,-3.4752,-3.4649,-3.4594,-3.4722,-3.487,-3.4963,-3.4822,-3.4898,-3.4954,-3.4793,-3.402,-3.2876,-3.1327,-3.0707,0.0,0.0,0.0,0.0,0.0,0.0,0.0,0.0,0.0,0.0,0.0,0.0,0.0,0.0,0.0,0.0,0.0,0.0,0.0,0.0,0.0,-3.3299,-3.3611,0.0,-3.5722,0.0,-3.5722,-3.5618,-3.5618,-3.5833,-3.5767,-3.5476,-3.5649,-3.5528,-3.5211,-3.5243,-3.5366,-3.5707,-3.7312,-3.8024,-3.8331,-4.0081,-4.0661,-4.06,0.0,0.0,0.0,0.0,0.0,0.0,0.0,-4.6131,-4.6493,-4.7315,-4.6123,-4.5227,-4.5371,-4.5333,-4.5333,-4.5428,-4.4642,-4.4516,-4.5371,-4.4708,-4.3864,-4.2972,-4.2814,-4.1562,-3.9054,-3.8007,-3.7462,0.0,0.0,0.0,0.0,0.0,0.0,0.0,0.0,0.0,0.0,-3.7387,-3.647,-3.528,-3.5049,-3.4926,-3.4926,-3.4926,-3.4926,-3.4927,-3.4927,-3.4898,-3.4908,-3.4908,-3.4908,-3.4908,-3.4908,-3.4869,-3.4809,-3.4798,-3.4708,-3.4623,-3.4615,-3.4528,-3.4461,-3.4583,-3.463,-3.4674,-3.4773,-3.4714,-3.4634,-3.4614,-3.3864,-3.2727,-3.1124,-3.1419,-3.1685,0.0,0.0,0.0,0.0,0.0,0.0,0.0,0.0,0.0,0.0,0.0,0.0,0.0,0.0,0.0,0.0,0.0,0.0,-2.9052,0.0,-3.4401,-3.5267,-3.5315,0.0,-3.6511,-3.5729,-3.5333,-3.5379,-3.6279,-3.6181,-3.5369,-3.6151,-3.5903,-3.4945,-3.507,-3.5579,-3.6408,-3.7423,-3.8366,-3.9264,-4.0191,-4.0628,-4.0765,0.0,0.0,0.0,0.0,0.0,0.0,0.0,-4.6436,-4.6335,-4.675,-4.5756,-4.5084,-4.5258,-4.482,-4.4736,-4.5362,-4.4595,-4.4461,-4.5343,-4.5065,-4.4298,-4.2955,-4.2775,-4.1532,-3.9039,-3.8518,-3.813,0.0,0.0,0.0,0.0,0.0,0.0,0.0,0.0,-3.8737,-3.8005,-3.7024,-3.5978,-3.4973,-3.4917,-3.4908,-3.4908,-3.4908,-3.4908,-3.4908,-3.4908,-3.4908,-3.4908,-3.4908,-3.4908,-3.4908,-3.4908,-3.4859,-3.4778,-3.4697,-3.4572,-3.4461,-3.4374,-3.4316,-3.4293,-3.434,-3.4476,-3.4575,-3.4458,-3.4513,-3.4545,-3.4401,-3.4067,-3.3313,-3.1696,-3.1755,-3.1773,0.0,0.0,0.0,0.0,0.0,0.0,0.0,0.0,0.0,0.0,0.0,0.0,0.0,0.0,0.0,0.0,0.0,0.0,-2.9735,0.0,-3.313,-3.452,-3.4582,-3.5012,-3.5808,-3.5465,-3.5557,-3.6029,-3.6427,-3.6638,-3.668,-3.6458,-3.6093,-3.5638,-3.5163,-3.5495,-3.6359,-3.7305,-3.8261,-3.9191,-4.015,-4.0559,-4.0647,-4.3909,0.0,-4.4744,0.0,-4.5851,-4.6127,-4.6916,-4.6354,-4.5824,-4.5824,-4.5274,-4.4943,-4.5103,-4.4551,-4.4473,-4.5192,-4.4476,-4.4343,-4.5203,-4.5031,-4.4247,-4.2814,-4.2656,0.0,-3.9251,-3.8866,-3.8615,-3.8433,-3.9544,0.0,0.0,0.0,0.0,0.0,-3.88,-3.8361,-3.7756,-3.6659,-3.5704,-3.4908,-3.4908,-3.4908,-3.4908,-3.4908,-3.4908,-3.4908,-3.4908,-3.4889,-3.487,-3.487,-3.484,-3.4821,-3.486,-3.481,-3.4708,-3.4572,-3.445,-3.4316,-3.4221,-3.4197,-3.4197,-3.4197,-3.434,-3.442,-3.4245,-3.434,-3.4364,-3.3929,-3.403,-3.3714,-3.2109,-3.1882,-3.1742,-3.1173,0.0,0.0,0.0,0.0,0.0,0.0,0.0,-2.7515,-2.646,0.0,0.0,0.0,0.0,0.0,0.0,0.0,0.0,0.0,0.0,0.0,0.0,-3.4319,-3.4614,-3.5179,-3.5447,-3.5867,-3.6413,-3.6661,-3.7208,-3.7927,-3.6967,-3.6415,-3.6168,-3.578,-3.5988,-3.6633,-3.7557,-3.8499,-3.9401,-4.0164,-4.0503,-4.0614,-4.3971,-4.4959,-4.5879,-4.6146,-4.6184,-4.6203,-4.6203,-4.5483,-4.4914,-4.4914,-4.4914,-4.4895,-4.4895,-4.4895,-4.4895,-4.4895,-4.4156,-4.4042,-4.4838,-4.4168,-4.3322,0.0,0.0,-4.1605,-3.9919,-3.9096,-3.8709,-3.8709,0.0,0.0,-3.8446,0.0,-3.975,-3.8458,-3.9236,-3.8324,-3.6234,-3.6206,-3.5704,-3.4908,-3.4908,-3.4908,-3.4908,-3.4908,-3.4908,-3.4908,-3.4908,-3.4859,-3.4798,-3.4798,-3.4708,-3.4634,-3.4758,-3.4697,-3.4591,-3.445,-3.4305,-3.4209,-3.4197,-3.4197,-3.4197,-3.4197,-3.4209,-3.4209,-3.4197,-3.4209,-3.3986,-3.3187,-3.364,-3.3714,-3.2109,-3.1794,-3.1838,-3.1958,0.0,0.0,0.0,0.0,0.0,0.0,-2.8165,-2.8059,-2.6455,0.0,0.0,0.0,0.0,0.0,0.0,0.0,0.0,-3.1463,-3.31,0.0,-3.5189,-3.4987,-3.4898,-3.4917,-3.5789,-3.6187,-3.6225,-3.7021,-3.7946,-3.8842,-3.7831,-3.6927,-3.6263,-3.7059,-3.7382,-3.7476,-3.8348,-3.9347,-4.0281,-4.0309,-4.0508,-4.079,-4.4467,-4.4855,-4.5218,-4.53,-4.5312,-4.5312,-4.5312,-4.5085,-4.4895,-4.4895,-4.4895,-4.4895,-4.4895,-4.4895,-4.4895,0.0,-4.4668,-4.463,0.0,-4.4668,-4.4156,-4.3322,-4.2716,-4.1889,-4.0809,-3.9938,-3.9248,-3.869,0.0,0.0,0.0,-3.9539,-3.9351,-3.8585,-3.8253,-3.7699,-3.6984,-3.6434,-3.5704,-3.4908,-3.4908,-3.4908,-3.4908,-3.4908,-3.4908,-3.4908,-3.4908,-3.4859,-3.4798,-3.4798,-3.4697,-3.4583,-3.4539,-3.4495,-3.4461,-3.4397,-3.4305,-3.4197,-3.4197,-3.4197,-3.4197,-3.4197,-3.4197,-3.4197,-3.4197,-3.4197,-3.4123,-3.3863,-3.4011,-3.403,-3.3528,-3.2537,-3.1805,-3.1868,-3.0758,0.0,0.0,0.0,0.0,0.0,0.0,-2.833,0.0,-2.8599,0.0,0.0,0.0,0.0,0.0,0.0,0.0,0.0,-3.2176,0.0,-3.4978,-3.4385,-3.4661,-3.578,-3.6074,-3.6794,-3.7931,-3.8736,-3.9288,-3.953,-3.8672,-3.814,-3.7874,-3.7552,-3.7761,-3.831,-3.8595,-3.9297,-4.0157,-4.0157,-4.0294,-4.045,-4.4619,-4.4719,-4.4833,-4.4883,-4.4895,-4.4895,-4.4895,-4.4895,-4.4895,-4.4895,-4.4895,-4.4895,-4.4895,-4.4895,0.0,-4.4895,-4.4895,-4.4895,-4.4895,-4.4895,-4.4383,-4.3265,-4.2685,-4.187,-4.0734,0.0,0.0,-3.9153,-3.9988,-4.0119,-3.9592,-3.9592,-3.9422,-3.9134,-3.8584,-3.7997,-3.7401,-3.7211,-3.6472,-3.5401,-3.5723,-3.5836,-3.5799,-3.5456,-3.5304,-3.5266,-3.4964,-3.478,-3.4655,-3.4716,-3.4612,-3.4495,-3.4743,-3.4801,-3.4745,-3.4409,-3.4269,-3.4271,-3.4599,-3.4439,-3.4271,-3.4606,-3.4439,-3.4197,-3.4197,-3.4197,-3.4197,-3.4197,-3.4197,-3.4197,-3.4197,-3.289,-3.1794,-3.1794,-3.0732,-2.9816,-2.9499,0.0,0.0,0.0,0.0,0.0,0.0,-2.8873,0.0,0.0,0.0,0.0,0.0,0.0,0.0,-3.2553,-3.2305,0.0,-3.4889,-3.4718,-3.5154,-3.6206,-3.6851,-3.7856,-3.9172,-3.9673,-3.973,-3.9437,-3.9248,-3.8793,-3.8216,-3.83,-3.8471,-3.8727,-3.902,-3.9542,-4.0101,-4.0101,-4.0176,-4.0309,-4.4473,-4.4605,0.0,0.0,-4.4883,0.0,-4.4895,-4.4895,-4.4895,-4.4895,-4.4895,-4.4895,-4.4895,-4.4895,-4.4895,-4.4895,0.0,0.0,0.0,-4.4895,-4.4175,-4.2552,-4.242,-4.1643,-4.0033,-3.9938,-3.99,-3.99,-3.99,-3.99,-3.99,-3.99,-3.99,-3.99,-3.9843,-3.8963,-3.7552,-3.8291,-3.7704,-3.6358,-3.7087,-3.738,-3.7294,-3.6415,-3.6071,-3.5977,-3.5212,-3.4792,-3.4596,-3.4727,-3.4596,-3.4513,-3.5343,-3.5584,-3.5417,-3.4531,-3.4327,-3.4531,-3.5231,-3.486,-3.4457,-3.5231,-3.4804,-3.4197,-3.4197,-3.4197,-3.4197,-3.4197,-3.4197,-3.4197,-3.4197,-3.2915,-3.1868,-3.1812,-3.1114,-3.0296,-2.9498,0.0,0.0,0.0,0.0,0.0,0.0,-2.9448,-2.9933,0.0,0.0,0.0,0.0,0.0,-3.2665,-3.2406,-3.3259,-3.4112,-3.4984,-3.578,-3.6301,-3.6491,-3.8045,-3.921,-3.9995,-3.9938,-3.9494,-3.8822,-3.9559,-3.901,-3.7694,-3.9256,-3.9456,-3.886,-3.9597,-3.9977,-4.0081,-4.0081,-4.0177,-4.0274,0.0,0.0,-4.4712,-4.4732,-4.4821,-4.4895,-4.4895,-4.4895,-4.4895,-4.4895,-4.4895,-4.4895,-4.4895,-4.4895,-4.4895,-4.4895,-4.4895,-4.4895,-4.4895,-4.4895,-4.4459,-4.3436,-4.2754,-4.1927,-4.0904,-4.0241,-3.99,-3.99,-3.99,-3.99,-3.99,-3.99,-3.99,-3.9862,-3.9267,-3.8765,-3.8367,-3.7893,-3.7476,-3.7125,-3.7203,-3.7254,-3.7206,-3.6897,-3.6765,-3.6727,-3.6558,-3.641,-3.631,-3.6346,-3.6249,-3.6142,-3.6352,-3.642,-3.6253,-3.5436,-3.564,-3.5869,-3.4791,-3.4829,-3.5083,-3.4606,-3.4346,-3.4197,-3.4197,-3.4197,-3.4197,-3.4197,-3.4197,-3.4197,-3.4197,-3.338,-3.2518,-3.1905,-3.0994,-3.0079,-2.9285,-2.9044,0.0,0.0,-2.9832,-2.9941,-3.0147,-3.0375,-3.0622,0.0,0.0,0.0,0.0,-3.3576,-3.3864,-3.2444,-3.3259,-3.4415,-3.5874,-3.6112,-3.7144,-3.9029,-3.9426,-4.0052,-4.0866,-4.0203,-3.9805,-3.9635,-3.9824,-3.9673,-3.9332,-3.9748,-3.9786,-3.9635,-3.9824,-3.9922,-3.9946,-3.9946,-3.9967,-3.9989,-4.4285,-4.443,-4.4537,-4.4592,-4.4725,-4.4802,-4.4738,-4.4757,-4.4802,-4.4738,-4.4757,-4.4815,-4.4815,-4.4858,-4.4895,-4.4895,-4.4895,-4.4895,-4.4895,-4.4895,-4.4364,-4.317,-4.2647,-4.1832,-4.062,-4.0146,-3.99,-3.99,-3.99,-3.99,-3.99,-3.99,-3.99,-3.9881,-3.9437,-3.9039,-3.869,-3.8584,-3.8306,-3.7942,-3.8206,-3.8301,-3.8195,-3.7689,-3.7491,-3.7454,-3.7086,-3.6882,-3.682,-3.6883,-3.682,-3.6773,-3.7145,-3.7257,-3.7164,-3.6736,-3.6662,-3.65,-3.5603,-3.5417,-3.5287,-3.442,-3.4197,-3.4197,-3.4197,-3.4197,-3.4197,-3.4197,-3.4197,-3.4197,-3.4197,-3.3172,-3.2167,-3.1723,-3.1181,-3.0374,-2.9152,-2.9545,0.0,-3.0286,-3.0298,-3.0538,-3.1153,-3.1254,-3.1378,-3.1591,0.0,0.0,-3.2524,-3.4478,-3.4802,-3.3051,-3.3809,-3.487,-3.6187,-3.6965,-3.8205,-3.99,-3.99,-4.0146,-4.0582,-4.0127,-3.9692,-3.938,-3.973,-3.9692,-3.938,-3.9748,-3.99,-3.99,-3.99,-3.99,-3.99,-3.99,-3.99,-3.99,-4.4207,-4.4285,-4.4344,-4.4458,-4.4578,-4.4632,-4.4528,-4.4592,-4.4632,-4.4496,-4.4592,-4.4685,-4.4699,-4.4796,-4.487,-4.4895,-4.4895,-4.4895,-4.4895,-4.4895,-4.4156,-4.2458,-4.2401,-4.1624,-3.9938,-3.99,-3.99,-3.99,-3.99,-3.99,-3.99,-3.9878,-3.9878,-3.9878,-3.9856,-3.9459,-3.8864,-3.9553,-3.9384,-3.8709,-3.9376,-3.9556,-3.9371,-3.8571,-3.8245,-3.8152,-3.748,-3.7161,-3.7084,-3.7187,-3.7149,-3.7169,-3.7856,-3.8079,-3.8079,-3.8079,-3.7596,-3.7015,-3.6773,-3.6105,-3.5287,-3.442,-3.4197,-3.4197,-3.4197,-3.4197,-3.4197,-3.4197,-3.4197,-3.4197,-3.4197,-3.2945,-3.19,-3.1851,-3.1574,-3.0845,-2.9301,0.0,-3.0937,-3.0478,-3.0545,-3.1015,-3.2068,-3.2151,-3.2278,-3.2599,-3.3265,-3.3506,0.0,-3.5182,-3.5723,-3.4301,-3.4927,-3.5704,-3.6566,-3.8121,-3.9286,-4.0089,-3.9957,-3.9976,-4.0089,-3.9957,-3.9532,-3.8917,-3.9597,-3.9513,-3.8936,-3.9616,-3.99,-3.99,-3.99,-3.99,-3.99,-3.99,-3.99,-3.99,-4.4036,-4.4177,-4.43,-4.4329,-4.4444,-4.451,-4.4501,-4.4528,-4.451,-4.4501,-4.4528,-4.4565,-4.4699,-4.4725,-4.4789,-4.4883,-4.4895,-4.4895,-4.4895,-4.4895,-4.4156,-4.2458,-4.2401,-4.1624,-3.9938,-3.99,-3.99,-3.99,-3.99,-3.99,-3.99,-3.9792,-3.9728,-3.9728,-3.9611,-3.9488,-3.9375,-3.9507,-3.9476,-3.9339,-3.9358,-3.935,-3.9305,-3.9048,-3.8938,-3.8938,-3.8808,-3.8757,-3.8729,-3.8757,-3.8725,-3.8748,-3.8859,-3.8915,-3.8915,-3.8915,-3.8822,-3.8432,-3.7071,-3.6105,-3.5287,-3.442,-3.4197,-3.4197,-3.4197,-3.4197,-3.4197,-3.4197,-3.4197,-3.4197,-3.4197,-3.3969,-3.3685,-3.3403,-3.2156,-3.1045,-3.049,0.0,-3.0053,-3.0958,-3.166,-3.254,-3.3709,-3.3236,-3.3462,-3.4939,-3.4674,-3.5017,-3.6384,-3.6942,-3.7097,-3.6822,-3.6946,-3.7438,-3.8291,-3.9248,-4.0146,-4.098,-4.0241,-4.0298,-4.0961,-4.0241,-3.9824,-3.9711,-3.9843,-3.9824,-3.9711,-3.9843,-3.99,-3.99,-3.99,-3.99,-3.99,-3.99,-3.99,-3.99,-4.4005,-4.4067,-4.4147,-4.4147,-4.4281,-4.4373,-4.4252,-4.4325,-4.434,-4.4233,-4.4344,-4.4416,-4.4482,-4.4551,-4.4646,-4.477,-4.4783,-4.4821,-4.4914,-4.4895,-4.4156,-4.2458,-4.2401,-4.1624,-3.9938,-3.9826,-3.9826,-3.99,-3.9758,-3.9717,-3.9792,-3.9658,-3.9599,-3.9599,-3.9539,-3.9514,-3.9514,-3.9514,-3.9464,-3.9389,-3.9324,-3.9259,-3.9197,-3.9129,-3.9101,-3.9101,-3.9101,-3.9101,-3.9101,-3.9101,-3.9101,-3.9101,-3.9101,-3.9101,-3.9101,-3.9101,-3.8785,-3.8284,-3.7541,-3.6773,-3.5956,-3.512,-3.4903,-3.4773,-3.4309,-3.4197,-3.4197,-3.4197,-3.4197,-3.4197,-3.4197,-3.3753,-3.3493,-3.38,-3.3058,0.0,0.0,-3.1448,-3.1715,-3.2402,-3.2812,-3.3688,-3.5379,-3.52,-3.5355,-3.6241,-3.6084,-3.6288,-3.7055,-3.7648,-3.7956,-3.789,-3.801,-3.8291,-3.869,-3.9513,-4.0108,-4.0487,-4.0089,-4.0108,-4.0487,-4.0089,-3.99,-3.99,-3.99,-3.9654,-3.9248,-3.9248,-3.9248,-3.9248,-3.9248,-3.9532,-3.99,-3.99,-3.99,-3.99,-4.4005,-4.4005,-4.4005,-4.4005,-4.4131,-4.4177,-4.402,-4.4131,-4.4177,-4.402,-4.4147,-4.4255,-4.43,-4.4387,-4.4515,-4.4646,-4.4659,-4.4712,-4.4833,-4.4821,-4.4178,-4.2761,-4.2325,-4.1404,-3.9886,-3.9751,-3.9747,-3.9804,-3.9599,-3.9544,-3.9658,-3.9526,-3.9446,-3.9446,-3.9427,-3.9414,-3.9414,-3.9414,-3.935,-3.9259,-3.9259,-3.9192,-3.9101,-3.9101,-3.9101,-3.9101,-3.9101,-3.9101,-3.9101,-3.9101,-3.9101,-3.9101,-3.9101,-3.9101,-3.9101,-3.9101,-3.8655,-3.8135,-3.7949,-3.7448,-3.6792,-3.5974,-3.564,-3.5324,-3.4643,-3.4494,-3.4494,-3.4494,-3.4643,-3.4773,-3.4773,-3.3994,-3.3603,-3.4386,0.0,0.0,0.0,-3.3204,-3.3676,-3.3945,-3.4137,-3.4968,-3.6809,-3.6798,-3.6905,-3.7386,-3.7367,-3.7389,-3.7527,-3.8296,-3.8665,-3.8521,-3.878,-3.8931,-3.8931,-3.9567,-3.9889,-3.9848,-3.9889,-3.9889,-3.9848,-3.9889,-3.99,-3.99,-3.99,-3.9551,-3.8955,-3.8784,-3.8803,-3.8955,-3.8765,-3.9191,-3.99,-3.99,-3.99,-3.99,-4.4005,-4.4005,-4.4005,-4.4005,-4.402,-4.402,-4.4005,-4.402,-4.402,-4.4005,-4.402,-4.4082,-4.4285,-4.43,-4.4373,-4.4496,-4.4496,-4.4565,-4.4712,-4.4592,-4.425,-4.3632,-4.2128,-4.0783,-3.9735,-3.9705,-3.9647,-3.9539,-3.9514,-3.9514,-3.9495,-3.9389,-3.9311,-3.9311,-3.9178,-3.9129,-3.9129,-3.9129,-3.9129,-3.9115,-3.9115,-3.9115,-3.9101,-3.9101,-3.9101,-3.9101,-3.9101,-3.9101,-3.9101,-3.9101,-3.9101,-3.9101,-3.9101,-3.9101,-3.9101,-3.9101,-3.9064,-3.8841,-3.8098,-3.7856,-3.7615,-3.6798,-3.6049,-3.5473,-3.5417,-3.5398,-3.5398,-3.5398,-3.6012,-3.6532,-3.6532,-3.585,-3.5469,-3.5964,0.0,0.0,-3.4371,-3.4564,-3.4782,-3.5054,-3.5731,-3.6625,-3.7713,-3.7132,-3.7331,-3.8836,-3.8369,-3.8352,-3.9087,-3.9321,-3.9346,-3.9139,-3.9438,-3.9622,-3.9622,-3.9807,-3.9826,-3.9717,-3.9837,-3.9826,-3.9717,-3.9837,-3.99,-3.99,-3.99,-3.9862,-3.9748,-3.9012,-3.9134,-3.973,-3.8993,-3.9191,-3.99,-3.99,-3.99,-3.99,-4.4005,-4.4005,-4.4005,-4.4005,-4.4005,-4.4005,-4.4005,-4.4005,-4.4005,-4.4005,-4.4005,-4.4036,-4.4116,-4.4097,-4.4192,-4.4358,-4.4373,-4.4426,-4.4565,-4.4528,-4.3955,-4.2699,-4.155,-4.0508,-3.9606,-3.9483,-3.9477,-3.9514,-3.9337,-3.9298,-3.9357,-3.9232,-3.9183,-3.9165,-3.9129,-3.9101,-3.9101,-3.9101,-3.9101,-3.9101,-3.9101,-3.9101,-3.9101,-3.9101,-3.9101,-3.9101,-3.9101,-3.9101,-3.9101,-3.9101,-3.9101,-3.9101,-3.9101,-3.9101,-3.9101,-3.9101,-3.9101,-3.9027,-3.8729,-3.8637,-3.8451,-3.7652,-3.7206,-3.6866,-3.6365,-3.6253,-3.6253,-3.6253,-3.6495,-3.6699,-3.6699,-3.6458,-3.6474,-3.7151,0.0,-3.6288,-3.6435,-3.6351,-3.6399,-3.6652,-3.6956,-3.7544,-3.8549,-3.8377,-3.8432,-3.9045,-3.8939,-3.8954,-3.916,-3.9115,-3.8956,-3.8722,-3.8905,-3.9141,-3.9383,-3.9563,-3.9623,-3.9587,-3.9705,-3.9739,-3.9705,-3.9837,-3.99,-3.99,-3.99,-3.9583,-3.9006,-3.8704,-3.8716,-3.8874,-3.8573,-3.8931,-3.9658,-3.9758,-3.9717,-3.9658,-4.4005,-4.4005,-4.4005,-4.4005,-4.4005,-4.4005,-4.4005,-4.4005,-4.4005,-4.4005,-4.4005,-4.4005,-4.4005,-4.4005,-4.4051,-4.4192,-4.4226,-4.4266,-4.443,-4.4444,-4.3722,-4.2068,-4.1473,-4.0634,-3.9471,-3.935,-3.9324,-3.9357,-3.9192,-3.9156,-3.9232,-3.9137,-3.9101,-3.9101,-3.9101,-3.9101,-3.9101,-3.9101,-3.9101,-3.9101,-3.9101,-3.9101,-3.9101,-3.9101,-3.9101,-3.9101,-3.9101,-3.9101,-3.9101,-3.9101,-3.9101,-3.9101,-3.9101,-3.9101,-3.9157,-3.9435,-3.9305,-3.9212,-3.9733,-3.9491,-3.8971,-3.8414,-3.8079,-3.7764,-3.7188,-3.7076,-3.7076,-3.7076,-3.7294,-3.7541,-3.7814,-3.7634,-3.7708,-3.8544,-3.834,-3.8057,-3.8057,-3.7923,-3.786,-3.8042,-3.8057,-3.8335,-3.9031,-3.9101,-3.9101,-3.9101,-3.9197,-3.9165,-3.9003,-3.8803,-3.8559,-3.8285,-3.8444,-3.8628,-3.8818,-3.9127,-3.9287,-3.9331,-3.9508,-3.9604,-3.9647,-3.9781,-3.9867,-3.9889,-3.9804,-3.9437,-3.8863,-3.8836,-3.8747,-3.8676,-3.8682,-3.9014,-3.9495,-3.9592,-3.9587,-3.9526,-4.4005,-4.4005,-4.4005,-4.4005,-4.4005,-4.4005,-4.4005,-4.4005,-4.4005,-4.4005,-4.4005,-4.4005,-4.4005,-4.4005,-4.4005,-4.4005,-4.4005,-4.4082,-4.4285,-4.43,-4.361,-4.2074,-4.2012,-4.1158,-3.9335,-3.9298,-3.9232,-3.9101,-3.9101,-3.9101,-3.9101,-3.9101,-3.9101,-3.9101,-3.9101,-3.9101,-3.9101,-3.9101,-3.9101,-3.9101,-3.9101,-3.9101,-3.9101,-3.9101,-3.9101,-3.9101,-3.9101,-3.9101,-3.9101,-3.9101,-3.9101,-3.9101,-3.9101,-3.9101,-3.9287,-4.0155,-3.9788,-3.9472,-4.1144,-4.0383,-3.912,-3.9101,-3.8507,-3.7912,-3.7912,-3.7912,-3.7931,-3.7912,-3.8562,-3.938,-4.0253,-3.9695,-3.9398,-4.0253,-3.9677,-3.912,-3.9101,-3.9101,-3.9101,-3.9101,-3.9101,-3.9101,-3.9101,-3.9101,-3.9101,-3.9101,-3.9101,-3.9003,-3.8822,-3.8544,-3.8269,-3.8001,-3.8252,-3.8287,-3.8019,-3.853,-3.8876,-3.9003,-3.9203,-3.9371,-3.9495,-3.9647,-3.9762,-3.9878,-3.9611,-3.9568,-3.9693,-3.9539,-3.9508,-3.9502,-3.9508,-3.9508,-3.9502,-3.9502,-3.9502,-3.9526,-4.4005,-4.4005,-4.4005,-4.4005,-4.4005,-4.4005,-4.4005,-4.4005,-4.4005,-4.4005,-4.4005,-4.4005,-4.4005,-4.4005,-4.4005,-4.4005,-4.4005,-4.402,-4.4101,-4.4082,-4.3632,-4.2611,-4.2015,-4.1199,-4.01,-3.9467,-3.9142,-3.9101,-3.9101,-3.9101,-3.9101,-3.9101,-3.9101,-3.9101,-3.9101,-3.9101,-3.9101,-3.9101,-3.9101,-3.9101,-3.9101,-3.9101,-3.9101,-3.9101,-3.9101,-3.9101,-3.9101,-3.9101,-3.9101,-3.9101,-3.9101,-3.9212,-3.9807,-4.0011,-4.016,-4.0996,-4.1051,-4.0958,-4.146,-4.1219,-4.0717,-4.0141,-3.9825,-3.9491,-3.8878,-3.964,-4.0327,-3.977,-4.029,-4.0878,-4.0938,-4.0911,-4.0677,-4.0129,-4.0489,-4.0438,-3.9268,-3.9621,-3.9788,-3.9175,-3.8979,-3.8931,-3.9087,-3.896,-3.895,-3.9087,-3.8979,-3.8788,-3.8525,-3.8799,-3.8579,-3.7739,-3.8349,-3.8654,-3.8563,-3.8523,-3.8691,-3.9003,-3.916,-3.9313,-3.9495,-3.9647,-3.967,-3.9611,-3.952,-3.9477,-3.9427,-3.9376,-3.9653,-4.0076,-3.9447,-3.9591,-4.0071,-3.9548,-3.9298,-3.9245,-4.386,-4.3942,-4.3974,-4.386,-4.3923,-4.4005,-4.4005,-4.4005,-4.4005,-4.4005,-4.3908,-4.3876,-4.3989,-4.391,-4.3876,-4.3989,-4.4005,-4.4005,-4.4005,-4.4005,-4.3782,-4.3299,-4.25,-4.1702,-4.0899,-4.0048,-3.9602,-3.9602,-3.9268,-3.9101,-3.9101,-3.9101,-3.9101,-3.9101,-3.9101,-3.9101,-3.9101,-3.9101,-3.9101,-3.9101,-3.9101,-3.9101,-3.9101,-3.9101,-3.9101,-3.9101,-3.9101,-3.9101,-3.9157,-3.9491,-3.9825,-4.0178,-4.0698,-4.0866,-4.1033,-4.1832,-4.185,-4.1739,-4.237,-4.2073,-4.1553,-4.1386,-4.1107,-4.0736,-4.0197,-4.0793,-4.1307,-4.0826,-4.1012,-4.1293,-4.1444,-4.1597,-4.1606,-4.126,-4.1487,-4.1248,-3.9973,-3.9921,-3.9752,-3.8922,-3.897,-3.9173,-3.9427,-3.9637,-3.9792,-3.9908,-3.9712,-3.9461,-3.9181,-3.9355,-3.9173,-3.8522,-3.8986,-3.9235,-3.9235,-3.9067,-3.9032,-3.9124,-3.9371,-3.9444,-3.935,-3.9539,-3.9587,-3.9483,-3.9401,-3.9324,-3.9317,-3.9618,-3.9798,-3.9863,-3.9677,-3.9733,-3.9821,-3.9397,-3.9183,-3.9142,-4.3664,-4.3812,-4.3926,-4.3647,-4.3828,-4.4005,-4.4005,-4.3989,-4.3955,-4.3955,-4.373,-4.3664,-4.3892,-4.373,-4.3697,-4.3939,-4.3989,-4.4005,-4.4005,-4.4005,-4.4005,-4.4005,-4.3299,-4.2556,-4.1832,-4.0958,-4.0494,-4.0494,-3.9714,-3.9324,-3.9324,-3.9324,-3.9324,-3.9324,-3.925,-3.9212,-3.9212,-3.912,-3.9101,-3.9101,-3.9101,-3.9101,-3.9101,-3.9101,-3.9101,-3.9101,-3.9101,-3.9157,-3.9342,-4.0215,-4.0977,-4.1609,-4.1683,-4.1702,-4.1869,-4.2667,-4.2389,-4.2129,-4.3596,-4.2927,-4.198,-4.2723,-4.2352,-4.1776,-4.1627,-4.1502,-4.1388,-4.1314,-4.1104,-4.1157,-4.1849,-4.1994,-4.2249,-4.2923,-4.2413,-4.1647,-4.0916,-4.0116,-3.9369,-3.8741,-3.9221,-3.976,-4.0065,-4.0746,-4.1172,-4.1204,-4.0924,-4.0616,-4.0329,-4.0121,-3.9966,-3.9895,-3.9966,-4.0002,-4.0002,-4.0002,-3.9801,-3.9405,-3.9781,-3.9667,-3.9166,-3.9405,-3.9483,-3.9383,-3.9137,-3.911,-3.9301,-3.9984,-3.9886,-3.9398,-4.0118,-3.9955,-3.9324,-3.9324,-3.9231,-3.9147,-4.3664,-4.3812,-4.3926,-4.3647,-4.3828,-4.4005,-4.4005,-4.3828,-4.3697,-4.3697,-4.3443,-4.3304,-4.3375,-4.3512,-4.3612,-4.3681,-4.3876,-4.4005,-4.4005,-4.4005,-4.4005,-4.4005,-4.3838,-4.3652,-4.3485,-4.2073,-4.133,-4.133,-4.1144,-4.1051,-4.1051,-4.1051,-4.1051,-4.1033,-4.0401,-4.0118,-4.0067,-3.938,-3.9101,-3.9101,-3.9101,-3.9101,-3.9101,-3.9101,-3.9101,-3.9101,-3.9101,-3.9528,-4.0248,-4.1051,-4.146,-4.1702,-4.2333,-4.2537,-4.2705,-4.3503,-4.3615,-4.3559,-4.3912,-4.3745,-4.3522,-4.3708,-4.3615,-4.315,-4.1887,-4.2371,-4.2897,-4.2271,-4.2421,-4.2632,-4.2537,-4.2741,-4.2687,-4.1976,-4.1887,-4.163,-4.0846,-4.0556,-4.0477,-4.0577,-4.0559,-4.0633,-4.0912,-4.0864,-4.0906,-4.1188,-4.072,-4.0384,-4.0293,-4.0641,-4.0556,-3.9912,-4.0521,-4.0842,-4.0842,-4.0842,-4.0646,-4.0236,-4.0322,-4.0088,-3.9574,-3.9636,-3.9289,-3.8646,-3.8569,-3.8695,-3.8925,-3.908,-3.9904,-4.1014,-4.0568,-4.0661,-4.1051,-4.1051,-4.0234,-3.931,-4.3461,-4.3512,-4.3529,-4.3213,-4.3528,-4.3763,-4.3631,-4.3614,-4.3545,-4.3426,-4.3142,-4.3013,-4.3178,-4.3178,-4.3303,-4.3562,-4.373,-4.386,-4.3989,-4.4005,-4.4005,-4.4005,-4.4005,-4.4005,-4.4005,-4.3188,-4.2556,-4.2166,-4.1776,-4.159,-4.159,-4.159,-4.159,-4.1571,-4.1144,-4.0754,-4.0378,-3.99,-3.9472,-3.9101,-3.9101,-3.9342,-3.9714,-3.9714,-3.9955,-4.029,-4.029,-4.0828,-4.1609,-4.2017,-4.2426,-4.2816,-4.3243,-4.3373,-4.3466,-4.3875,-4.4005,-4.4005,-4.4005,-4.4005,-4.4005,-4.4005,-4.4005,-4.3782,-4.2946,-4.3185,-4.3485,-4.3061,-4.2975,-4.292,-4.2731,-4.2749,-4.2582,-4.1975,-4.2002,-4.1809,-4.0997,-4.0888,-4.0799,-4.0599,-4.0782,-4.1216,-4.1848,-4.1902,-4.1902,-4.1902,-4.1615,-4.1391,-4.1256,-4.1511,-4.1484,-4.1056,-4.1448,-4.1663,-4.1663,-4.1663,-4.157,-4.1354,-4.1162,-4.0724,-4.0098,-4.0211,-3.9975,-3.9478,-3.9095,-3.9077,-3.9307,-3.8939,-3.9438,-4.0364,-3.9937,-3.9973,-4.0296,-4.0666,-4.0409,-4.0078,-4.3178,-4.316,-4.3105,-4.2769,-4.3178,-4.3461,-4.3232,-4.3339,-4.3355,-4.3124,-4.2844,-4.2749,-4.3013,-4.2844,-4.294,-4.3545,-4.3563,-4.3646,-4.3989,-4.3958,-4.3939,-4.4005,-4.4005,-4.4005,-4.4005,-4.4005,-4.367,-4.3002,-4.2333,-4.1999,-4.1999,-4.1999,-4.1999,-4.1999,-4.1869,-4.1423,-4.0806,-4.0661,-4.0178,-3.9528,-3.9528,-3.9955,-4.062,-4.062,-4.1014,-4.159,-4.159,-4.211,-4.2816,-4.2965,-4.3448,-4.4005,-4.4005,-4.4005,-4.4005,-4.4005,-4.4005,-4.4005,-4.4005,-4.4005,-4.4005,-4.4005,-4.4005,-4.3989,-4.3939,-4.373,-4.3529,-4.3529,-4.3051,-4.2634,-4.2634,-4.2452,-4.2308,-4.2308,-4.2308,-4.2076,-4.1395,-4.1306,-4.1076,-4.0437,-4.0974,-4.1758,-4.2754,-4.3013,-4.3013,-4.2807,-4.2731,-4.2575,-4.2308,-4.2308,-4.2308,-4.2308,-4.2308,-4.2308,-4.2308,-4.2308,-4.2308,-4.2308,-4.1968,-4.1378,-4.0601,-4.0831,-4.0811,-4.0526,-3.9854,-3.966,-3.9738,-3.916,-3.9017,-3.9192,-3.9235,-3.912,-3.9022,-3.9617,-4.0301,-4.1027,-4.2883,-4.2995,-4.3105,-4.2769,-4.3013,-4.3232,-4.3214,-4.2976,-4.2826,-4.2769,-4.2514,-4.2371,-4.243,-4.2593,-4.294,-4.3545,-4.3392,-4.3479,-4.3974,-4.3779,-4.3763,-4.3989,-4.4005,-4.4005,-4.4005,-4.4005,-4.3949,-4.3838,-4.3726,-4.367,-4.367,-4.367,-4.367,-4.3652,-4.2946,-4.2575,-4.2426,-4.172,-4.1367,-4.1256,-4.1256,-4.133,-4.1441,-4.1441,-4.1497,-4.159,-4.159,-4.211,-4.2909,-4.3596,-4.3912,-4.4005,-4.4005,-4.4005,-4.4005,-4.4005,-4.4005,-4.4005,-4.4005,-4.4005,-4.4005,-4.4005,-4.4005,-4.3942,-4.3714,-4.3443,-4.325,-4.325,-4.2768,-4.2351,-4.2351,-4.2328,-4.2308,-4.2308,-4.2308,-4.2272,-4.2144,-4.2147,-4.2174,-4.2308,-4.2419,-4.2756,-4.3407,-4.305,-4.2882,-4.3123,-4.2864,-4.2575,-4.2308,-4.2308,-4.2308,-4.2308,-4.2308,-4.2308,-4.2308,-4.2308,-4.2308,-4.2308,-4.2244,-4.1799,-4.101,-4.1069,-4.0675,-3.9992,-3.9885,-3.9642,-3.9298,-3.9357,-3.9469,-3.955,-3.9789,-3.9727,-3.9504,-3.9546,-4.0481,-4.1775,-4.2751,-4.2691,-4.265,-4.2494,-4.2729,-4.2863,-4.2728,-4.271,-4.2653,-4.2494,-4.2371,-4.2308,-4.2308,-4.2412,-4.2634,-4.3051,-4.2995,-4.316,-4.3747,-4.3529,-4.3563,-4.3989,-4.386,-4.3844,-4.4005,-4.4005,-4.4005,-4.4005,-4.4005,-4.4005,-4.4005,-4.4005,-4.4005,-4.3986,-4.3633,-4.3225,-4.2779,-4.2407,-4.1999,-4.159,-4.159,-4.1869,-4.2259,-4.2259,-4.2556,-4.2912,-4.2773,-4.3042,-4.3506,-4.3717,-4.3876,-4.4005,-4.4005,-4.4005,-4.4005,-4.4005,-4.4005,-4.4005,-4.4005,-4.4005,-4.4005,-4.4005,-4.3876,-4.3747,-4.3631,-4.3249,-4.2976,-4.316,-4.2749,-4.2394,-4.2514,-4.2272,-4.2124,-4.2287,-4.2308,-4.2246,-4.2103,-4.2082,-4.2124,-4.2234,-4.2394,-4.2573,-4.2845,-4.2614,-4.2552,-4.2689,-4.2571,-4.2432,-4.2308,-4.2308,-4.2308,-4.2308,-4.2308,-4.2308,-4.2308,-4.2308,-4.2308,-4.2308,-4.2308,-4.2111,-4.177,-4.177,-4.1573,-4.1217,-4.077,-4.0282,-3.9788,-3.9479,-3.9162,-3.8944,-3.9056,-3.9475,-3.9966,-3.9788,-4.0742,-4.2077]},{"header":{"parameterUnit":"m.s-1","parameterCategory":1,"la1":30.6,"la2":28.766,"lo1":-90.7593,"lo2":-88.6598,"dy":0.0162,"dx":0.0183,"nx":116,"ny":114,"refTime":"2023-05-07T12:00:00:Z","depth":0,"parameterNumber":3,"parameterNumberName":"V-component_of_WINDS"},"data":[0.0,0.0,0.0,0.0,0.0,0.0,0.0,0.0,0.0,0.0,0.0,0.0,0.0,0.0,0.0,0.0,0.0,0.0,0.0,0.0,0.0,0.0,0.0,0.0,0.0,0.0,0.0,0.0,0.0,0.0,0.0,0.0,0.0,0.0,0.0,0.0,0.0,0.0,0.0,0.0,0.0,0.0,0.0,0.0,0.0,0.0,0.0,0.0,0.0,0.0,0.0,0.0,0.0,0.0,0.0,0.0,0.0,0.0,0.0,0.0,0.0,0.0,0.0,0.0,0.0,0.0,0.0,0.0,0.0,0.0,0.0,0.0,0.0,0.0,0.0,0.0,0.0,0.0,0.0,0.0,0.0,0.0,0.0,0.0,0.0,0.0,0.0,0.0,0.0,0.0,0.0,0.0,0.0,0.0,0.0,0.0,0.0,0.0,0.0,0.0,0.0,0.0,0.0,0.0,0.0,0.0,0.0,0.0,0.0,0.0,0.0,0.0,0.0,0.0,0.0,0.0,0.0,0.0,0.0,0.0,0.0,0.0,0.0,0.0,0.0,0.0,0.0,0.0,0.0,0.0,0.0,0.0,0.0,0.0,0.0,0.0,0.0,0.0,0.0,0.0,0.0,0.0,0.0,0.0,0.0,0.0,0.0,0.0,0.0,0.0,0.0,0.0,0.0,0.0,0.0,0.0,0.0,0.0,0.0,0.0,0.0,0.0,0.0,0.0,0.0,0.0,0.0,0.0,0.0,0.0,0.0,0.0,0.0,0.0,0.0,0.0,0.0,0.0,0.0,0.0,0.0,0.0,0.0,0.0,0.0,0.0,0.0,0.0,0.0,0.0,0.0,0.0,0.0,0.0,0.0,0.0,0.0,0.0,0.0,0.0,0.0,0.0,0.0,0.0,0.0,0.0,0.0,0.0,0.0,0.0,0.0,0.0,0.0,0.0,0.0,0.0,0.0,0.0,0.0,0.0,0.0,0.0,0.0,0.0,0.0,0.0,0.0,0.0,0.0,0.0,0.0,0.0,0.0,0.0,0.0,0.0,0.0,0.0,0.0,0.0,0.0,0.0,0.0,0.0,0.0,0.0,0.0,0.0,0.0,0.0,0.0,0.0,0.0,0.0,0.0,0.0,0.0,0.0,0.0,0.0,0.0,0.0,0.0,0.0,0.0,0.0,0.0,0.0,0.0,0.0,0.0,0.0,0.0,0.0,0.0,0.0,0.0,0.0,0.0,0.0,0.0,0.0,0.0,0.0,0.0,0.0,0.0,0.0,0.0,0.0,0.0,0.0,0.0,0.0,0.0,0.0,0.0,0.0,0.0,0.0,0.0,0.0,0.0,0.0,0.0,0.0,0.0,0.0,0.0,0.0,0.0,0.0,0.0,0.0,0.0,0.0,0.0,0.0,0.0,0.0,0.0,0.0,0.0,0.0,0.0,0.0,0.0,0.0,0.0,0.0,0.0,0.0,0.0,0.0,0.0,0.0,0.0,0.0,0.0,0.0,0.0,0.0,0.0,0.0,0.0,0.0,0.0,0.0,0.0,0.0,0.0,0.0,0.0,0.0,0.0,0.0,0.0,0.0,0.0,0.0,0.0,0.0,0.0,0.0,0.0,0.0,0.0,0.0,0.0,0.0,0.0,0.0,0.0,0.0,0.0,0.0,0.0,0.0,0.0,0.0,0.0,0.0,0.0,0.0,0.0,0.0,0.0,0.0,0.0,0.0,0.0,0.0,0.0,0.0,0.0,0.0,0.0,0.0,0.0,0.0,0.0,0.0,0.0,0.0,0.0,0.0,0.0,0.0,0.0,0.0,0.0,0.0,0.0,0.0,0.0,0.0,0.0,0.0,0.0,0.0,0.0,0.0,0.0,0.0,0.0,0.0,0.0,0.0,0.0,0.0,0.0,0.0,0.0,0.0,0.0,0.0,0.0,0.0,0.0,0.0,0.0,0.0,0.0,0.0,0.0,0.0,0.0,0.0,0.0,0.0,0.0,0.0,0.0,0.0,0.0,0.0,0.0,0.0,0.0,0.0,0.0,0.0,0.0,0.0,0.0,0.0,0.0,0.0,0.0,0.0,0.0,0.0,0.0,0.0,0.0,0.0,0.0,0.0,0.0,0.0,0.0,0.0,0.0,0.0,0.0,0.0,0.0,0.0,0.0,0.0,0.0,0.0,0.0,0.0,0.0,0.0,0.0,0.0,0.0,0.0,0.0,0.0,0.0,0.0,0.0,0.0,0.0,0.0,0.0,0.0,0.0,0.0,0.0,0.0,0.0,0.0,0.0,0.0,0.0,0.0,0.0,0.0,0.0,0.0,0.0,0.0,0.0,0.0,0.0,0.0,0.0,0.0,0.0,0.0,0.0,0.0,0.0,0.0,0.0,0.0,0.0,0.0,0.0,0.0,0.0,0.0,0.0,0.0,0.0,0.0,0.0,0.0,0.0,0.0,0.0,0.0,0.0,0.0,0.0,0.0,0.0,0.0,0.0,0.0,0.0,0.0,0.0,0.0,0.0,0.0,0.0,0.0,0.0,0.0,0.0,0.0,0.0,0.0,0.0,0.0,0.0,0.0,0.0,0.0,0.0,0.0,0.0,0.0,0.0,0.0,0.0,0.0,0.0,0.0,0.0,0.0,0.0,0.0,0.0,0.0,0.0,0.0,0.0,0.0,0.0,0.0,0.0,0.0,0.0,0.0,0.0,0.0,0.0,0.0,0.0,0.0,0.0,0.0,0.0,0.0,0.0,0.0,0.0,0.0,0.0,0.0,0.0,0.0,0.0,0.0,0.0,0.0,0.0,0.0,0.0,0.0,0.0,0.0,0.0,0.0,0.0,0.0,0.0,0.0,0.0,0.0,0.0,0.0,0.0,0.0,0.0,0.0,0.0,0.0,0.0,0.0,0.0,0.0,0.0,0.0,0.0,0.0,0.0,0.0,0.0,0.0,0.0,0.0,0.0,0.0,0.0,0.0,0.0,0.0,0.0,0.0,0.0,0.0,0.0,0.0,0.0,0.0,0.0,0.0,0.0,0.0,0.0,0.0,0.0,0.0,0.0,0.0,0.0,0.0,0.0,0.0,0.0,0.0,0.0,0.0,0.0,0.0,0.0,0.0,0.0,0.0,0.0,0.0,0.0,0.0,0.0,0.0,0.0,0.0,0.0,0.0,0.0,0.0,0.0,0.0,0.0,0.0,0.0,0.0,0.0,0.0,0.0,0.0,0.0,0.0,0.0,0.0,0.0,0.0,0.0,0.0,0.0,0.0,0.0,0.0,0.0,0.0,0.0,0.0,0.0,0.0,0.0,0.0,0.0,0.0,0.0,0.0,0.0,0.0,0.0,0.0,0.0,0.0,0.0,0.0,0.0,0.0,0.0,0.0,0.0,0.0,0.0,0.0,0.0,0.0,0.0,0.0,0.0,0.0,0.0,0.0,0.0,0.0,0.0,0.0,0.0,0.0,0.0,0.0,0.0,0.0,0.0,0.0,0.0,0.0,0.0,0.0,0.0,0.0,0.0,0.0,0.0,0.0,0.0,0.0,0.0,0.0,0.0,0.0,0.0,0.0,0.0,0.0,0.0,0.0,0.0,0.0,0.0,0.0,0.0,0.0,0.0,0.0,0.0,0.0,0.0,0.0,0.0,0.0,0.0,0.0,0.0,0.0,0.0,0.0,0.0,0.0,0.0,0.0,0.0,0.0,0.0,0.0,0.0,0.0,0.0,0.0,0.0,0.0,0.0,0.0,0.0,0.0,0.0,0.0,0.0,0.0,0.0,0.0,0.0,0.0,0.0,0.0,0.0,0.0,0.0,0.0,0.0,0.0,0.0,0.0,0.0,0.0,0.0,0.0,0.0,0.0,0.0,0.0,0.0,0.0,0.0,0.0,0.0,0.0,0.0,0.0,0.0,0.0,0.0,0.0,0.0,0.0,0.0,0.0,0.0,0.0,0.0,0.0,0.0,0.0,0.0,0.0,0.0,0.0,0.0,0.0,0.0,0.0,0.0,0.0,0.0,0.0,0.0,0.0,0.0,0.0,0.0,0.0,0.0,0.0,0.0,0.0,0.0,0.0,0.0,0.0,0.0,0.0,0.0,0.0,0.0,0.0,0.0,0.0,0.0,0.0,0.0,0.0,0.0,0.0,0.0,0.0,0.0,0.0,0.0,0.0,0.0,0.0,0.0,0.0,0.0,0.0,0.0,0.0,0.0,0.0,0.0,0.0,0.0,0.0,0.0,0.0,0.0,0.0,0.0,0.0,0.0,0.0,0.0,0.0,0.0,0.0,0.0,0.0,0.0,0.0,0.0,0.0,0.0,0.0,0.0,0.0,0.0,0.0,0.0,0.0,0.0,0.0,0.0,0.0,0.0,0.0,0.0,0.0,0.0,0.0,0.0,0.0,0.0,0.0,0.0,0.0,0.0,0.0,0.0,0.0,0.0,0.0,0.0,0.0,0.0,0.0,0.0,0.0,0.0,0.0,0.0,0.0,0.0,0.0,0.0,0.0,0.0,0.0,0.0,0.0,0.0,0.0,0.0,0.0,0.0,0.0,0.0,0.0,0.0,0.0,0.0,0.0,0.0,0.0,0.0,0.0,0.0,0.0,0.0,0.0,0.0,0.0,0.0,0.0,0.0,0.0,0.0,0.0,0.0,0.0,0.0,0.0,0.0,0.0,0.0,0.0,0.0,0.0,0.0,0.0,0.0,0.0,0.0,0.0,0.0,0.0,0.0,0.0,0.0,0.0,0.0,0.0,0.0,0.0,0.0,0.0,0.0,0.0,0.0,0.0,0.0,0.0,0.0,0.0,0.0,0.0,0.0,0.0,0.0,0.0,0.0,0.0,0.0,0.0,0.0,0.0,0.0,0.0,0.0,0.0,0.0,0.0,0.0,0.0,0.0,0.0,0.0,0.0,0.0,0.0,0.0,0.0,0.0,0.0,0.0,0.0,0.0,0.0,0.0,0.0,0.0,0.0,0.0,0.0,0.0,0.0,0.0,0.0,0.0,0.0,0.0,0.0,0.0,0.0,0.0,0.0,0.0,0.0,0.0,0.0,0.0,0.0,0.0,0.0,0.0,0.0,0.0,0.0,0.0,0.0,0.0,0.0,0.0,0.0,0.0,0.0,0.0,0.0,0.0,0.0,0.0,0.0,0.0,0.0,0.0,0.0,0.0,0.0,0.0,0.0,0.0,0.0,0.0,0.0,0.0,0.0,0.0,0.0,0.0,0.0,0.0,0.0,0.0,0.0,0.0,0.0,0.0,0.0,0.0,0.0,0.0,0.0,0.0,0.0,0.0,0.0,0.0,0.0,0.0,0.0,0.0,0.0,0.0,0.0,0.0,0.0,0.0,0.0,0.0,0.0,0.0,0.0,0.0,0.0,0.0,0.0,0.0,0.0,0.0,0.0,0.0,0.0,0.0,0.0,0.0,0.0,0.0,0.0,0.0,0.0,0.0,0.0,0.0,0.0,0.0,0.0,0.0,0.0,0.0,0.0,0.0,0.0,0.0,0.0,0.0,0.0,0.0,0.0,0.0,0.0,0.0,0.0,0.0,0.0,0.0,0.0,0.0,0.0,0.0,0.0,0.0,0.0,0.0,0.0,0.0,0.0,0.0,0.0,0.0,0.0,0.0,0.0,0.0,0.0,0.0,0.0,0.0,0.0,0.0,0.0,0.0,0.0,0.0,0.0,0.0,0.0,0.0,0.0,0.0,0.0,0.0,0.0,0.0,0.0,0.0,0.0,0.0,0.0,0.0,0.0,0.0,0.0,0.0,0.0,0.0,0.0,0.0,0.0,0.0,0.0,0.0,0.0,0.0,0.0,0.0,0.0,0.0,0.0,0.0,0.0,0.0,0.0,0.0,0.0,0.0,0.0,0.0,0.0,0.0,0.0,0.0,0.0,0.0,0.0,0.0,0.0,0.0,0.0,0.0,0.0,0.0,0.0,0.0,0.0,0.0,0.0,0.0,0.0,0.0,0.0,0.0,0.0,0.0,0.0,0.0,0.0,0.0,0.0,0.0,0.0,0.0,0.0,0.0,0.0,0.0,0.0,0.0,0.0,0.0,0.0,0.0,0.0,0.0,0.0,0.0,0.0,0.0,0.0,-0.9539,0.0,0.0,0.0,0.0,0.0,0.0,0.0,0.0,0.0,0.0,0.0,0.0,0.0,0.0,0.0,0.0,0.0,0.0,0.0,0.0,0.0,0.0,0.0,0.0,0.0,0.0,0.0,0.0,0.0,0.0,0.0,0.0,0.0,0.0,0.0,0.0,0.0,0.0,-0.2843,-0.3246,-0.3296,-0.3018,-0.3556,-0.4251,-0.5042,0.0,0.0,0.0,0.0,0.0,0.0,0.0,0.0,0.0,0.0,0.0,0.0,0.0,0.0,0.0,0.0,0.0,0.0,0.0,0.0,0.0,0.0,0.0,0.0,0.0,0.0,0.0,0.0,0.0,0.0,0.0,0.0,0.0,0.0,0.0,0.0,0.0,0.0,0.0,0.0,0.0,0.0,0.0,0.0,0.0,0.0,0.0,0.0,0.0,0.0,0.0,0.0,0.0,0.0,0.0,0.0,0.0,0.0,0.0,0.0,0.0,0.0,0.0,0.0,0.0,0.0,0.0,0.0,0.0,0.0,0.0,-1.0549,0.0,0.0,0.0,0.0,0.0,0.0,0.0,0.0,0.0,0.0,0.0,0.0,0.0,0.0,0.0,0.0,0.0,0.0,0.0,0.0,0.0,0.0,0.0,-0.0369,-0.0557,-0.0507,-0.0501,-0.0465,0.0,0.0,0.0,0.0,0.0,0.0,0.0,-0.1753,-0.2297,-0.284,-0.2876,-0.281,-0.2669,-0.1928,-0.2052,-0.2936,-0.4349,0.0,0.0,0.0,0.0,0.0,0.0,0.0,0.0,0.0,0.0,0.0,0.0,0.0,0.0,0.0,0.0,0.0,0.0,0.0,0.0,0.0,0.0,0.0,0.0,0.0,0.0,0.0,0.0,0.0,0.0,0.0,0.0,0.0,0.0,0.0,0.0,0.0,0.0,0.0,0.0,0.0,0.0,0.0,0.0,0.0,0.0,0.0,0.0,0.0,0.0,0.0,0.0,0.0,0.0,0.0,0.0,0.0,0.0,0.0,0.0,0.0,0.0,0.0,-1.4088,-1.4462,-1.421,-1.4126,-1.454,-1.5232,-1.3838,-1.3297,-1.3395,0.0,0.0,0.0,0.0,0.0,0.0,0.0,0.0,0.0,0.0,0.0,0.0,0.0,0.0,0.0,0.0,0.0,0.0,0.0,0.0,0.0,0.0,-0.0602,-0.0761,-0.0514,-0.0561,-0.0458,-0.0164,0.0,0.0,0.0,0.0,0.0,-0.0768,-0.1685,-0.2194,-0.2229,-0.1547,-0.1167,-0.1106,-0.0792,-0.0294,0.0354,-0.0548,-0.0377,0.0447,0.0,0.0,0.0,0.0,0.0,0.0,0.0,0.0,0.0,0.0,0.0,0.0,0.0,0.0,0.0,0.0,0.0,0.0,0.0,0.0,0.0,0.0,0.0,0.0,0.0,0.0,0.0,0.0,0.0,0.0,0.0,0.0,0.0,0.0,0.0,0.0,0.0,0.0,0.0,0.0,0.0,-0.7209,-0.771,0.0,0.0,0.0,0.0,0.0,0.0,0.0,0.0,0.0,0.0,0.0,0.0,0.0,0.0,-1.2771,-1.3935,-1.4783,-1.5368,-1.6553,-1.7112,-1.7066,-1.7144,-1.7252,-1.7299,-1.6741,0.0,-1.3729,-1.3371,0.0,0.0,0.0,0.0,0.0,0.0,0.0,0.0,0.0,0.0,0.0,0.0,0.0,0.0,0.0,0.0,0.0,0.0,0.0,0.0,0.0,-0.0938,-0.1254,-0.1174,-0.1486,-0.1474,-0.1026,-0.1051,0.0,0.0,0.0,-0.076,-0.1194,-0.1714,-0.2145,-0.249,-0.2072,-0.1407,-0.0512,0.0223,0.112,0.2136,0.2825,0.2105,0.0367,-0.0029,0.0,0.0,0.0,0.0,0.0,0.0,0.0,0.0,0.0,0.0,0.0,0.0,0.0,0.0,0.0,0.0,0.0,0.0,0.0,0.0,0.0,0.0,0.0,0.0,0.0,0.0,0.0,0.0,0.0,0.0,0.0,0.0,0.0,0.0,0.0,0.0,0.0,0.0,0.0,-0.7622,-0.7949,-0.8082,-0.8175,-0.8133,0.0,0.0,0.0,0.0,0.0,0.0,0.0,0.0,0.0,-1.3173,-1.304,-1.3925,-1.5954,-1.685,-1.7316,-1.7381,-1.8492,-1.8816,-1.8493,-1.8559,-1.8576,-1.8507,-1.8123,-1.7269,-1.6075,-1.5064,-1.4153,-1.3373,0.0,0.0,0.0,0.0,0.0,-1.0683,0.0,0.0,0.0,0.0,0.0,0.0,0.0,0.0,0.0,0.0,0.0,0.0,-0.0728,-0.1365,-0.1794,-0.1929,-0.2278,-0.2299,-0.1867,-0.1667,-0.1399,-0.0976,-0.0885,-0.1121,-0.169,-0.1968,-0.2374,-0.2956,-0.2658,-0.1831,-0.0541,0.0627,0.1798,0.2982,0.4515,0.3804,0.1416,0.1887,0.0878,-0.1063,0.0,0.0,0.0,0.0,0.0,0.0,0.0,0.0,0.0,0.0,0.0,0.0,0.0,0.0,0.0,0.0,0.0,0.0,0.0,0.0,0.0,0.0,0.0,0.0,0.0,0.0,0.0,0.0,0.0,0.0,0.0,0.0,0.0,0.0,0.0,0.0,0.0,-0.8581,-0.8815,-0.857,-0.9085,-0.923,0.0,0.0,0.0,0.0,0.0,0.0,-1.1093,-1.101,-1.2194,-1.4913,-1.4967,-1.6057,-1.8371,-1.9118,-1.9371,-1.9213,-1.9833,-1.9982,-1.9651,-1.941,-1.9324,-1.929,-1.8802,-1.8434,-1.8034,-1.6606,-1.5743,-1.5285,-1.4562,-1.3966,-1.346,-1.3704,-1.3292,-1.256,0.0,0.0,0.0,0.0,0.0,0.0,0.0,0.0,0.0,0.0,0.0,-0.0891,-0.1479,-0.1913,-0.2267,-0.2538,-0.2517,-0.2413,-0.218,-0.1743,-0.1377,-0.1099,-0.1201,-0.1502,-0.1981,-0.2615,-0.3069,-0.3357,-0.2596,-0.193,-0.1321,0.0,0.1386,0.2738,0.3527,0.4978,0.6646,0.4359,0.4182,0.4908,-0.093,0.0,0.0,0.0,0.0,0.0,0.0,0.0,0.0,0.0,0.0,0.0,0.0,0.0,0.0,0.0,0.0,0.0,0.0,0.0,0.0,0.0,0.0,0.0,0.0,0.0,0.0,0.0,0.0,0.0,0.0,0.0,0.0,0.0,0.0,0.0,0.0,0.0,0.0,-0.9583,-1.05,0.0,0.0,0.0,0.0,-1.1336,-1.165,-1.2342,-1.3474,-1.3997,-1.4879,-1.6259,-1.7333,-1.8086,-1.8593,-1.9711,-2.0423,-2.0754,-2.0449,-2.0474,-2.0771,-1.9999,-1.9665,-1.9623,-1.8913,-1.8579,-1.8494,-1.7706,-1.7167,-1.6795,-1.6752,-1.6181,-1.5559,-1.6371,-1.5691,-1.4185,0.0,0.0,0.0,0.0,0.0,0.0,0.0,0.0,0.0578,-0.0057,-0.0614,-0.115,-0.1682,-0.2328,-0.2884,-0.3275,-0.3332,-0.3092,-0.2491,-0.2301,-0.1866,-0.1071,-0.1504,-0.1961,-0.2384,-0.2704,-0.2863,-0.2898,-0.3,-0.2475,-0.1398,-0.099,0.0039,0.1584,0.2664,0.3858,0.5056,0.5528,0.4855,0.3266,0.1958,-0.0196,0.0,0.0,0.0,0.0,0.0,0.0,0.0,0.0,0.0,0.0,0.0,0.0,0.0,0.0,0.0,0.0,0.0,0.0,0.0,0.0,0.0,0.0,0.0,0.0,0.0,0.0,0.0,0.0,0.0,0.0,0.0,0.0,0.0,0.0,0.0,0.0,0.0,-1.1008,-1.1934,0.0,0.0,-1.2097,-1.262,-1.3504,-1.3461,-1.3849,-1.4795,-1.4687,-1.5207,-1.6497,-1.6939,-1.752,-1.8264,-1.9423,-1.9898,-1.9792,-2.0395,-2.0609,-2.0489,-2.0223,-2.0095,-2.0069,-1.9512,-1.9196,-1.8964,-1.84,-1.7826,-1.7252,-1.7013,-1.6718,-1.6476,-1.6787,-1.6045,-1.4864,0.0,0.0,0.0,0.0,0.0,0.0,0.0,0.0,0.0334,-0.0312,-0.0989,-0.1602,-0.2116,-0.2868,-0.3439,-0.3717,-0.3738,-0.3431,-0.2722,-0.2611,-0.2212,-0.1413,-0.1933,-0.2421,-0.2792,-0.2944,-0.2977,-0.2902,-0.339,-0.3064,-0.2052,-0.1873,-0.1066,0.0281,0.1591,0.2484,0.3081,0.4958,0.4892,0.3549,0.3364,0.1874,-0.0456,0.0,0.0,0.0,0.0,0.0,0.0,0.0,0.0,0.0,0.0,0.0,0.0,0.0,0.0,0.0,0.0,0.0,0.0,0.0,0.0,0.0,0.0,0.0,0.0,0.0,0.0,0.0,0.0,0.0,0.0,0.0,0.0,0.0,0.0,0.0,-1.207,-1.2163,-1.3125,-1.3692,-1.3411,-1.3519,-1.4059,-1.518,-1.5039,-1.5143,-1.5738,-1.5513,-1.5694,-1.6324,-1.6739,-1.7242,-1.7893,-1.9399,-2.0025,-1.9788,-2.0768,-2.1045,-2.0668,-2.0549,-2.042,-2.0275,-1.9853,-1.9521,-1.9187,-1.8793,-1.822,-1.7638,-1.7398,-1.7256,-1.7256,-1.7101,-1.654,-1.5842,0.0,0.0,0.0,0.0,0.0,0.0,0.0,0.0741,0.013,-0.0861,-0.1589,-0.223,-0.2827,-0.3556,-0.3955,-0.3812,-0.3676,-0.3365,-0.2826,-0.262,-0.2387,-0.2113,-0.2484,-0.2859,-0.3202,-0.3411,-0.3505,-0.3479,-0.3685,-0.3614,-0.3288,-0.2575,-0.1848,-0.1049,0.0328,0.107,0.1342,0.2624,0.4449,0.6169,0.3038,0.2923,0.4121,0.0,0.0,0.0,0.0,0.0,0.0,0.0,0.0,0.0,0.0,0.0,0.0,0.0,0.0,0.0,0.0,0.0,0.0,0.0,0.0,0.0,0.0,0.0,0.0,0.0,0.0,0.0,0.0,0.0,0.0,0.0,0.0,0.0,-0.9715,-1.1719,-1.3037,-1.294,-1.398,-1.4692,-1.4478,-1.4576,-1.5133,-1.6244,-1.6338,-1.6316,-1.6329,-1.6544,-1.643,-1.5916,-1.6967,-1.7543,-1.7543,-1.9753,-2.0826,-2.0861,-2.1603,-2.1782,-2.1379,-2.1037,-2.066,-2.0275,-1.987,-1.9547,-1.9162,-1.8768,-1.8382,-1.8017,-1.8,-1.7991,-1.791,-1.7554,-1.7392,-1.722,0.0,0.0,0.0,0.0,0.0,0.0,0.0,0.0537,-0.0143,-0.0516,-0.1522,-0.2396,-0.2853,-0.3476,-0.3917,-0.4071,-0.3789,-0.3324,-0.2623,-0.2636,-0.2498,-0.2184,-0.2556,-0.2874,-0.3117,-0.3361,-0.3475,-0.3441,-0.3708,-0.3705,-0.3368,-0.3128,-0.249,-0.151,-0.0834,-0.0251,0.0252,0.0625,0.1676,0.312,0.3232,0.324,0.3014,0.0,0.0,0.0,0.0,0.0,0.0,0.0,0.0,0.0,0.0,0.0,0.0,0.0,0.0,0.0,0.0,0.0,0.0,0.0,0.0,0.0,0.0,0.0,0.0,0.0,0.0,0.0,0.0,0.0,0.0,0.0,0.0,-0.9393,-1.0058,-1.1831,-1.3141,-1.3457,-1.4732,-1.5713,-1.6017,-1.6125,-1.6362,-1.6918,-1.673,-1.6575,-1.6592,-1.6457,-1.6429,-1.6471,-1.6605,-1.6657,-1.6657,-1.8657,-1.9567,-1.9334,-2.1131,-2.1653,-2.102,-2.0925,-2.066,-2.0283,-2.0189,-1.9932,-1.9555,-1.917,-1.8785,-1.8408,-1.8102,-1.7838,-1.7554,-1.7432,-1.7188,-1.6845,0.0,0.0,0.0,0.0,0.0,0.0,0.0,0.0421,-0.0274,-0.0715,-0.1686,-0.2492,-0.2894,-0.3437,-0.3759,-0.3779,-0.3455,-0.3012,-0.2417,-0.2364,-0.24,-0.2502,-0.2516,-0.2686,-0.3109,-0.3244,-0.3422,-0.3603,-0.3839,-0.3877,-0.3748,-0.3454,-0.2889,-0.2155,-0.1368,-0.0899,-0.0691,-0.0389,0.0345,0.1412,0.2215,0.2989,0.3563,0.2853,0.2581,0.2536,0.2082,0.2697,0.3471,0.1806,0.0,0.0,0.0,0.0,0.0,0.0,0.0,0.0,0.0,0.0,0.0,0.0,0.0,0.0,0.0,0.0,0.0,0.0,0.0,0.0,0.0,0.0,0.0,0.0,-0.8706,-0.9265,-0.9796,-1.1895,-1.3514,-1.3993,-1.5367,-1.6387,-1.6815,-1.6767,-1.6876,-1.7261,-1.7038,-1.6884,-1.6888,-1.6729,-1.6636,-1.6694,-1.6543,-1.6453,-1.6453,-1.8417,-1.9174,-1.8792,-2.1125,-2.1735,-2.0774,-2.1011,-2.0805,0.0,-2.0292,-1.9992,-1.9504,-1.9436,-1.8999,0.0,0.0,0.0,0.0,0.0,-1.6943,-1.6738,0.0,0.0,0.0,0.0,0.0,0.0,0.0,0.0349,-0.0338,-0.1155,-0.192,-0.2544,-0.2928,-0.3369,-0.3502,-0.3196,-0.2922,-0.2611,-0.2266,-0.2061,-0.2208,-0.2791,-0.2392,-0.2406,-0.2956,-0.3095,-0.3365,-0.3862,-0.3974,-0.4055,-0.4098,-0.358,-0.3146,-0.2776,-0.1582,-0.1233,-0.1524,-0.0897,-0.0269,0.0313,0.0483,0.23,0.4832,0.3639,0.3554,0.4091,0.371,0.3593,0.3634,0.4015,0.0,0.0,0.0,0.0,0.0,0.0,0.0,0.0,0.0,0.0,0.0,0.0,0.0,0.0,0.0,0.0,0.0,0.0,0.0,0.0,0.0,0.0,0.0,0.0,-0.8694,-0.886,-0.9254,-1.186,-1.3938,-1.4398,-1.5764,-1.6806,-1.7074,-1.6862,-1.6918,-1.7415,-1.7241,-1.7086,-1.7117,0.0,0.0,0.0,0.0,-1.6748,-1.6748,-1.8578,-1.9213,-1.8702,-2.1091,-2.1603,-2.0362,-2.0839,-2.0676,-2.0024,-2.0115,-1.9771,-1.9186,-1.9528,-1.9033,-1.8029,-1.7904,-1.7635,-1.727,-1.6738,-1.6574,-1.6697,0.0,0.0,0.0,0.0,0.0,0.0,0.0,0.0172,-0.048,-0.0927,-0.1853,-0.2558,-0.274,-0.2982,-0.3102,-0.3037,-0.2741,-0.2575,-0.2596,-0.2421,-0.2299,-0.2337,-0.2388,-0.2355,-0.2209,-0.2938,-0.3426,-0.3654,-0.3998,-0.4017,-0.3698,-0.3531,-0.3063,-0.2332,-0.2055,-0.2189,-0.2598,-0.2063,-0.1973,-0.2058,-0.049,0.1758,0.4175,0.3739,0.4883,0.6669,0.6656,0.8191,0.989,0.7677,0.7735,0.8328,0.5811,0.4262,0.0,0.0,0.0,0.0,0.0,0.0,0.0,0.0,0.0,0.0,0.0,0.0,0.0,0.0,0.0,0.0,0.0,0.0,0.0,-0.8822,-0.8912,-0.8978,-0.9306,-1.1769,-1.3417,-1.333,-1.5294,-1.6806,-1.7074,-1.7074,-1.7074,-1.7185,-1.7129,-1.7116,-1.7116,-1.7128,0.0,-1.7322,-1.7129,-1.7014,-1.7014,-1.8066,-1.8346,-1.7774,0.0,0.0,-1.87,-1.9052,-1.8833,-1.8248,-1.906,-1.9203,-1.8899,-1.9465,-1.9166,-1.8235,-1.7326,-1.6894,-1.6738,-1.5955,-1.588,-1.6294,0.0,0.0,0.0,0.0,0.0,0.0,0.0,0.0155,-0.0466,-0.0935,-0.1649,-0.2156,-0.2335,-0.2479,-0.2544,-0.2553,-0.2438,-0.2447,-0.2639,-0.2281,-0.2162,-0.2394,-0.2039,-0.1887,-0.1946,-0.2701,-0.3246,-0.353,-0.3796,-0.3816,-0.3587,-0.3105,-0.262,-0.2199,-0.193,-0.2063,-0.2556,-0.2288,-0.2108,-0.1927,-0.094,0.0845,0.299,0.3703,0.4772,0.6011,0.7219,0.8566,0.9697,0.9418,0.9875,1.0343,0.897,0.746,0.5755,0.0,0.0,0.0,0.0,0.0,0.0,0.0,0.0,0.0,0.0,0.0,0.0,0.0,0.0,-0.4365,0.0,0.0,-0.6323,-0.7809,-0.8131,-0.8485,-0.9345,-1.1268,-1.2722,-1.3158,-1.5495,-1.7144,-1.7316,-1.731,-1.731,-1.731,-1.731,-1.7313,-1.728,-1.7286,-1.7346,-1.7479,-1.7358,-1.7228,-1.7059,-1.7919,-1.7976,-1.7278,-1.8672,-1.8875,-1.8008,-1.8513,-1.8324,-1.7707,-1.8086,-1.7961,-1.7617,-1.8216,-1.8729,-1.8906,-1.7453,-1.6891,-1.6893,-1.6554,-1.6541,-1.6787,0.0,0.0,0.0,0.0,0.0,0.0,0.0,0.0201,-0.0357,-0.082,-0.1331,-0.1684,-0.1814,-0.1925,-0.2008,-0.1998,-0.2154,-0.2315,-0.2434,-0.2029,-0.1967,-0.2363,-0.1647,-0.1401,-0.1786,-0.2369,-0.2848,-0.3213,-0.3372,-0.3408,-0.3318,-0.2557,-0.2154,-0.2019,-0.1615,-0.1705,-0.2199,-0.2109,-0.1794,-0.1435,-0.1076,-0.009,0.1435,0.3135,0.403,0.4561,0.6731,0.7364,0.7522,0.9864,1.064,1.0745,1.1255,1.0027,0.7805,0.4963,0.3269,0.0,0.0,0.0,0.0,0.0,0.0,0.0,0.0,0.0,-0.3505,-0.2415,-0.2724,-0.3312,-0.3651,-0.4126,-0.496,-0.6512,-0.697,-0.7606,-0.9089,-1.0463,-1.1747,-1.2953,-1.5451,-1.7244,-1.7485,-1.7303,-1.7244,-1.7479,-1.7244,-1.7244,-1.7479,-1.7485,-1.7485,-1.7485,-1.7426,-1.725,-1.7026,-1.7603,-1.7525,-1.6787,-1.789,-1.8084,-1.7331,-1.7802,-1.7696,-1.7191,-1.7029,-1.691,-1.681,-1.7357,-1.8406,-1.9538,-1.7869,-1.7344,-1.7499,-1.7192,-1.7163,-1.727,0.0,0.0,0.0,0.0,0.0,0.0,0.0,0.0,-0.0177,-0.0128,-0.0879,-0.138,-0.1212,-0.1482,-0.1657,-0.1657,-0.2158,-0.2305,-0.1905,-0.1995,-0.1921,-0.1633,-0.1392,-0.1307,-0.1383,-0.1912,-0.221,-0.226,-0.2749,-0.278,-0.2333,-0.2243,-0.193,-0.148,-0.1436,-0.1705,-0.2154,-0.1705,-0.1973,-0.2553,-0.1076,-0.0583,-0.0583,0.1345,0.3002,0.4463,0.5886,0.6363,0.6691,0.8891,0.9111,0.8595,0.9423,0.8886,0.7283,0.3753,0.2084,0.0583,-0.3051,-0.2832,-0.1328,-0.0286,0.0,0.0538,0.0,0.0,-0.0939,-0.0491,-0.183,-0.3192,-0.3488,-0.4369,-0.5258,-0.5751,-0.5985,-0.6541,-0.7897,-0.9179,-1.0453,-1.1719,-1.4183,-1.629,-1.7361,-1.6467,-1.629,-1.742,-1.6467,-1.629,-1.7426,-1.7485,-1.7485,-1.7485,-1.7197,-1.702,-1.7026,-1.6809,-1.6442,-1.5866,-1.6095,-1.599,-1.5684,-1.5475,-1.5429,-1.5421,-1.5739,-1.6882,-1.8531,-1.8596,-1.9033,-1.9501,-1.8449,-1.8386,-1.8591,-1.6693,-1.6316,-1.6779,0.0,0.0,0.0,0.0,0.0,0.0,0.0,0.0,0.0,0.0109,-0.0498,-0.0893,-0.0818,-0.1144,-0.1427,-0.1597,-0.2034,-0.2404,-0.2603,-0.215,-0.1921,-0.2091,-0.1302,-0.0901,-0.0935,-0.1559,-0.1887,-0.1912,-0.2279,-0.2349,-0.2199,-0.1885,-0.1391,-0.0807,-0.0807,-0.0718,-0.0538,-0.0718,-0.1076,-0.1434,-0.1121,-0.0852,-0.0581,0.0611,0.17,0.2745,0.3924,0.4218,0.0,0.6706,0.7293,0.7245,0.7947,0.7764,0.6493,0.2691,0.157,0.1361,0.0264,-0.0191,0.0,0.0,0.211,0.217,0.2357,0.1311,0.0202,-0.016,-0.0869,-0.1714,-0.2442,-0.2966,-0.3556,0.0,-0.4688,-0.5223,-0.6571,-0.7793,-0.8919,-0.9957,-1.1712,-1.3508,-1.5128,-1.5273,-1.5208,-1.503,-1.5876,-1.6231,-1.586,-1.6708,-1.7132,-1.695,-1.6779,-1.6608,-1.6495,-1.6312,-1.6079,-1.5622,-1.5717,-1.5664,-1.5552,-1.5325,-1.5035,-1.4606,-1.4585,-1.5752,-1.7676,-1.705,-1.7724,-1.8964,-1.7427,-1.7492,-1.8378,-1.7063,-1.6891,-1.7325,0.0,0.0,0.0,0.0,0.0,0.0,0.0,0.0,0.0,0.0,-0.0069,-0.0445,-0.0609,-0.0913,-0.1252,-0.1589,-0.203,-0.2434,-0.2768,-0.2134,-0.1833,-0.2043,-0.111,-0.0639,-0.0671,-0.124,-0.1514,-0.1565,-0.1799,-0.1868,-0.1853,-0.1455,-0.0929,-0.0311,-0.0311,0.0089,0.0673,0.0134,-0.009,-0.0134,-0.0852,-0.0712,-0.0088,0.0294,0.0761,0.1352,0.2535,0.2581,0.2402,0.4495,0.5111,0.511,0.5811,0.5717,0.4708,0.1372,0.0267,0.0273,0.0891,0.0917,0.0,0.2657,0.3567,0.3808,0.2688,0.2134,0.1627,0.085,0.0343,-0.0115,-0.0586,-0.1189,-0.1858,-0.2572,-0.2907,-0.3547,-0.4885,-0.6047,-0.7159,-0.8197,-0.9466,-1.0786,-1.2158,-1.3232,-1.3644,-1.3108,-1.4436,-1.509,-1.4604,-1.5693,-1.6419,-1.6478,-1.6425,-1.6312,-1.6087,-1.6022,-1.5839,-1.5596,-1.5587,-1.5588,-1.5682,-1.5417,-1.4907,-1.425,-1.4033,-1.4958,-1.6608,-1.5789,-1.6649,-1.8357,-1.681,-1.7111,-1.8306,-1.7624,-1.7683,-1.7969,0.0,0.0,0.0,0.0,0.0,0.0,0.0,0.0,0.0,0.0,0.0,0.0,0.0,-0.0832,-0.112,-0.1642,-0.219,-0.2285,-0.1773,-0.1841,-0.1611,-0.0964,-0.0732,-0.059,-0.0621,-0.0882,-0.1023,-0.1025,-0.1238,-0.1223,-0.1055,-0.1013,-0.064,0.0,0.0,0.0264,0.0718,0.0673,0.0673,0.0583,-0.0134,-0.0087,0.0461,0.0441,0.0534,0.0916,0.2288,0.2061,0.1267,0.271,0.2387,0.1543,0.2598,0.2365,0.1336,-0.0352,-0.2481,-0.4207,-0.3725,0.0,0.123,0.1907,0.4017,0.5816,0.5441,0.4681,0.3878,0.3405,0.2039,0.1254,0.2293,0.0529,-0.0707,0.0294,-0.0418,-0.1508,-0.283,-0.403,-0.526,-0.6581,-0.7857,-0.8619,0.0,-0.9911,-1.13,-1.2602,-1.1663,-1.2028,-1.4485,-1.4663,-1.5208,-1.6478,-1.6259,-1.6087,-1.6087,-1.5779,-1.5601,-1.5596,-1.5365,-1.5362,-1.5682,-1.5205,-1.474,-1.4186,-1.4186,-1.4929,-1.6092,-1.5809,-1.6516,-1.7721,-1.7366,-1.7894,-1.8732,-1.8337,-1.8306,-1.8356,0.0,0.0,0.0,0.0,0.0,0.0,0.0,0.0,0.0,0.0,0.0,0.0,0.0,0.0,0.0,0.0,-0.1761,-0.2106,-0.2291,-0.1792,-0.1492,-0.1494,-0.0743,-0.0389,-0.0471,-0.0734,-0.0904,-0.0935,-0.1141,-0.0896,-0.0281,-0.0163,0.0412,0.1414,0.1433,0.159,0.1799,0.1297,0.1117,0.0986,-0.0083,0.0,0.0716,0.0293,0.0486,0.1007,0.0,0.0857,0.046,0.1293,0.1301,0.099,0.1368,0.099,0.0071,-0.182,-0.279,-0.2998,-0.1839,0.0,0.1237,0.3631,0.4959,0.5779,0.6323,0.6213,0.5546,0.4154,0.2208,0.0565,0.0,-0.0653,-0.1264,-0.1759,-0.1421,-0.1234,-0.1562,-0.334,-0.4648,-0.4807,-0.5948,0.0,0.0,0.0,0.0,-0.9709,-1.09,-1.1899,-1.262,-1.3715,-1.4743,-1.5893,-1.5839,-1.5779,-1.5779,-1.5661,-1.5601,-1.5596,-1.5301,-1.516,-1.5164,-1.4793,-1.4521,-1.4196,-1.4401,-1.5093,-1.6084,-1.5533,-1.6188,-1.7457,-1.7107,-1.743,-1.8225,-1.9028,-1.8846,-1.8232,0.0,0.0,0.0,0.0,0.0,0.0,0.0,0.0,0.0,0.0,0.0,0.0,0.0,0.0,0.0,0.0,0.0,-0.1813,-0.2208,-0.1668,-0.1422,-0.1643,-0.0845,-0.0444,-0.0531,-0.0773,-0.0936,-0.1013,-0.1223,-0.0959,-0.022,-0.0148,0.0562,0.1793,0.1819,0.2025,0.2251,0.1692,0.1401,0.1237,0.0194,0.0227,0.0886,0.0376,0.0488,0.0,0.0553,0.0221,-0.0066,0.0298,0.0337,0.0241,0.0239,-0.0238,-0.1124,-0.2608,-0.2901,-0.2389,-0.1025,-0.0097,0.1109,0.3551,0.4369,0.4802,0.5632,0.5977,0.5765,0.48,0.2704,0.0917,0.0515,-0.0561,-0.1588,-0.2233,-0.1661,-0.1171,-0.1168,-0.2746,-0.3953,-0.3879,-0.4973,0.0,0.0,0.0,0.0,-0.8048,-0.9572,-1.0655,-1.1004,-1.2457,-1.3784,-1.4873,-1.5359,-1.5601,-1.5601,-1.5601,-1.5601,-1.5596,-1.5451,-1.5203,-1.4875,-1.4729,-1.4487,-1.4196,-1.4401,-1.4885,-1.5555,-1.5517,-1.6144,-1.7136,-1.7277,-1.7851,-1.8677,-1.9555,-1.9502,-1.8933,0.0,0.0,0.0,0.0,0.0,0.0,0.0,0.0,0.0,0.0,0.0,0.0,0.0,0.0,0.0,0.0,0.0,0.0,-0.1558,-0.1432,-0.1369,-0.1374,-0.0927,-0.0738,-0.0815,-0.0994,-0.1117,-0.1212,-0.1468,-0.1279,-0.0737,-0.0813,-0.0095,0.1205,0.1208,0.149,0.2003,0.1745,0.1525,0.1307,0.0615,0.0631,0.0967,0.0616,0.0504,0.0521,0.0416,0.0092,-0.029,-0.0323,-0.0528,-0.0775,-0.0787,-0.1334,-0.2108,-0.2704,-0.2802,-0.2468,-0.1347,-0.0204,0.0888,0.1777,0.2495,0.3135,0.3741,0.4249,0.4715,0.5205,0.333,0.2078,0.0,0.0,-0.1678,-0.1195,-0.1257,-0.1346,-0.1501,-0.2444,-0.3293,0.0,0.0,0.0,0.0,0.0,0.0,-0.7693,0.0,-0.8471,-0.9744,-1.0948,-1.2217,-1.3545,-1.4813,-1.5477,-1.5477,-1.5601,-1.5601,-1.5601,-1.5585,-1.5343,-1.4902,-1.4875,-1.4627,-1.4213,-1.4196,-1.4347,-1.4691,-1.5799,-1.642,-1.6761,-1.7832,-1.8841,-1.9714,-1.9786,-2.0022,-2.0127,0.0,0.0,0.0,0.0,0.0,0.0,0.0,0.0,0.0,0.0,0.0,0.0,0.0,0.0,0.0,0.0,0.0,0.0,-0.114,-0.103,-0.0994,-0.1104,-0.0752,-0.0643,-0.0883,-0.0969,-0.1085,-0.1206,-0.1262,-0.0852,0.0029,0.006,0.0435,0.1136,0.1185,0.1027,0.0742,0.0692,0.0652,0.0615,0.0033,0.0415,0.1191,0.0327,0.0382,0.0889,0.0431,0.0118,-0.0125,-0.0545,-0.0609,-0.05,-0.039,-0.0363,-0.0452,-0.0853,-0.0711,-0.0319,-0.0098,0.0213,0.0743,0.1999,0.2276,0.2529,0.3643,0.3987,0.401,0.3679,0.1622,-0.0324,0.0,0.0,0.0,-0.4032,-0.3469,0.0,-0.3157,-0.4133,0.0,-0.519,0.0,-0.6125,-0.741,-0.7603,0.0,0.0,-0.7728,-0.838,-0.9738,-1.0105,-1.0891,-1.2157,-1.3485,-1.4207,-1.4207,-1.5116,-1.5601,-1.5596,-1.5424,-1.5215,-1.5086,-1.4789,-1.4557,-1.4439,-1.4472,-1.4552,-1.4654,-1.5121,-1.5624,-1.6194,-1.6834,-1.7136,-1.7333,-1.9037,-1.8518,-1.7141,0.0,0.0,0.0,0.0,0.0,0.0,0.0,0.0,0.0,0.0,0.0,0.0,0.0,0.0,0.0,0.0,0.0,0.0,0.0,-0.0802,-0.082,-0.0987,-0.0789,-0.0731,-0.0856,-0.0997,-0.1128,-0.1249,-0.1305,-0.1,-0.0366,-0.0295,0.0027,0.0582,0.0604,0.051,0.0282,0.0154,0.0062,0.0,0.0,0.0059,0.0561,0.0231,0.0316,0.0575,0.023,0.0059,0.0,0.0,0.0,-0.0108,-0.0226,-0.0078,0.0081,-0.0127,0.0,0.0337,-0.0103,-0.0274,-0.0115,0.0761,0.0648,0.0643,0.181,0.2282,0.2328,0.1794,0.0,0.0,0.0,0.0,0.0,0.0,0.0,0.0,-0.4226,-0.4815,-0.5405,0.0,-0.5768,0.0,-0.756,-0.7736,-0.7777,0.0,-0.7777,-0.8104,-0.8894,-0.9502,-1.0105,-1.0827,-1.2157,-1.3122,-1.3665,-1.4932,-1.5601,-1.5596,-1.5467,-1.529,-1.5183,-1.4859,-1.4632,-1.4519,0.0,-1.4396,-1.4504,-1.5232,-1.5761,-1.6133,-1.6975,-1.7448,-1.7839,-1.8999,-1.8586,-1.7577,0.0,0.0,0.0,0.0,0.0,0.0,0.0,0.0,0.0,0.0,0.0,0.0,0.0,0.0,0.0,0.0,0.0,0.0,0.0,0.0,-0.071,-0.0881,-0.0849,-0.0838,-0.0779,-0.1016,-0.1178,-0.1292,-0.1394,-0.1371,-0.1203,-0.1122,-0.0782,-0.0238,-0.0239,-0.01,0.008,-0.0185,-0.0379,-0.0476,-0.0333,-0.0333,-0.0363,0.0,0.0227,-0.0028,0.0,0.003,0.0124,0.0583,0.0604,0.0327,0.008,0.0082,0.0212,0.0229,0.0336,0.0301,-0.0537,-0.0952,-0.1151,-0.1107,-0.1501,-0.1638,-0.0707,-0.0052,0.0242,-0.0223,0.0,-0.2433,-0.2339,-0.3547,-0.4792,-0.5445,0.0,-0.4693,-0.5013,-0.517,-0.5528,-0.61,-0.6145,-0.6644,-0.7808,-0.7872,-0.7872,-0.7872,-0.7872,-0.7872,-0.7872,-0.8958,-0.9623,-0.9805,-1.0887,-1.2093,-1.3426,-1.4694,-1.5343,-1.5311,-1.5494,-1.5429,-1.5135,-1.495,-1.4729,-1.4469,0.0,0.0,-1.4299,-1.5547,-1.6009,-1.6115,-1.7134,-1.808,-1.8842,-1.871,-1.8759,-1.8894,0.0,0.0,0.0,0.0,0.0,0.0,0.0,0.0,0.0,0.0,0.166,0.1276,0.0,0.0,0.0,0.0,0.0,0.0,0.0,0.0,0.0,-0.0252,-0.0466,-0.0608,-0.0726,-0.0772,-0.0956,-0.1305,-0.1204,-0.12,-0.1269,-0.1047,-0.0969,-0.1001,-0.0886,-0.0921,-0.101,-0.0903,-0.0899,-0.0949,-0.0764,-0.0654,-0.0536,-0.0209,0.0,0.0,-0.0028,0.0142,0.0412,0.0885,0.096,0.0962,0.131,0.1337,0.1266,0.1327,0.1365,0.1246,0.0162,-0.0336,-0.0801,-0.1755,-0.212,-0.2221,-0.1929,-0.1653,0.0,0.0,-0.2445,-0.3123,-0.3939,-0.4504,-0.5077,-0.5812,0.0,0.0,0.0,0.0,-0.6979,0.0,0.0,0.0,0.0,0.0,0.0,0.0,0.0,0.0,-0.7872,-0.8113,-0.8717,-0.9744,-0.9983,-1.0767,-1.2032,-1.3361,-1.3941,-1.3712,-1.4775,-1.5182,-1.4939,-1.4702,-1.4518,-1.4469,0.0,0.0,-1.4191,-1.4455,-1.4557,-1.4557,-1.4773,-1.4987,-1.5167,-1.5632,-1.5688,-1.5512,0.0,0.0,0.0,0.0,0.0,0.0,0.0,0.2586,0.2436,0.2361,0.2077,0.1725,0.1349,0.1155,0.0,0.0,0.0,0.0,0.0,0.0,0.0,0.0,-0.0237,-0.0374,-0.0449,-0.0517,0.0,0.0,0.0,-0.0986,-0.1187,0.0,-0.0948,-0.1041,-0.0968,-0.0973,-0.1034,-0.0933,-0.0926,-0.0929,-0.0679,-0.0544,-0.0465,0.0,0.0,0.0,0.0,0.0083,0.0374,0.0577,0.0849,0.1256,0.183,0.1834,0.1565,0.1095,0.133,0.1153,-0.1203,-0.1622,-0.1582,-0.2635,-0.3089,-0.3085,-0.2383,0.0,0.0,0.0,-0.3125,-0.367,-0.4375,0.0,0.0,0.0,0.0,0.0,0.0,0.0,0.0,0.0,0.0,0.0,0.0,0.0,0.0,0.0,0.0,0.0,-0.7872,-0.7872,-0.8175,-0.8778,-1.0105,-1.1068,-1.1671,-1.3556,-1.4407,-1.4301,-1.4829,-1.4999,-1.4875,-1.4643,-1.448,-1.4469,-1.4293,0.0,-1.4186,-1.4051,-1.4078,-1.4223,-1.4381,-1.4569,-1.476,-1.5327,-1.536,-1.5109,0.0,0.0,0.0,0.0,0.0,0.0,0.0,0.2812,0.2713,0.2605,0.2415,0.2095,0.1627,0.1464,0.1242,0.0,0.0,0.0,0.0,0.0,0.0,0.0,0.0,0.0,0.0,0.0,0.0,0.0,0.0,0.0,0.0,0.0,0.0,0.0,0.0,-0.0851,-0.0837,-0.0738,-0.0751,0.0,0.0,-0.0435,0.0,0.0,0.0,0.0,0.0,0.0,0.0198,0.0257,0.0617,0.117,0.1779,0.1789,0.147,0.0489,0.0859,0.083,-0.262,-0.2837,-0.2402,-0.362,-0.407,-0.3931,-0.2857,-0.2783,0.0,0.0,-0.3573,-0.4033,-0.4437,0.0,-0.4933,0.0,0.0,0.0,0.0,0.0,0.0,0.0,0.0,0.0,0.0,0.0,0.0,0.0,0.0,0.0,-0.7872,-0.7872,-0.7858,-0.7837,-0.9818,-1.094,-1.12,-1.3313,-1.4446,-1.4625,-1.4788,-1.4783,-1.4729,-1.4546,-1.4378,-1.4319,-1.4191,0.0,0.0,-1.383,-1.3863,-1.4056,-1.4327,-1.455,-1.4804,-1.5247,-1.5171,-1.4936,0.0,0.0,0.0,0.0,0.0,0.0,0.0,0.3006,0.2876,0.2865,0.2489,0.2192,0.2131,0.1841,0.157,0.0,0.0,0.0,0.0,0.0,0.0,0.0,0.0,0.0,0.0,0.0,0.0,0.0,0.0,0.0,0.0,0.0,0.0,0.0,0.0,0.0,0.0,-0.0525,0.0,0.0,0.0,0.0,0.0,0.0,0.0,0.0,0.0,0.0,0.0,0.0,0.0,0.0464,0.0945,0.1151,0.0949,-0.0094,0.0,0.0,-0.2529,-0.2625,-0.2343,-0.4505,-0.483,-0.453,-0.4132,0.0,0.0,-0.3546,-0.3729,-0.405,-0.4501,-0.4577,-0.4591,-0.4836,-0.493,-0.5044,0.0,0.0,0.0,0.0,0.0,0.0,0.0,0.0,0.0,0.0,0.0,0.0,0.0,-0.7872,-0.7823,-0.772,-0.7954,-0.8545,-0.9518,-1.089,-1.2003,-1.2847,-1.4013,-1.446,-1.4256,-1.4234,-1.4099,-1.3884,0.0,0.0,0.0,-1.3518,-1.3523,-1.3591,-1.3599,-1.3645,-1.3629,-1.3428,-1.3237,-1.3034,0.0,0.0,0.0,0.0,0.0,0.0,0.3454,0.3218,0.3084,0.3084,0.284,0.264,0.2509,0.2349,0.2029,0.0,0.0,0.0,0.0,0.0,0.0,0.0,0.0,0.0,0.0,0.0,0.0,0.0,0.0,0.0,0.0,0.0,0.0,0.0,0.0,0.0,0.0,0.0,0.0,0.0,0.0,0.0,0.0,0.0,0.0,0.0,0.0,0.0,0.0,0.0,0.0,0.0,0.0,0.0173,0.0,0.0,-0.0691,-0.0685,-0.3606,-0.3573,-0.3198,-0.4877,-0.4881,-0.4324,-0.4116,0.0,-0.3486,-0.3491,-0.3595,-0.3848,-0.4319,-0.4481,-0.4599,-0.4768,-0.5054,0.0,0.0,0.0,0.0,0.0,0.0,0.0,0.0,0.0,0.0,0.0,0.0,0.0,0.0,-0.7872,-0.7818,-0.7706,-0.8471,-0.9343,-1.0455,-1.161,-1.2707,-1.3744,-1.4116,-1.4202,-1.397,-1.397,-1.3836,-1.3615,0.0,0.0,0.0,-1.3313,-1.334,-1.3448,-1.3213,-1.3099,-1.3083,-1.2937,-1.271,-1.2402,0.0,0.0,0.0,0.0,0.0,0.4115,0.3728,0.3482,0.3325,0.3262,0.3059,0.2846,0.2682,0.2537,0.2208,0.1614,0.0,0.0,0.0,0.0,0.0,0.0,0.0,0.0,0.0,0.0,-0.0353,-0.0463,-0.0424,0.0,0.0,0.0,0.0,0.0,0.0,0.0,0.0,0.0,0.0,0.0,0.0,0.0,0.0,0.0,0.0,0.0,0.0,0.0,0.0,0.0,0.0,0.0,-0.0643,-0.0561,-0.0455,0.0,-0.1333,-0.1391,-0.4034,-0.4049,-0.3659,-0.4884,-0.4654,-0.4094,0.0,0.0,-0.3327,-0.3396,-0.3507,-0.3743,-0.4208,-0.4393,-0.4517,-0.4628,-0.4991,-0.5193,-0.4989,0.0,0.0,0.0,0.0,0.0,0.0,0.0,0.0,0.0,0.0,0.0,0.0,-0.7872,-0.7801,-0.7652,-0.8529,-0.9487,-1.0538,-1.1264,-1.2201,-1.3367,-1.3549,-1.335,-1.2856,-1.3182,-1.3221,-1.3008,0.0,0.0,0.0,-1.3179,-1.3168,-1.3283,-1.2943,-1.277,-1.2662,-1.2662,-1.2402,-1.2024,0.0,0.0,0.0,0.0,0.0,0.0,0.4168,0.3858,0.3634,0.342,0.2998,0.2687,0.2615,0.2299,0.2001,0.1719,0.0,0.0,0.0,0.0,0.0,0.0,0.0,0.0,0.0,0.0,-0.0464,-0.04,-0.0396,-0.0405,-0.0405,0.0,0.0,0.0,0.0,0.0,0.0,0.0,0.0,0.0,0.0,0.0,0.0,0.0,0.0,0.0,0.0,0.0,0.0,0.0,0.0,0.0,0.0,-0.084,-0.0925,-0.1694,-0.153,-0.1501,-0.3384,-0.3577,-0.3457,-0.4558,-0.4381,-0.3906,0.0,0.0,-0.3172,-0.3357,-0.3512,-0.3741,-0.4212,-0.4264,-0.424,-0.428,-0.4518,-0.4698,-0.4714,0.0,0.0,0.0,0.0,0.0,0.0,0.0,0.0,0.0,0.0,0.0,0.0,-0.7872,-0.7763,-0.7529,-0.7521,-0.7976,-0.893,-0.8923,-0.9526,-1.0731,-1.1873,-1.1765,-1.056,-1.169,-1.2111,0.0,0.0,0.0,0.0,-1.3104,-1.2974,-1.2818,-1.2813,-1.2619,-1.242,-1.242,-1.2113,-1.1736,0.0,0.0,0.0,0.0,0.0,0.0,0.0,0.403,0.3678,0.3612,0.3281,0.3001,0.2892,0.2582,0.2277,0.2054,0.0,0.0,0.0,0.0,0.0,0.0,0.0,0.0,0.0,0.0,-0.0385,-0.0397,-0.0207,-0.0069,0.0,-0.0046,-0.0092,0.0,0.0,0.0,0.0,0.0,0.0,0.0,0.0,0.0,0.0,0.0,0.0,0.0,0.0,0.0,0.0,0.0,0.0,0.0,0.0,0.0,0.0,-0.137,-0.1763,0.0,-0.328,-0.3389,-0.3282,-0.3628,-0.3252,-0.2796,-0.2803,-0.281,-0.2848,-0.2971,-0.324,-0.3631,-0.4146,-0.4245,-0.4298,-0.4412,-0.483,-0.492,0.0,0.0,0.0,0.0,0.0,0.0,0.0,0.0,0.0,0.0,0.0,0.0,0.0,-0.7799,-0.7682,-0.7524,-0.7519,-0.7973,-0.8868,-0.892,-0.9526,-1.0726,-1.1051,-1.0904,-1.0354,-1.0728,0.0,0.0,0.0,0.0,0.0,-1.2573,-1.2878,-1.2797,-1.2587,-1.2377,-1.2208,-1.2208,-1.1865,-1.145,0.0,0.0,0.0,0.0,0.0,0.0,0.0,0.4231,0.3921,0.3722,0.3505,0.3243,0.2992,0.2679,0.2388,0.2102,0.0,0.0,0.0,0.0,0.0,0.0,0.0,0.0,0.002,-0.0122,-0.021,-0.0241,-0.0023,0.0094,0.0115,0.0094,0.0071,0.0069,-0.0249,-0.036,0.0,0.0,0.0,0.0,0.0,0.0,-0.0157,0.0,0.0,0.0,0.0,0.0,0.0,0.0,0.0,0.0,0.0,0.0,0.0,0.0,-0.1942,-0.2539,-0.3108,-0.3342,-0.3429,-0.3445,-0.2866,0.0,0.0,-0.2476,-0.2479,-0.27,-0.3001,-0.343,-0.3976,-0.4129,-0.4202,-0.4345,-0.4701,0.0,0.0,0.0,0.0,0.0,0.0,0.0,0.0,0.0,0.0,0.0,0.0,0.0,0.0,0.0,-0.7576,-0.7453,-0.7451,-0.7695,-0.8263,-0.826,-0.8644,-0.9409,-0.9785,-0.9619,-0.8984,-0.9395,0.0,0.0,0.0,0.0,0.0,-1.249,-1.2889,-1.2786,-1.2506,-1.2264,-1.2083,-1.1997,-1.1538,-1.1062,0.0,0.0,0.0,0.0,0.0,0.0,0.0,0.0,0.4283,0.3752,0.3628,0.3385,0.2938,0.2651,0.234,0.1936,0.0,0.0,0.0,0.0,0.0,0.0,0.0,0.0,0.0384,0.0134,0.0,0.0,0.0115,0.012,0.0024,0.0144,0.0216,0.0191,-0.0184,-0.0225,-0.0022,-0.0472,-0.0718,-0.0828,-0.0561,0.0,0.0,0.0,0.0,0.0,0.0,0.0,0.0,0.0,0.0,0.0,0.0,0.0,0.0,0.0,0.0,0.0,0.0,-0.3258,-0.3697,-0.3657,0.0,0.0,0.0,-0.2236,0.0,-0.2497,-0.2772,-0.3164,-0.3765,-0.3888,-0.3918,-0.4136,0.0,0.0,0.0,0.0,0.0,0.0,0.0,0.0,0.0,0.0,0.0,0.0,0.0,0.0,0.0,0.0,-0.7395,-0.7282,-0.7269,-0.7269,-0.7213,-0.721,-0.721,-0.721,-0.8125,-0.7993,-0.6865,-0.7827,0.0,0.0,0.0,0.0,0.0,-1.2408,-1.2729,-1.2517,-1.2268,-1.2035,-1.1852,-1.1579,-1.1043,-1.0506,0.0,0.0,0.0,0.0,0.0,0.0,0.0,0.0,0.0,0.0,0.3385,0.3096,0.279,0.2598,0.234,0.0,0.0,0.0,0.0,0.0,0.0,0.0,0.0,0.0,0.0327,0.002,-0.0104,0.0,0.0024,0.0075,0.0149,0.0282,0.0303,0.0191,0.0213,0.0139,0.0,-0.0112,-0.0247,-0.0337,-0.0067,0.009,0.0,0.0,0.0,0.0,0.0271,0.0282,0.0,0.0,0.0,0.0,0.0,0.0,0.0,0.0,-0.15,-0.1967,-0.1815,0.0,-0.2505,-0.2187,-0.181,-0.1556,0.0,-0.1686,-0.1879,-0.2282,0.0,0.0,0.0,-0.3655,-0.3587,0.0,0.0,0.0,0.0,0.0,0.0,0.0,0.0,0.0,0.0,0.0,0.0,0.0,0.0,0.0,0.0,0.0,-0.7252,-0.7,-0.7134,-0.724,-0.721,-0.721,-0.721,-0.721,-0.7456,-0.7325,-0.6942,-0.7231,0.0,0.0,0.0,0.0,-0.8613,-0.9807,-1.0254,-1.0184,-0.9844,-0.9681,-0.9614,-0.9336,-0.9367,-0.954,0.0,0.0,0.0,0.0,0.0,0.0,0.0,0.0,0.0,0.0,0.0,0.0,0.0,0.0,0.0,0.0,0.0,0.0,0.0,0.0,0.0,0.0,0.0,0.0381,0.0353,0.0102,0.0044,0.0191,0.0126,0.0129,0.0207,0.0264,0.031,0.0293,0.0402,0.0252,-0.009,-0.009,-0.009,-0.009,-0.0022,0.0,0.0,0.0,0.0,0.0,0.0368,0.0254,0.0,0.0239,0.0112,-0.0059,0.0,0.0,0.0,0.0,-0.129,-0.1721,-0.1593,-0.1926,-0.2277,-0.1947,-0.1688,-0.1469,-0.1492,-0.1457,-0.1579,-0.2176,0.0,0.0,0.0,0.0,0.0,0.0,0.0,0.0,0.0,0.0,0.0,0.0,0.0,0.0,0.0,0.0,0.0,0.0,0.0,0.0,0.0,0.0,-0.692,-0.664,-0.6857,-0.699,-0.699,-0.7099,-0.7099,-0.6988,-0.6935,-0.6741,-0.6524,-0.647,0.0,0.0,0.0,0.0,-0.7619,-0.8806,-0.9304,-0.9276,-0.9001,-0.8894,-0.8874,-0.8516,-0.8404,-0.8404,0.0,0.0,0.0,0.0,0.0,0.0,0.0,0.0,0.0,0.0,0.0,0.0,0.0,0.0,0.0,0.0,0.0,0.0,0.0,0.0,0.0,0.0,0.0513,0.0468,0.0436,0.0302,0.03,0.0389,0.0234,0.0188,0.0189,0.0244,0.037,0.0527,0.0536,0.0315,-0.0067,-0.0067,0.0,0.0067,-0.0045,0.0,0.0,0.0,0.0,0.0,0.0,0.0,0.0,0.0238,0.0193,0.0029,0.0196,0.0,0.0,0.0,0.0,0.0,-0.1511,-0.1886,-0.2227,-0.2156,-0.1897,-0.1652,-0.1637,-0.1301,-0.1217,-0.1994,0.0,0.0,0.0,-0.342,0.0,0.0,0.0,0.0,0.0,0.0,0.0,0.0,0.0,0.0,0.0,0.0,0.0,0.0,0.0,0.0,0.0,0.0,0.0,-0.6219,-0.6492,-0.6594,-0.6521,-0.6869,-0.6935,-0.6657,-0.6488,-0.627,-0.6006,-0.5846,-0.5729,0.0,0.0,0.0,-0.7228,-0.8254,-0.8699,-0.8679,-0.8469,-0.8403,-0.8294,-0.7926,-0.7526,-0.7221,0.0,0.0,0.0,0.0,0.0,0.0,0.0,0.0,0.0,0.0,0.0,0.0,0.0,0.0,0.0,0.0,0.0,0.0,0.0,0.0,0.0,0.1009,0.0886,0.0743,0.0583,0.0504,0.0426,0.0393,0.0164,0.0085,0.0203,0.0493,0.0775,0.1056,0.0792,0.0629,0.0562,0.0562,0.0517,0.0427,0.0405,0.0,0.0,0.0,0.0,0.0,0.0,0.0,0.0,-0.0356,-0.0418,-0.0406,-0.0376,0.0,0.0,0.0,0.0,0.0,-0.0672,-0.0861,-0.1263,-0.1746,-0.1438,-0.1084,-0.1324,-0.0929,-0.0676,-0.1335,0.0,0.0,0.0,-0.2513,0.0,0.0,0.0,0.0,0.0,0.0,0.0,0.0,0.0,0.0,0.0,0.0,0.0,0.0,0.0,0.0,0.0,0.0,0.0,-0.588,-0.6216,-0.6174,-0.5861,-0.6227,-0.6383,-0.6383,-0.622,-0.6112,-0.6006,-0.5846,-0.5691,0.0,0.0,-0.6061,-0.5963,-0.6302,-0.6385,-0.6374,-0.6251,-0.6067,-0.5927,-0.5863,-0.5899,-0.603,0.0,0.0,0.0,0.0,0.0,0.0,0.0,0.0,0.0,0.0,0.0,0.0,0.0,0.0,0.0,0.0,0.0,0.0,0.0,0.0,0.1484,0.1429,0.1365,0.1229,0.1029,0.094,0.0928,0.1041,0.068,0.0581,0.0736,0.0938,0.1132,0.1309,0.1143,0.0985,0.0807,0.0807,0.0741,0.0607,0.0,0.0,0.0,0.0,0.0,0.0,0.0,0.0,0.0,0.0,-0.0276,-0.0206,-0.0051,0.0,0.0,0.0,0.0,0.0,-0.0646,-0.0789,-0.0929,-0.1111,-0.0867,-0.065,-0.093,-0.0877,-0.0955,-0.164,0.0,0.0,0.0,0.0,0.0,0.0,0.0,0.0,0.0,0.0,0.0,0.0,0.0,0.0,0.0,0.0,0.0,0.0,0.0,0.0,0.0,0.0,0.0,0.0,-0.5801,-0.5777,-0.5406,-0.5564,-0.5721,-0.5936,-0.5783,-0.5575,-0.5368,-0.5273,-0.5201,-0.5204,0.0,-0.5524,-0.5611,-0.5724,-0.5719,-0.5623,-0.557,-0.5371,-0.5191,-0.506,-0.4968,-0.4964,0.0,0.0,0.0,0.0,0.0,0.0,0.0,0.0,0.0,0.0,0.0,0.0,0.0,0.0,0.0,0.0,0.0,0.0,0.0,0.1971,0.1814,0.1811,0.1854,0.1717,0.1384,0.138,0.1429,0.1562,0.1202,0.1098,0.1236,0.1332,0.1422,0.1486,0.1528,0.1351,0.1007,0.1007,0.0946,0.082,0.0,0.0,0.0,0.0,0.0,0.0,0.0,0.0,0.0,0.0,0.0,0.0,0.0,0.0,0.0,-0.0208,-0.0384,-0.0551,-0.0798,-0.0823,-0.0758,-0.0598,-0.0432,-0.0385,-0.059,-0.0893,-0.124,-0.1737,0.0,0.0,0.0,0.0,0.0,0.0,0.0,0.0,0.0,0.0,0.0,0.0,0.0,0.0,0.0,0.0,0.0,0.0,0.0,0.0,0.0,0.0,0.0,0.0,-0.5371,-0.5358,-0.5095,-0.501,-0.5141,-0.544,-0.5326,-0.5078,-0.4752,-0.4716,-0.4768,-0.4953,-0.5018,-0.5204,-0.5494,-0.5499,-0.546,-0.5327,-0.5327,-0.5146,-0.4924,-0.4703,-0.448,-0.43,0.0,0.0,0.0,0.0,0.0,0.0,0.0,0.0,0.0,0.0,0.0,0.0,0.0,0.0,0.0,0.0,0.0,0.0,0.0,0.2249,0.2173,0.2166,0.228,0.2025,0.132,0.1656,0.17,0.1411,0.1453,0.1393,0.1296,0.1561,0.1697,0.1789,0.1892,0.1724,0.1366,0.1366,0.1283,0.1161,0.1232,0.0,0.0,0.0,0.0,0.0,0.0,0.0,0.0,0.0,0.0,0.0,0.0,0.0,-0.0308,-0.0082,-0.0504,-0.0992,-0.0787,-0.0563,-0.0428,-0.0405,-0.0401,-0.0411,-0.0479,-0.0817,-0.1026,-0.0847,-0.132,0.0,0.0,0.0,0.0,0.0,0.0,0.0,0.0,0.0,0.0,0.0,0.0,0.0,0.0,0.0,0.0,0.0,0.0,0.0,0.0,0.0,0.0,0.0,0.0,-0.4865,-0.4813,-0.48,-0.489,-0.5031,-0.4858,-0.4724,-0.4714,-0.4624,-0.4765,-0.5087,-0.4901,-0.5029,-0.5384,-0.5149,-0.5055,-0.501,-0.501,-0.4924,-0.4703,-0.4433,-0.43,-0.43,0.0,0.0,0.0,0.0,0.0,0.0,0.0,0.0,0.0,0.0,0.0,0.0,0.0,0.0,0.0,0.0,0.0,0.0,0.0,0.2601,0.2469,0.2394,0.2602,0.2447,0.1876,0.2078,0.2259,0.233,0.2268,0.2145,0.1998,0.2295,0.24,0.2293,0.2209,0.2055,0.1829,0.1646,0.1598,0.1624,0.1614,0.1659,0.0,0.0,0.0,0.0,0.0,0.0,0.0,0.0,0.0218,0.0427,0.0496,0.0474,0.0382,0.0268,0.0054,-0.0191,-0.034,-0.0302,-0.0286,-0.0528,-0.0508,-0.0433,-0.0578,-0.0986,-0.1284,-0.1309,-0.175,0.0,0.0,0.0,0.0,0.0,0.0,0.0,0.0,0.0,0.0,0.0,0.0,0.0,0.0,0.0,0.0,0.0,0.0,0.0,0.0,0.0,0.0,0.0,0.0,-0.4781,-0.4784,-0.4621,-0.4632,-0.4771,-0.4655,-0.4594,-0.4487,-0.4444,-0.4565,-0.4849,-0.4761,-0.4874,-0.5144,-0.5055,-0.4921,-0.479,-0.461,-0.4523,-0.4433,-0.4344,-0.43,-0.43,0.0,0.0,0.0,0.0,0.0,0.0,0.0,0.0,0.0,0.0,0.0,0.0,0.0,0.0,0.0,0.0,0.0,0.0,0.3211,0.3062,0.292,0.2793,0.2952,0.2897,0.2586,0.2665,0.2781,0.2923,0.2897,0.2747,0.2571,0.2915,0.2911,0.2658,0.2514,0.2368,0.2211,0.2083,0.2053,0.213,0.211,0.212,0.0,0.0,0.0,0.0,0.0,0.0,0.0,0.0,0.044,0.0606,0.0587,0.0595,0.0577,0.043,0.0298,0.0163,-0.0028,-0.0206,-0.034,-0.0463,-0.0491,-0.0562,-0.0867,-0.1264,-0.1627,-0.1801,-0.2071,-0.2241,-0.2274,0.0,0.0,0.0,0.0,0.0,0.0,0.0,0.0,0.0,0.0,0.0,0.0,0.0,0.0,0.0,0.0,0.0,0.0,0.0,0.0,0.0,0.0,0.0,-0.4659,-0.4479,-0.4467,-0.4528,-0.4528,-0.4481,-0.4344,-0.4326,-0.4433,-0.4705,-0.4614,-0.4701,-0.4877,-0.4832,-0.4701,-0.4569,-0.4389,-0.43,-0.43,-0.43,-0.43,-0.43,0.0,0.0,0.0,0.0,0.0,0.0,0.0,0.0,0.0,0.0,0.0,0.0,0.0,0.0,0.0,0.0,0.0,0.0,0.3697,0.3641,0.3532,0.3399,0.3407,0.3394,0.3392,0.3406,0.3267,0.3013,0.3138,0.31,0.2907,0.3244,0.3189,0.2797,0.2795,0.2687,0.2522,0.2647,0.2652,0.2607,0.2744,0.269,0.2464,0.0,0.0,0.0,0.0,0.0,0.0,0.0,0.0586,0.0609,0.0606,0.0327,0.0056,0.0336,0.0112,-0.014,0.014,-0.0294,-0.0649,-0.0124,-0.0337,-0.0813,-0.1279,-0.1718,-0.2016,-0.215,-0.2065,-0.2068,-0.2518,0.0,0.0,0.0,0.0,0.0,0.0,0.0,0.0,0.0,0.0,0.0,0.0,0.0,0.0,0.0,0.0,0.0,0.0,0.0,0.0,0.0,0.0,0.0,-0.4388,-0.4388,-0.4388,-0.4388,-0.4388,-0.4342,-0.43,-0.43,-0.4433,-0.4661,-0.4433,-0.4433,-0.4661,-0.4389,-0.43,-0.43,-0.43,-0.43,-0.43,-0.43,-0.43,-0.43,0.0,0.0,0.0,0.0,0.0,0.0,0.0,0.0,0.0,0.0,0.0,0.0,0.0,0.0,0.0,0.0,0.0,0.0,0.37,0.377,0.3727,0.3552,0.3756,0.3684,0.3275,0.3398,0.342,0.3339,0.3379,0.3433,0.3465,0.3506,0.3428,0.3224,0.2933,0.2841,0.2898,0.2724,0.2844,0.3144,0.2843,0.2682,0.2568,0.0,0.0,0.0,0.0,0.0,0.0,0.0,0.0,0.0,0.0492,0.0473,0.0533,0.0701,0.0513,0.0232,0.0203,0.0185,0.0,-0.0394,0.0,0.0,0.0,-0.1049,-0.1198,0.0,-0.2247,-0.2618,-0.2104,0.0,0.0,0.0,0.0,0.0,0.0,0.0,0.0,0.0,0.0,0.0,0.0,0.0,0.0,0.0,0.0,0.0,0.0,0.0,0.0,0.0,0.0,0.0,-0.4388,-0.4371,-0.4371,-0.4388,-0.4371,-0.4324,-0.43,-0.43,-0.4344,-0.4433,-0.4344,-0.4344,-0.4433,-0.4344,-0.43,-0.43,-0.43,-0.43,-0.43,-0.43,-0.43,-0.43,0.0,0.0,0.0,0.0,0.0,0.0,0.0,0.0,0.0,0.0,0.4539,0.4473,0.0,0.0,0.0,0.0,0.0,0.0,0.0,0.4144,0.4101,0.3995,0.4115,0.398,0.3569,0.3639,0.3691,0.3712,0.3711,0.3737,0.3806,0.3735,0.3627,0.3547,0.3123,0.3021,0.3211,0.3118,0.3229,0.3479,0.336,0.3124,0.2796,0.0,0.0,0.0,0.0,0.0,0.0,0.0,0.0,0.0,0.0387,0.0449,0.0589,0.0673,0.0512,0.0348,0.044,0.0407,0.0,0.0067,0.0327,0.0475,0.0,0.0,0.0,0.0,0.0,0.0,0.0,0.0,0.0,0.0,0.0,0.0,0.0,0.0,0.0,0.0,0.0,0.0,0.0,0.0,0.0,0.0,0.0,0.0,0.0,0.0,0.0,0.0,0.0,0.0,-0.4381,-0.4326,-0.4326,-0.4381,-0.4324,-0.43,-0.43,-0.43,-0.43,-0.43,-0.43,-0.43,-0.43,-0.43,-0.43,-0.43,-0.43,-0.43,-0.43,-0.43,-0.43,-0.43,0.0,0.0,0.0,0.0,0.0,0.0,0.0,0.0,0.0,0.0,0.4574,0.4596,0.0,0.0,0.0,0.0,0.0,0.0,0.0,0.4609,0.4539,0.4618,0.4425,0.4264,0.4148,0.4056,0.4003,0.4003,0.3987,0.3994,0.4006,0.3872,0.3809,0.3769,0.3325,0.3249,0.3457,0.3691,0.3752,0.3683,0.4033,0.3747,0.3105,0.28,0.0,0.0,0.0,0.0,0.0,0.0,0.0,0.0,0.033,0.028,0.0393,0.0393,0.0309,0.0284,0.0733,0.0465,0.0,0.0908,0.0822,0.0,0.0885,-0.0277,0.0,0.0,0.0,0.0,0.0,0.0,0.0,0.0,0.0,0.0,0.0,0.0,0.0,0.0,0.0,0.0,0.0,0.0,0.0,0.0,0.0,0.0,0.0,0.0,0.0,0.0,0.0,0.0,-0.43,-0.43,-0.43,0.0,-0.43,-0.4295,-0.4287,-0.4295,-0.43,-0.43,-0.43,-0.43,-0.43,-0.43,-0.43,-0.43,-0.43,-0.43,-0.43,-0.43,-0.43,-0.43,0.0,0.0,0.0,0.0,0.0,0.0,0.0,0.0,0.0,0.0,0.0,0.0,0.0,0.0,0.0,0.0,0.0,0.0,0.0,0.4596,0.4622,0.4757,0.4561,0.4451,0.4408,0.4198,0.4036,0.3919,0.3986,0.4,0.4006,0.3872,0.3809,0.3796,0.3466,0.3488,0.371,0.3784,0.3913,0.4062,0.4039,0.3747,0.3274,0.2745,0.2313,0.0,0.0,0.0,0.0,0.0,0.0,0.0,0.047,0.0308,0.0252,0.0252,0.0228,0.0235,0.0333,0.0519,0.0,0.0,0.0932,0.0889,-0.0089,-0.032,0.0,0.0,0.0,0.0,0.0,0.0,0.0,0.0,0.0,0.0,0.0,0.0,0.0,0.0,0.0,0.0,0.0,0.0,0.0,0.0,0.0,0.0,0.0,0.0,0.0,0.0,0.0,-0.43,-0.43,-0.43,-0.43,0.0,-0.43,-0.4265,-0.4202,-0.4269,-0.43,-0.43,-0.43,-0.43,-0.43,-0.43,-0.43,-0.43,-0.43,-0.43,-0.43,-0.43,-0.43,-0.43,0.0,0.0,0.0,0.0,0.0,0.0,0.0,0.0,0.0,0.0,0.0,0.0,0.0,0.0,0.0,0.0,0.0,0.0,0.0,0.0,0.4639,0.4709,0.4692,0.4638,0.4504,0.4302,0.421,0.4225,0.4197,0.416,0.409,0.4027,0.4053,0.4128,0.3691,0.3676,0.3987,0.4089,0.4158,0.4219,0.4403,0.4051,0.3357,0.2938,0.2462,0.1955,0.1649,0.0,0.0,0.0,0.0,0.0,0.0,0.0,0.028,0.0224,0.0114,0.0058,0.0359,0.0,0.0,0.0891,0.0,0.1174,0.0612,0.0,0.0,0.0,0.0,0.0,0.0,0.0,0.0,0.0,0.0,0.0,0.0,0.0,0.0,0.0,0.0,0.0,0.0,0.0,0.0,0.0,0.0,0.0,0.0,0.0,0.0,0.0,-0.4148,-0.4173,-0.4173,-0.4173,-0.4173,-0.4173,-0.4173,-0.4148,-0.411,-0.4197,-0.4238,-0.424,-0.4281,-0.43,-0.4295,-0.4255,-0.4263,-0.4295,-0.4255,-0.4289,-0.4359,-0.4314,-0.4326,-0.4357,0.0,0.0,0.0,0.0,0.0,0.0,0.0,0.0,0.0,0.0,0.0,0.0,0.0,0.0,0.0,0.0,0.0,0.0,0.0,0.0,0.0,0.4644,0.4829,0.4783,0.446,0.4397,0.4439,0.4571,0.4535,0.4457,0.4318,0.4269,0.4362,0.4504,0.4001,0.3998,0.4325,0.4562,0.4565,0.4444,0.494,0.4489,0.3526,0.3299,0.2763,0.209,0.1924,0.1584,0.117,0.1037,0.0,0.0,0.0,0.0,0.0364,0.0196,0.0,-0.0057,0.0409,0.0,0.0571,0.1139,0.1272,0.0,0.1447,0.0,0.0,0.0,0.0,0.0,0.0,0.0,0.0,0.0,0.0,0.0,0.0,0.0,0.0,0.0,0.0,0.0,0.0,0.0,0.0,0.0,0.0,0.0,0.0,0.0,-0.393,-0.393,-0.3974,-0.4025,-0.4039,-0.4039,-0.4039,-0.4039,-0.4008,-0.3901,-0.3762,-0.4047,-0.4134,-0.4153,-0.4224,-0.4253,-0.4249,-0.4177,-0.42,-0.4271,-0.4243,-0.4182,-0.4173,-0.4281,-0.4211,-0.4171,0.0,0.0,0.0,0.0,0.0,0.0,0.0,0.0,0.0,0.0,0.4257,0.0,0.0,0.0,0.0,0.0,0.0,0.0,0.0,0.0,0.0,0.4877,0.5,0.4829,0.4346,0.4536,0.4585,0.4427,0.4806,0.494,0.4814,0.4577,0.4521,0.4667,0.4588,0.4632,0.4822,0.5155,0.5269,0.5255,0.5514,0.5022,0.4131,0.3816,0.321,0.2485,0.2164,0.1864,0.1597,0.1402,0.1203,0.0,0.0,0.0,0.0336,-0.0028,-0.0084,-0.0028,0.0,0.0,0.0683,0.0,0.1241,0.1112,0.0,0.0,0.0,0.0,0.0,0.0,0.0,0.0,0.0,0.0,0.0,0.0,0.0,0.0,0.0,0.0,0.0,0.0,0.0,0.0,0.0,0.0,0.0,0.0,0.0,-0.3545,-0.3545,-0.3545,-0.398,-0.4189,-0.4263,-0.4265,-0.4265,-0.4263,-0.4065,-0.3575,-0.2811,-0.36,-0.3979,-0.4012,-0.4025,-0.4029,-0.4029,-0.4017,-0.4108,-0.4233,-0.422,-0.3747,-0.3193,-0.3989,-0.3814,-0.3193,0.0,0.0,0.0,0.0,0.0,0.0,0.0,0.0,0.0,0.0,0.0,0.4614,0.0,0.0,0.0,0.0,0.0,0.0,0.0,0.0,0.0,0.4963,0.5151,0.5038,0.4536,0.456,0.4629,0.4742,0.4803,0.498,0.5298,0.5089,0.5037,0.5107,0.5206,0.5335,0.5484,0.5665,0.5708,0.5706,0.5817,0.5136,0.4022,0.4154,0.3488,0.2477,0.2488,0.2206,0.1764,0.1532,0.1298,0.101,0.0561,0.0,0.0,0.0,-0.014,-0.0198,-0.0117,0.0311,0.0766,0.0,0.1184,0.1162,0.0,0.0,0.0,0.0,0.0,0.0,0.0,0.0,0.0,0.0,0.0,0.0,0.0,0.0,0.0,0.0,0.0,0.0,0.0,0.0,0.0,0.0,0.0,0.0,-0.2924,-0.2993,-0.2997,-0.2958,-0.3121,-0.3095,-0.279,-0.2914,-0.2748,-0.2413,-0.2203,-0.2089,-0.2029,-0.2029,-0.2458,-0.3256,-0.3762,-0.3725,-0.3248,-0.3249,-0.3276,-0.3299,-0.2779,-0.3034,-0.3673,-0.3539,-0.361,-0.3777,0.0,0.0,0.0,0.0,0.0,0.0,0.0,0.0,0.0,0.0,0.0,0.0,0.0,0.0,0.0,0.0,0.0,0.0,0.0,0.0,0.0,0.509,0.5256,0.5164,0.4727,0.4617,0.4732,0.5031,0.486,0.5031,0.5558,0.556,0.5569,0.5529,0.5723,0.5872,0.5994,0.6125,0.6125,0.6025,0.5915,0.5129,0.4012,0.4135,0.3446,0.2482,0.2588,0.2335,0.1875,0.161,0.1343,0.105,0.0619,0.0477,0.0,0.0,0.0,0.0,0.0,0.0,0.061,0.0949,0.1051,0.1082,0.0,0.0,0.0,0.0,0.0,0.0,0.0,0.0,0.0,0.0,0.0,0.0,0.0,0.0,0.0,0.0,0.0,0.0,0.0,0.0,0.0,0.0,0.0,0.0,-0.2362,-0.2394,-0.2396,-0.2393,-0.2328,-0.2097,-0.1661,-0.163,-0.1391,-0.0869,-0.0711,-0.0788,-0.1019,-0.0744,-0.1028,-0.185,-0.2744,-0.2801,-0.2258,-0.2178,-0.2242,-0.2299,-0.1812,-0.2405,-0.3534,-0.3295,-0.3559,-0.4025,0.0,0.0,0.0,0.0,0.0,0.0,0.0,0.0,0.0,0.0,0.0,0.0,0.5269,0.5349,0.5426,0.5491,0.5437,0.0,0.0,0.0,0.0,0.5284,0.531,0.0,0.4792,0.478,0.4898,0.5094,0.5202,0.5317,0.5422,0.5858,0.5996,0.5884,0.608,0.6191,0.6199,0.6527,0.6564,0.6322,0.5762,0.5126,0.446,0.3599,0.2974,0.2571,0.2316,0.2124,0.1937,0.1598,0.1356,0.114,0.0793,0.0673,0.0,0.0,0.0,0.0,0.0,-0.0059,0.0,0.0651,0.0,0.0,0.0,0.0,0.0,0.0,0.0,0.0,0.0,0.0,0.0,0.0,0.0,0.0,0.0,0.0,0.0,0.0,0.0,0.0,0.0,0.0,0.0,0.0,0.0,0.0,-0.2005,-0.1962,-0.1962,-0.2038,-0.1843,-0.1743,-0.1783,-0.124,-0.0909,-0.0808,-0.0808,-0.036,0.047,-0.0274,-0.0235,0.0392,-0.0432,-0.0876,-0.0978,-0.0976,-0.1127,-0.143,-0.2247,-0.2114,-0.1741,-0.3505,-0.3661,-0.3096,0.0,0.0,0.0,0.0,0.0,0.0,0.0,0.0,0.0,0.0,0.0,0.0,0.0,0.623,0.6262,0.6217,0.6064,0.0,0.0,0.0,0.0,0.5761,0.554,0.5362,0.5263,0.5044,0.5027,0.5219,0.5271,0.5441,0.5739,0.5847,0.6018,0.6222,0.6436,0.6576,0.6646,0.6778,0.695,0.7037,0.6065,0.528,0.4653,0.4684,0.3719,0.0,0.0,0.0,0.0,0.2157,0.1928,0.1659,0.1314,0.0,0.0,0.0,0.0,0.0,0.0,0.0,0.0,0.0556,0.0684,0.0,0.0,0.0,0.0,0.0,0.0,0.0,0.0,0.0,0.0,0.0,0.0,0.0,0.0,0.0,0.0,0.0,0.0,0.0,0.0,0.0,0.0,0.0,0.0,0.0,-0.0451,-0.0352,-0.0353,-0.045,-0.0345,-0.0193,0.0076,0.0803,0.1118,0.1047,0.1202,0.1245,0.1254,0.1332,0.1332,0.1254,0.1332,0.0921,0.0207,0.0207,0.0169,0.0087,-0.0129,-0.0772,-0.1587,-0.2131,-0.2542,-0.2891,0.0,0.0,0.0,0.0,0.0,0.0,0.0,0.0,0.0,0.6316,0.0,0.0,0.0,0.0,0.6639,0.6547,0.6502,0.6448,0.6292,0.625,0.6191,0.6082,0.5878,0.5712,0.5597,0.5388,0.5336,0.5469,0.5436,0.5614,0.5973,0.6029,0.6176,0.6341,0.6653,0.6831,0.6907,0.7176,0.7419,0.7534,0.6158,0.5527,0.5355,0.0,0.0,0.0,0.0,0.0,0.0,0.0,0.0,0.0,0.0,0.0,0.0,0.0,0.0,0.0,0.0449,0.0,0.0,0.0,0.0,0.0,0.0,0.0,0.0,0.0,0.0,0.0,0.0,0.0,0.0,0.0,0.0,0.0,0.0,0.0,0.0,0.0,0.0,0.0,0.0,0.0,0.0,0.0,0.0,0.0,0.0428,0.0526,0.0608,0.073,0.0772,0.1029,0.1495,0.2042,0.2245,0.2171,0.2318,0.2194,0.1897,0.2285,0.2256,0.1921,0.2314,0.2045,0.1288,0.1288,0.1263,0.1245,0.1065,0.0084,-0.1215,-0.1374,-0.2022,-0.2788,0.0,0.0,0.0,0.0,0.0,0.0,0.0,0.0,0.6519,0.6868,0.0,0.0,0.0,0.0,0.0,0.6423,0.6722,0.6776,0.6436,0.6598,0.6539,0.6236,0.0,0.0,0.5827,0.5814,0.5814,0.5795,0.5752,0.5853,0.61,0.6432,0.6445,0.6222,0.6773,0.6996,0.6968,0.7774,0.8038,0.7744,0.0,0.5836,0.6474,0.0,0.0,0.0,0.4357,0.3783,0.0,0.0,0.0,0.0,0.0,0.0,0.0,0.0,0.0,0.0,0.0,0.0,0.0,0.0,0.0,0.0,0.0,0.0,0.0,0.0,0.0,0.0,0.0,0.0,0.0,0.0,0.0,0.0,0.0,0.0,0.0,0.0,0.0,0.0,0.0,0.0,0.0,0.0,0.0,0.0463,0.0539,0.0552,0.0814,0.1419,0.142,0.1702,0.2293,0.2293,0.2295,0.2296,0.2296,0.2327,0.2382,0.2382,0.2452,0.2511,0.2511,0.2385,0.2192,0.2193,0.2141,0.1929,0.1065,0.0288,-0.046,-0.1309,-0.21,-0.274,0.0,0.0,0.0,0.0,0.0,0.0,0.6865,0.6782,0.6776,0.0,0.0,0.0,0.7446,0.7416,0.7332,0.7156,0.7119,0.7024,0.6776,0.6576,0.6544,0.6712,0.6225,0.6037,0.6223,0.6086,0.5978,0.595,0.6214,0.6264,0.611,0.6436,0.6494,0.639,0.722,0.7472,0.7367,0.7712,0.0,0.8092,0.6136,0.5606,0.0,0.0,0.0,0.0,0.0,0.3864,0.36,0.0,0.3042,0.3761,0.0,0.0,0.0,0.0,0.0,0.0,0.0954,0.0,0.0,0.0,0.0,0.0,0.0,0.0,0.0,0.0,0.0,0.0,0.0,0.0,0.0,0.0,0.0,0.0,0.0,0.0,0.0,0.0,0.0,0.0,0.0,0.0,0.0,0.0,0.1082,0.1318,0.172,0.1728,0.1793,0.1983,0.1968,0.205,0.2239,0.2239,0.2226,0.2234,0.2234,0.2285,0.2382,0.2382,0.2452,0.2511,0.2511,0.2481,0.2419,0.2462,0.2513,0.2434,0.1721,0.1304,0.1022,0.024,-0.0483,-0.0984,0.0,0.0,0.0,0.0,0.0,0.7184,0.7116,0.7146,0.721,0.0,0.0,0.0,0.7802,0.7939,0.7887,0.7589,0.7562,0.7469,0.7284,0.6989,0.691,0.7103,0.6582,0.6368,0.6517,0.6449,0.6384,0.6346,0.6563,0.6662,0.6639,0.6869,0.6986,0.7015,0.7635,0.7775,0.757,0.799,0.0,0.0,0.6396,0.0,0.0,0.459,0.3637,0.0,0.0,0.0,0.3566,0.2638,0.3055,0.0,0.0,0.0,0.0,0.0,0.0,0.0,0.1351,0.0996,0.0,0.0,0.0,0.0,0.0,0.093,0.0,0.0,0.0,0.0,0.0,0.0,0.0,0.0,0.0,0.0,0.0,0.0,0.0,0.0,0.0,0.0,0.0,0.0,0.0,0.0,0.1713,0.188,0.219,0.2188,0.2204,0.2206,0.2206,0.2188,0.2188,0.2188,0.2206,0.2207,0.2207,0.2256,0.2311,0.2335,0.2379,0.2474,0.2499,0.2511,0.2514,0.2549,0.2585,0.2571,0.2174,0.1881,0.1598,0.1183,0.0594,0.008,0.0,0.0,0.0,0.6797,0.6865,0.6951,0.7181,0.7446,0.7721,0.0,0.8122,0.8198,0.8192,0.8231,0.8155,0.7898,0.7925,0.7908,0.7801,0.7549,0.7403,0.7403,0.7146,0.6936,0.681,0.6852,0.6865,0.6873,0.6919,0.7078,0.7377,0.7522,0.7639,0.7743,0.8047,0.7977,0.7696,0.0,0.0,0.8891,0.6792,0.6588,0.0,0.0,0.4277,0.0,0.403,0.3651,0.3251,0.2664,0.2744,0.0,0.0,0.0,0.0,0.0,0.2718,0.0,0.1793,0.1467,0.1221,0.0,0.0,0.0,0.0888,0.1002,0.0,0.0,0.0,0.0,0.0,0.0,0.0,0.0,0.0,0.0,0.0,0.0,0.0,0.0,0.0,0.0,0.0,0.0,0.217,0.2177,0.2183,0.2188,0.2188,0.2188,0.219,0.2197,0.2197,0.2197,0.2197,0.2197,0.2195,0.2188,0.2195,0.2196,0.2221,0.2275,0.2332,0.2432,0.248,0.2504,0.2511,0.2511,0.2511,0.2511,0.2511,0.2156,0.1685,0.1685,0.1294,0.0709,0.0,0.0,0.0,0.7488,0.781,0.8039,0.7906,0.7928,0.7921,0.7918,0.8172,0.8474,0.8719,0.8375,0.8198,0.8351,0.7908,0.7652,0.7801,0.7546,0.7436,0.7471,0.7229,0.7185,0.7409,0.7397,0.7329,0.7284,0.7599,0.7548,0.7161,0.7848,0.7855,0.7367,0.8195,0.8384,0.8037,0.0,0.0,0.7648,0.7402,0.0,0.6483,0.4809,0.357,0.2698,0.2596,0.3054,0.3751,0.0,0.3862,0.3658,0.0,0.0,0.0,0.0,0.0,0.0,0.0,0.0,0.0,0.0,0.0,0.0,0.0395,0.0627,0.0,0.0,0.0,0.0,0.0,0.0,0.0,0.0,0.0,0.0,0.0,0.0,0.0,0.0,0.0,0.0,0.0,0.0,0.206,0.2109,0.2159,0.2188,0.2188,0.2188,0.221,0.219,0.2193,0.2193,0.2193,0.2193,0.2202,0.2188,0.2203,0.2224,0.2281,0.2293,0.2355,0.2491,0.2452,0.2465,0.2511,0.2511,0.2511,0.2511,0.2511,0.2431,0.2314,0.2314,0.1921,0.1491,0.0,0.0,0.0,0.7339,0.765,0.7903,0.7951,0.8048,0.817,0.8423,0.8607,0.8843,0.9248,0.8969,0.8803,0.8969,0.8511,0.8247,0.8339,0.794,0.7756,0.7894,0.7688,0.7622,0.7752,0.7742,0.771,0.7648,0.7852,0.7902,0.7798,0.8154,0.7962,0.7398,0.8418,0.8505,0.0,0.0,0.9014,0.8663,0.7282,0.0,0.5095,0.3725,0.2787,0.2188,0.2188,0.2534,0.31,0.3805,0.4044,0.0,0.0,0.3898,0.3756,0.0,0.3024,0.2534,0.0,0.0,0.0,0.1357,0.0,0.0,0.0,0.0784,0.0764,0.0,0.0,0.0,0.0,0.0,0.0,0.0,0.0,0.0,0.0,0.0,0.0,0.0,0.0,0.0,0.0,0.0,0.2016,0.2046,0.2106,0.2142,0.2142,0.2171,0.2201,0.2199,0.2194,0.2196,0.22,0.2194,0.2214,0.2188,0.2184,0.2215,0.2247,0.2241,0.2303,0.2385,0.2383,0.2454,0.2511,0.2511,0.2511,0.2511,0.2511,0.2511,0.2511,0.2511,0.2314,0.2078,0.7345,0.0,0.0,0.0,0.7268,0.7592,0.7868,0.8108,0.8483,0.9062,0.8898,0.8929,0.9327,0.8867,0.8593,0.8776,0.8398,0.8284,0.8548,0.8078,0.787,0.7981,0.8122,0.8055,0.7775,0.81,0.82,0.8141,0.8149,0.8318,0.8679,0.8559,0.8312,0.7916,0.8475,0.85,0.8121,0.0,0.0,0.9264,0.0,0.5588,0.4889,0.353,0.2846,0.261,0.2435,0.2488,0.2746,0.3606,0.0,0.4644,0.4488,0.4529,0.0,0.0,0.0,0.0,0.0,0.0,0.0,0.0,0.0,0.1182,0.0,0.0,0.0,0.1087,0.0,0.0,0.0,0.0,0.0,0.0,0.0,0.0,0.0,0.0,0.0,0.0,0.0,0.0,0.0,0.0,0.1906,0.1986,0.199,0.2031,0.2095,0.2143,0.2181,0.2204,0.2196,0.2204,0.2224,0.2202,0.2197,0.2206,0.2206,0.2206,0.2207,0.2187,0.2248,0.2316,0.2351,0.2444,0.2511,0.2511,0.2511,0.2511,0.2511,0.2511,0.2511,0.2511,0.2511,0.2512,0.6829,0.705,0.0,0.0,0.0,0.0,0.8273,0.8468,0.8806,0.9526,0.8594,0.7942,0.8238,0.6559,0.5654,0.6242,0.0,0.0,0.7232,0.0,0.7044,0.6899,0.8122,0.8334,0.7382,0.8528,0.9108,0.898,0.9023,0.9155,0.9281,0.9276,0.9318,0.9305,0.8232,0.0,0.0,0.0,0.7556,0.0,0.6833,0.7556,0.0,0.6568,0.5166,0.4052,0.3335,0.3518,0.4154,0.0,0.5454,0.5972,0.0,0.5189,0.0,0.0,0.0,0.0,0.0,0.0,0.0,0.0,0.2049,0.0,0.0,0.0,0.0931,0.0861,0.0,0.0,0.0,0.0,0.0,0.0,0.0,0.0,0.0,0.0,0.0,0.0,0.0,0.0,0.0,0.0,0.0,0.1895,0.1684,0.174,0.2095,0.2102,0.2123,0.2196,0.2257,0.2285,0.2279,0.2285,0.2259,0.22,0.22,0.22,0.22,0.2206,0.2269,0.237,0.2327,0.2371,0.2511,0.2511,0.2511,0.2511,0.2511,0.2511,0.2511,0.2511,0.2511,0.2518,0.7466,0.746,0.0,0.0,0.0,0.0,0.0,0.9416,0.9882,1.0166,0.9563,0.9154,0.0,0.0,0.0,0.0,0.0,0.7041,0.0,0.0,0.7784,0.858,0.0,0.0,0.0,0.9648,0.9898,0.9552,0.9586,0.9686,0.9793,0.973,0.9439,0.8926,0.8278,0.0,0.7876,0.0,0.7253,0.0,0.0,0.0,0.0,0.5853,0.4501,0.4032,0.3609,0.3896,0.4637,0.0,0.6238,0.0,0.0,0.0,0.0,0.0,0.0,0.0,0.0,0.0,0.0,0.0,0.0,0.0,0.0,0.0,0.1278,0.0,0.0,0.0,0.0,0.0,0.0,0.0,0.0,0.0,0.0,0.0,0.0,0.0,0.0,0.0,0.0,0.0,0.0,0.0,0.0,0.1804,0.1988,0.2056,0.212,0.2138,0.2232,0.2373,0.254,0.2404,0.2409,0.2557,0.2314,0.2228,0.226,0.2225,0.2272,0.2381,0.2356,0.2394,0.2511,0.2511,0.2511,0.2511,0.2511,0.2511,0.2511,0.2511,0.2533,0.2567,0.8258,0.0,0.0,0.0,0.0,0.0,0.0,0.0,0.0,0.0,0.0,0.0,1.0175,0.9509,0.0,0.0,0.698,0.6881,0.0,0.0,0.7731,0.0,0.0,0.0,0.0,0.0,1.046,1.0044,1.0112,1.0197,1.0272,1.0106,0.9712,0.9134,0.0,0.795,0.7211,0.0,0.0,0.7849,0.6746,0.6924,0.7518,0.5004,0.406,0.4071,0.4113,0.4553,0.5326,0.6603,0.7135,0.0,0.7147,0.0,0.0,0.0,0.0,0.0,0.5084,0.0,0.0,0.0,0.0,0.0,0.0,0.0,0.0,0.0,0.0,0.0,0.0,0.0,0.0,0.0,0.0,0.0,0.0,0.0,0.0,0.0,0.0,0.0,0.0,0.0,0.0,0.0,0.0,0.0,0.1882,0.2012,0.2077,0.2095,0.2223,0.2373,0.2551,0.243,0.2463,0.2654,0.2357,0.2232,0.2272,0.2212,0.2249,0.2359,0.2359,0.244,0.2511,0.2511,0.2511,0.2512,0.2529,0.2535,0.2535,0.2535,0.2574,0.2628,0.8998,0.8549,0.0,0.0,0.0,0.0,0.0,0.0,0.0,0.0,0.0,0.0,0.0,0.0,0.0,0.0,0.0,0.4006,0.5042,0.0,0.6048,0.0,0.0,0.9312,0.0,0.0,0.0,0.0,1.0646,1.0745,1.0665,1.0424,1.0472,1.075,0.9187,0.8553,0.858,0.7601,0.6443,0.5347,0.5692,0.5328,0.4611,0.0,0.486,0.456,0.5287,0.0,0.0,0.7915,0.836,0.0,0.0,0.0,0.0,0.0,0.0,0.0,0.0,0.0,0.0,0.4627,0.0,0.0,0.0,0.0,0.2656,0.0,0.0,0.0,0.0,0.0,0.0855,0.0708,0.0,0.0,0.0,0.0,0.0,0.0,0.0,0.0,0.0,0.0,0.0,0.0,0.0,0.0,0.1882,0.197,0.2034,0.2094,0.2183,0.221,0.2206,0.2271,0.23,0.2331,0.2237,0.221,0.221,0.2184,0.2223,0.2301,0.2301,0.2366,0.2511,0.2511,0.2511,0.2516,0.2575,0.2598,0.2598,0.2598,0.2636,0.2698,0.0,0.0,0.0,0.0,0.0,0.0,0.0,1.1896,0.0,0.0,0.0,0.0,0.0,0.0,0.7335,0.0,0.0,0.5651,0.5952,0.7121,0.0,0.0,0.0,1.0955,0.0,0.0,0.0,0.0,0.0,1.1249,1.1346,1.0895,1.0944,1.13,0.0,0.8385,0.0,0.0,0.0,0.0,0.0,0.6019,0.6024,0.0,0.0,0.5146,0.5638,0.621,0.0,0.8043,0.8494,0.8595,0.8531,0.8399,0.8256,0.8003,0.7538,0.0,0.0,0.0,0.62,0.5117,0.0,0.0,0.0,0.0,0.0,0.0,0.0,0.0,0.0,0.0,0.1284,0.0998,0.0605,0.029,0.0,0.0,0.0,0.0,0.0,0.0,0.0,0.0,0.0,0.0,0.0,0.0,0.0,0.1948,0.2013,0.2034,0.2126,0.2293,0.2523,0.2429,0.2482,0.2698,0.2462,0.2344,0.2381,0.2357,0.2373,0.2451,0.2451,0.2474,0.2511,0.2511,0.2511,0.2516,0.2578,0.283,0.3068,0.2738,0.2873,0.3275,0.9803,0.0,0.0,0.0,0.0,0.0,0.0,0.0,0.0,0.0,1.0927,0.0,0.9027,0.0,0.8026,0.0,0.6411,0.639,0.6737,0.7451,0.0,0.8067,1.0066,0.0,0.0,0.0,0.0,0.0,0.0,1.179,1.1828,1.1411,1.1406,1.1688,0.0,0.8885,0.7115,0.0,0.5656,0.0,0.0,0.5727,0.0,0.0,0.4956,0.6837,0.0,0.6824,0.7626,0.8282,0.8605,0.8693,0.8559,0.861,0.8654,0.8406,0.8161,0.7801,0.6938,0.7009,0.0,0.5512,0.551,0.0,0.5291,0.0,0.0,0.0,0.0,0.0,0.0,0.0,0.177,0.1484,0.1018,0.0617,0.0,0.0086,0.0,0.0,0.0,0.0,0.0,0.0,0.0,0.1767,0.1705,0.0,0.0,0.0,0.2002,0.2002,0.2128,0.2295,0.252,0.2417,0.2482,0.2698,0.2503,0.244,0.2476,0.2566,0.2572,0.2478,0.2633,0.2685,0.2707,0.2707,0.2707,0.2752,0.298,0.3213,0.3357,0.3045,0.3279,0.3827,0.0,0.0,0.0,0.0,1.1884,0.0,0.0,0.0,1.2838,0.0,1.121,1.0828,0.9596,0.853,0.7711,0.7227,0.622,0.0,0.7108,0.6851,0.0,0.0,0.8042,0.7865,0.6704,0.0,0.0,0.0,0.0,0.0,1.2132,1.1952,1.1915,1.2023,1.1744,0.0,0.724,0.7811,0.6369,0.3793,0.4267,0.4472,0.456,0.4467,0.0,0.9373,0.7549,0.7629,0.8627,0.8661,0.8703,0.8703,0.8703,0.8703,0.8703,0.8703,0.8703,0.8475,0.7488,0.768,0.7711,0.5924,0.0,0.0,0.0,0.0,0.4809,0.0,0.0,0.0,0.0,0.0,0.0,0.2087,0.1632,0.1094,0.0505,0.0,0.0,0.0,0.0,0.0,0.0,0.0,0.1065,0.2888,0.1971,0.174,0.0,0.0,0.2005,0.2034,0.2155,0.2188,0.2188,0.2275,0.2299,0.23,0.2358,0.2424,0.2422,0.2809,0.2779,0.2462,0.288,0.3074,0.3141,0.3141,0.3141,0.3187,0.3708,0.3716,0.3505,0.3538,0.3915,0.4338,1.1009,1.1691,1.2318,0.0,1.2582,1.2927,0.0,0.0,0.0,0.0,0.9571,0.8449,0.7355,0.6958,0.6735,0.6636,0.6341,0.0,0.0,0.0,0.0,0.6228,0.8328,0.8662,0.6751,0.9565,0.0,1.0726,0.0,0.0,1.2923,1.2626,1.2478,1.249,0.0,0.0,0.7466,0.8099,0.6929,0.4663,0.4807,0.5648,0.0,0.0,0.6841,0.9373,0.7549,0.7096,0.7514,0.8394,0.8703,0.8703,0.8703,0.8703,0.8703,0.8703,0.8703,0.8551,0.7825,0.8093,0.8194,0.6663,0.6618,0.6721,0.0,0.0,0.0,0.0,0.0,0.0,0.0,0.0,0.0,0.283,0.1975,0.115,0.0,0.0,0.0,0.0,0.0,0.0,0.0,0.0,0.1717,0.2091,0.2021,0.2371,0.0,0.0,0.0,0.2649,0.2351,0.2188,0.2188,0.2275,0.2299,0.23,0.2401,0.2488,0.2486,0.2897,0.3016,0.2955,0.338,0.3587,0.3608,0.3608,0.3608,0.3661,0.3891,0.4217,0.4581,0.4608,0.4673,0.4816,1.1959,0.0,0.0,1.3445,0.0,0.0,1.3467,0.0,0.0,1.1005,0.9774,0.0,0.7415,0.6734,0.6387,0.6387,0.6387,0.0,0.0,0.0,0.0,0.6758,0.7638,0.7516,0.6166,0.8304,0.0,1.0257,0.0,0.0,1.3387,1.3072,1.2924,0.0,0.0,1.1267,0.0,0.8045,0.7071,0.5952,0.5252,0.0,0.0,0.5404,0.6245,0.7878,0.7157,0.7246,0.7783,0.847,0.8703,0.8703,0.8703,0.8703,0.8703,0.8703,0.8703,0.8508,0.7629,0.805,0.8318,0.671,0.6676,0.6907,0.6328,0.6186,0.6163,0.0,0.0,0.0,0.0,0.0,0.0,0.0,0.0,0.0,0.0,0.0,0.0,0.0,0.0,0.0,0.0,0.0,0.2497,0.2512,0.2327,0.2463,0.0,0.0,0.0,0.2419,0.2591,0.2532,0.2194,0.2458,0.252,0.2336,0.2621,0.2747,0.2787,0.3217,0.3413,0.3413,0.388,0.4075,0.4075,0.4075,0.4075,0.4093,0.4246,0.4643,0.519,0.5289,0.5286,0.5285,0.0,0.0,0.0,0.0,0.0,0.0,0.0,1.3769,0.0,1.1554,0.0,0.9538,0.8266,0.708,0.6387,0.6387,0.0,0.688,0.8067,0.6981,0.6753,0.7807,0.659,0.572,0.5416,0.6637,0.0,0.0,0.0,0.0,1.366,1.3495,0.0,0.0,0.0,0.0,0.0,0.783,0.6939,0.0,0.5765,0.5249,0.5249,0.5249,0.5631,0.6209,0.6826,0.7706,0.8585,0.8665,0.8703,0.8703,0.8703,0.8703,0.8703,0.8703,0.8703,0.847,0.7437,0.7936,0.8356,0.6591,0.6553,0.6903,0.6598,0.644,0.6433,0.6672,0.7018,0.7151,0.0,0.0,0.0,0.0,0.0,0.0,0.0,0.0,0.0,0.0,0.0,0.0,0.0,0.0,0.3084,0.327,0.2657,0.0,0.0,0.0,0.0,0.2241,0.3016,0.0,0.2395,0.0,0.2879,0.2508,0.2952,0.318,0.3217,0.3686,0.388,0.3919,0.4384,0.4577,0.4616,0.4693,0.4704,0.4621,0.4748,0.5045,0.542,0.5648,0.5688,0.5688,0.0,0.0,0.0,0.0,0.0,1.3958,1.3453,1.2249,1.1077,1.0278,0.8973,0.7723,0.683,0.6534,0.6387,0.6387,0.6387,0.0,0.0,0.0,0.0,0.6467,0.6636,0.6331,0.5418,0.7228,0.8594,0.0,0.0,0.0,1.4008,1.3966,0.0,0.0,0.0,0.0,0.9433,0.8027,0.0,0.6165,0.6461,0.6556,0.6556,0.6556,0.6938,0.7476,0.7591,0.7783,0.805,0.8546,0.8703,0.8703,0.8703,0.8703,0.8703,0.8703,0.8703,0.8661,0.8432,0.8784,0.8937,0.7744,0.7429,0.7161,0.6247,0.6665,0.7272,0.7349,0.8053,0.8491,0.7972,0.0,0.0,0.0,0.0,0.0,0.0,0.0,0.0,0.0,0.0,0.0,0.0,0.0,0.0,0.0,0.0,0.0,0.0,0.0,0.0,0.0,0.0,0.0,0.0,0.0,0.3362,0.2965,0.3444,0.3686,0.3686,0.4112,0.4307,0.4345,0.524,0.5628,0.5667,0.6244,0.6201,0.5774,0.5397,0.5347,0.5494,0.5637,0.5688,0.5688,0.0,0.0,0.0,0.0,0.0,0.0,0.0,1.2078,0.0,1.1019,0.9999,0.8958,0.817,0.7415,0.681,0.6429,0.6382,0.6374,0.6381,0.6387,0.6331,0.6094,0.6727,0.0,0.5874,0.7141,0.8582,1.0239,0.0,0.0,1.4309,1.4309,0.0,0.0,0.0,1.2548,0.0,0.0,0.0,0.7577,0.7087,0.6903,0.6903,0.6903,0.7284,0.7783,0.7783,0.8012,0.8318,0.8585,0.8703,0.8703,0.8703,0.8703,0.8742,0.8937,0.9013,0.8975,0.8889,0.9236,0.943,0.8623,0.8046,0.7625,0.7548,0.7587,0.7774,0.8194,0.8797,0.904,0.8244,0.7295,0.0,0.0,0.0,0.0,0.0,0.0,0.0,0.0,0.0,0.0,0.0,0.0,0.0,0.0,0.0,0.0,0.0,0.0,0.0,0.0,0.0,0.0,0.0,0.0,0.0,0.3452,0.3919,0.4112,0.4114,0.4307,0.4693,0.5201,0.5705,0.6093,0.644,0.6749,0.6758,0.6458,0.6031,0.611,0.6408,0.5882,0.5949,0.6213,0.0,1.5721,0.0,0.0,1.4178,0.0,1.321,1.223,1.1573,1.1692,1.1093,1.0342,0.9509,0.8458,0.7557,0.6974,0.6822,0.6801,0.6924,0.6857,0.6741,0.6564,0.7211,0.7274,0.6624,0.7156,0.8491,0.0,0.0,0.0,0.0,0.0,0.0,0.0,0.0,0.0,0.0,0.0,0.9185,0.8796,0.7706,0.7284,0.7284,0.7284,0.7591,0.7974,0.7974,0.828,0.8703,0.8703,0.8703,0.8703,0.8703,0.8742,0.8894,0.9208,0.9359,0.9397,0.9231,0.9609,0.9879,0.9344,0.8694,0.8313,0.8884,0.858,0.8351,0.8998,0.9395,0.9349,0.8431,0.787,0.0,0.0,0.0,0.0,0.0,0.0,0.0,0.0,0.0,0.0,0.0,0.0,0.0,0.0,0.0,0.0,0.0,0.0,0.0,0.0,0.0,0.5125,0.4462,0.0,0.4742,0.0,0.4742,0.4927,0.4927,0.4797,0.5266,0.6096,0.6126,0.6585,0.7284,0.713,0.7115,0.7102,0.6705,0.6833,0.7104,0.6259,0.6213,0.6476,0.0,0.0,0.0,0.0,0.0,0.0,0.0,1.2038,1.1323,1.0815,1.0331,0.9768,0.8973,0.8761,0.8658,0.8574,0.8425,0.8351,0.8563,0.8387,0.8229,0.811,0.8808,0.8692,0.7591,0.8035,0.8692,0.0,0.0,0.0,0.0,0.0,0.0,0.0,0.0,0.0,0.0,0.9887,0.922,0.7983,0.8374,0.8546,0.8546,0.8546,0.8546,0.8627,0.8627,0.8661,0.8703,0.8703,0.8703,0.8703,0.8703,0.8937,0.9246,0.9284,0.9544,0.9846,0.9803,1.0105,1.0331,0.9916,0.9604,0.9372,0.9074,0.9221,0.9442,0.9518,0.9871,0.9927,0.9219,0.9046,0.875,0.0,0.0,0.0,0.0,0.0,0.0,0.0,0.0,0.0,0.0,0.0,0.0,0.0,0.0,0.0,0.0,0.0,0.0,0.4959,0.0,0.541,0.5035,0.6108,0.0,0.6069,0.6461,0.6668,0.6637,0.6152,0.6258,0.6795,0.6863,0.7509,0.847,0.7936,0.7806,0.7947,0.7486,0.7024,0.6659,0.6681,0.6299,0.5774,0.0,0.0,0.0,0.0,0.0,0.0,0.0,1.1793,1.1392,1.117,1.0879,1.0408,0.962,0.9425,0.9254,0.8817,0.8668,0.8642,0.8814,0.8709,0.856,0.8301,0.8995,0.9018,0.8254,0.8804,0.9507,0.0,0.0,0.0,0.0,0.0,0.0,0.0,0.0,1.1016,0.9917,0.9575,0.9012,0.8356,0.8585,0.8703,0.8703,0.8703,0.8703,0.8703,0.8703,0.8703,0.8703,0.8703,0.8703,0.8703,0.8703,0.8975,0.9359,0.9582,0.9954,1.0331,1.055,1.0738,1.0812,1.0663,1.0212,0.9873,1.0207,1.0019,0.9906,1.0395,1.0619,1.0543,0.9956,0.9633,0.9299,0.0,0.0,0.0,0.0,0.0,0.0,0.0,0.0,0.0,0.0,0.0,0.0,0.0,0.0,0.0,0.0,0.0,0.0,0.5578,0.0,0.644,0.6554,0.6644,0.6687,0.6677,0.6813,0.6952,0.7085,0.6875,0.7122,0.7797,0.8083,0.8457,0.8844,0.8482,0.844,0.8603,0.8142,0.7871,0.7707,0.7034,0.6605,0.6302,1.4214,0.0,1.3573,0.0,1.2554,1.236,1.1806,1.1557,1.1425,1.1425,1.1288,1.0998,1.0413,1.0285,1.0012,0.9554,0.9352,0.9324,0.9505,0.9469,0.9304,0.9003,0.9457,0.0,0.9017,0.9376,0.9897,1.0433,1.1807,0.0,0.0,0.0,0.0,0.0,1.108,1.0548,0.994,0.9268,0.8902,0.8703,0.8703,0.8703,0.8703,0.8703,0.8703,0.8703,0.8703,0.878,0.8856,0.8856,0.897,0.9046,0.8894,0.9165,0.9544,0.9954,1.0368,1.0738,1.1037,1.1111,1.1111,1.1111,1.0663,1.04,1.0962,1.0663,1.0383,1.0861,1.1057,1.0954,1.0394,1.0014,0.9742,0.9531,0.0,0.0,0.0,0.0,0.0,0.0,0.0,0.61,0.5896,0.0,0.0,0.0,0.0,0.0,0.0,0.0,0.0,0.0,0.0,0.0,0.0,0.7256,0.7279,0.7437,0.7494,0.7583,0.774,0.7793,0.8036,0.8495,0.8918,0.9037,0.8976,0.8921,0.8973,0.9049,0.88,0.8535,0.824,0.7399,0.6823,0.6387,1.4022,1.3264,1.2454,1.1666,1.1515,1.152,1.152,1.134,1.1198,1.1198,1.1198,1.1194,1.1194,1.1194,1.1194,1.1194,1.1009,1.0981,1.1179,1.0961,1.0801,0.0,0.0,1.0422,0.9999,0.9748,0.9606,0.9606,0.0,0.0,1.0753,0.0,1.1869,1.0711,1.0973,1.0314,0.9034,0.8985,0.8902,0.8703,0.8703,0.8703,0.8703,0.8703,0.8703,0.8703,0.8703,0.8975,0.9284,0.9284,0.9544,0.9809,0.9435,0.9582,0.996,1.0368,1.0775,1.1074,1.1111,1.1111,1.1111,1.1111,1.1074,1.1074,1.1111,1.1074,1.1002,1.0743,1.093,1.0954,1.0394,1.0292,1.0153,0.977,0.0,0.0,0.0,0.0,0.0,0.0,0.7088,0.6866,0.6351,0.0,0.0,0.0,0.0,0.0,0.0,0.0,0.0,0.5902,0.6284,0.0,0.68,0.8037,0.8661,0.8665,0.8882,0.8981,0.899,0.9188,0.9022,0.8611,0.9082,0.9164,0.8999,0.9197,0.9277,0.9301,0.9517,0.8858,0.783,0.779,0.6915,0.5733,1.2646,1.2124,1.1589,1.1347,1.1298,1.1298,1.1298,1.1241,1.1194,1.1194,1.1194,1.1194,1.1194,1.1194,1.1194,0.0,1.1137,1.1127,0.0,1.1137,1.1009,1.0801,1.065,1.0493,1.0222,1.0004,0.9786,0.9602,0.0,0.0,0.0,1.1618,1.1144,0.9934,0.9893,0.9618,0.9178,0.9042,0.8902,0.8703,0.8703,0.8703,0.8703,0.8703,0.8703,0.8703,0.8703,0.8975,0.9284,0.9284,0.9582,0.9916,1.0067,1.0218,1.0331,1.0475,1.0775,1.1111,1.1111,1.1111,1.1111,1.1111,1.1111,1.1111,1.1111,1.1111,1.1087,1.1003,1.1051,1.1057,1.0894,1.0533,1.0257,1.0124,0.9551,0.0,0.0,0.0,0.0,0.0,0.0,0.769,0.0,0.7363,0.0,0.0,0.0,0.0,0.0,0.0,0.0,0.0,0.7096,0.0,0.8075,0.8374,0.8642,0.8921,0.8952,0.9131,0.9413,0.9658,0.9705,0.9536,0.9508,0.9465,0.9399,0.9319,0.9371,0.9507,0.9578,0.9163,0.8536,0.8536,0.7969,0.7132,1.2322,1.1878,1.1438,1.1243,1.1194,1.1194,1.1194,1.1194,1.1194,1.1194,1.1194,1.1194,1.1194,1.1194,0.0,1.1194,1.1194,1.1194,1.1194,1.1194,1.1066,1.0787,1.0692,1.0488,1.0203,0.0,0.0,0.9762,1.0668,1.1079,1.0933,1.0933,1.0517,0.9757,0.962,0.9474,0.9282,0.9235,0.9051,0.8826,0.8907,0.8935,0.8926,0.9005,0.9048,0.9038,0.8961,0.9279,0.9733,0.9587,0.9884,1.0423,1.0746,1.0889,1.0872,1.0767,1.0887,1.1135,1.12,1.119,1.1135,1.1244,1.119,1.1111,1.1111,1.1111,1.1111,1.1111,1.1111,1.1111,1.1111,1.0647,1.0292,1.0292,0.9764,0.9294,0.9195,0.0,0.0,0.0,0.0,0.0,0.0,0.7703,0.0,0.0,0.0,0.0,0.0,0.0,0.0,0.7291,0.7756,0.0,0.8699,0.8656,0.8765,0.8985,0.9145,0.9395,0.9767,0.9937,0.9952,0.9833,0.9786,0.9672,0.9484,0.9549,0.9592,0.9611,0.9729,0.9402,0.889,0.889,0.8448,0.779,1.291,1.237,0.0,0.0,1.1243,0.0,1.1194,1.1194,1.1194,1.1194,1.1194,1.1194,1.1194,1.1194,1.1194,1.1194,0.0,0.0,0.0,1.1194,1.1014,1.0659,1.0626,1.0431,1.0028,1.0004,0.9994,0.9994,0.9994,0.9994,0.9994,0.9994,0.9994,0.9994,0.998,0.9715,0.9319,0.9503,0.9357,0.9023,0.9247,0.9363,0.9385,0.9587,0.9665,0.964,0.9476,0.9894,1.0494,1.0122,1.0494,1.1214,1.1441,1.1519,1.1465,1.122,1.1154,1.122,1.1405,1.1285,1.1196,1.1405,1.1266,1.1111,1.1111,1.1111,1.1111,1.1111,1.1111,1.1111,1.1111,1.0695,1.0316,1.0298,1.0109,0.9844,0.9584,0.0,0.0,0.0,0.0,0.0,0.0,0.7822,0.7741,0.0,0.0,0.0,0.0,0.0,0.7504,0.808,0.8292,0.8505,0.8722,0.8921,0.9009,0.9056,0.9442,0.9776,1.0018,1.0004,0.9847,0.9635,0.9909,0.9771,0.9398,0.9833,0.9838,0.9644,0.9919,0.9598,0.8978,0.8978,0.854,0.7965,0.0,0.0,1.198,1.1829,1.1487,1.1194,1.1194,1.1194,1.1194,1.1194,1.1194,1.1194,1.1194,1.1194,1.1194,1.1194,1.1194,1.1194,1.1194,1.1194,1.1085,1.083,1.066,1.0502,1.0246,1.008,0.9994,0.9994,0.9994,0.9994,0.9994,0.9994,0.9994,0.9985,0.979,0.962,0.9522,0.9404,0.9301,0.9256,0.9665,0.9852,0.9882,1.0276,1.0455,1.0445,1.0397,1.0699,1.1101,1.0982,1.1299,1.17,1.1811,1.179,1.1736,1.1471,1.1537,1.1655,1.1304,1.1317,1.1357,1.1244,1.116,1.1111,1.1111,1.1111,1.1111,1.1111,1.1111,1.1111,1.1111,1.0846,1.0527,1.0328,1.0408,1.043,1.0155,1.0428,0.0,0.0,1.0127,0.9801,0.9145,0.8997,0.8636,0.0,0.0,0.0,0.0,0.7636,0.7779,0.8089,0.8292,0.8581,0.8944,0.8962,0.9261,0.9776,0.9876,1.0032,1.0236,1.007,0.9971,0.9928,0.9975,0.9937,0.9852,0.9956,0.9966,0.9928,0.9975,0.9907,0.9728,0.9728,0.9641,0.9462,1.3539,1.3055,1.2613,1.2419,1.1932,1.1639,1.1883,1.1731,1.1639,1.1883,1.1731,1.159,1.159,1.134,1.1194,1.1194,1.1194,1.1194,1.1194,1.1194,1.1061,1.0764,1.0683,1.0478,1.0175,1.0056,0.9994,0.9994,0.9994,0.9994,0.9994,0.9994,0.9994,0.999,0.9833,0.9734,0.9602,0.962,0.9684,0.9768,1.0148,1.0397,1.0637,1.0985,1.1105,1.1094,1.1029,1.1232,1.1565,1.1364,1.1565,1.1904,1.2024,1.206,1.203,1.1892,1.1868,1.186,1.1525,1.1465,1.1423,1.1184,1.1111,1.1111,1.1111,1.1111,1.1111,1.1111,1.1111,1.1111,1.1111,1.0979,1.0841,1.0691,1.0889,1.0943,1.0646,1.0936,0.0,1.0725,1.0692,1.0478,0.986,0.9667,0.9257,0.8502,0.0,0.0,0.7846,0.8158,0.8315,0.824,0.8429,0.8694,0.8981,0.9173,0.9526,0.9994,0.9994,1.0056,1.0165,1.0051,0.9942,0.9819,0.9952,0.9942,0.9819,0.9956,0.9994,0.9994,0.9994,0.9994,0.9994,0.9994,0.9994,0.9994,1.3727,1.3539,1.3346,1.2958,1.2467,1.2273,1.2716,1.2419,1.2273,1.2759,1.2419,1.2078,1.2029,1.1585,1.1292,1.1194,1.1194,1.1194,1.1194,1.1194,1.1009,1.0635,1.0621,1.0426,1.0004,0.9994,0.9994,0.9994,0.9994,0.9994,0.9994,1.0081,1.0081,1.0081,1.0168,1.0067,0.987,1.0091,1.0277,1.0462,1.0689,1.1063,1.1429,1.1654,1.1784,1.1755,1.1548,1.1717,1.196,1.1636,1.1757,1.2077,1.23,1.2373,1.2373,1.2373,1.2216,1.1982,1.1904,1.1688,1.1423,1.1184,1.1111,1.1111,1.1111,1.1111,1.1111,1.1111,1.1111,1.1111,1.1111,1.1103,1.114,1.1279,1.1414,1.1418,1.1358,0.0,1.1452,1.0943,1.0929,1.0831,1.0458,1.0137,0.9791,0.9463,0.9264,0.89,0.0,0.8813,0.8907,0.8552,0.8708,0.8902,0.9075,0.946,0.9795,1.0042,1.0009,1.0013,1.0042,1.0009,0.9856,0.9658,0.9919,0.9852,0.9663,0.9923,0.9994,0.9994,0.9994,0.9994,0.9994,0.9994,0.9994,0.9994,1.4202,1.3823,1.3491,1.3394,1.3007,1.271,1.2813,1.2716,1.271,1.2813,1.2716,1.2516,1.2029,1.1932,1.1688,1.1243,1.1194,1.1194,1.1194,1.1194,1.1009,1.0635,1.0621,1.0426,1.0004,0.9994,0.9994,0.9994,0.9994,0.9994,0.9994,1.0337,1.0506,1.0506,1.0939,1.109,1.1059,1.1095,1.1133,1.1187,1.1612,1.1843,1.1923,1.2359,1.2511,1.2511,1.2469,1.2499,1.2584,1.2499,1.2536,1.259,1.2626,1.2644,1.2644,1.2644,1.2614,1.2487,1.2,1.1688,1.1423,1.1184,1.1111,1.1111,1.1111,1.1111,1.1111,1.1111,1.1111,1.1111,1.1111,1.1119,1.1353,1.2158,1.1983,1.1995,1.2746,0.0,1.2525,1.1729,1.1916,1.1844,1.1034,1.0719,1.0591,1.064,1.0024,0.967,0.9706,0.9425,0.9206,0.9181,0.9169,0.9291,0.9503,0.9786,1.0056,1.0265,1.008,1.0094,1.026,1.008,0.9975,0.9947,0.998,0.9975,0.9947,0.998,0.9994,0.9994,0.9994,0.9994,0.9994,0.9994,0.9994,0.9994,1.4298,1.4106,1.3919,1.3919,1.3485,1.3249,1.3582,1.334,1.3292,1.3576,1.3346,1.3104,1.2807,1.2565,1.2224,1.1683,1.1634,1.1487,1.1198,1.1194,1.1009,1.0635,1.0621,1.0426,1.0004,1.0207,1.0207,0.9994,1.0467,1.0549,1.0337,1.0766,1.0982,1.0982,1.1198,1.1284,1.1284,1.1284,1.1456,1.1714,1.1929,1.2143,1.2406,1.2619,1.2705,1.2705,1.2705,1.2705,1.2705,1.2705,1.2705,1.2705,1.2705,1.2705,1.2705,1.2705,1.2602,1.2439,1.2198,1.1904,1.1639,1.1369,1.1341,1.1298,1.1148,1.1111,1.1111,1.1111,1.1111,1.1111,1.1111,1.1212,1.1492,1.2094,1.236,0.0,0.0,1.3389,1.3259,1.2438,1.2513,1.2345,1.1581,1.1437,1.1275,1.1123,1.056,1.0277,1.0363,1.0044,0.9949,1.0197,0.9742,0.9503,0.9602,0.9852,1.0047,1.0142,1.0042,1.0047,1.0142,1.0042,0.9994,0.9994,0.9994,0.9933,0.9786,0.9786,0.9786,0.9786,0.9786,0.9856,0.9994,0.9994,0.9994,0.9994,1.4298,1.4298,1.4298,1.4298,1.3968,1.3823,1.425,1.3968,1.3823,1.425,1.3919,1.3636,1.3491,1.3201,1.2764,1.2224,1.2175,1.198,1.1438,1.1487,1.1322,1.0711,1.0602,1.0419,1.013,1.0419,1.0511,1.0294,1.0982,1.1106,1.0766,1.1241,1.1451,1.1451,1.1585,1.1628,1.1628,1.1628,1.1843,1.2143,1.2143,1.2357,1.2705,1.2705,1.2705,1.2705,1.2705,1.2705,1.2705,1.2705,1.2705,1.2705,1.2705,1.2705,1.2705,1.2705,1.256,1.2391,1.233,1.2168,1.191,1.1645,1.1537,1.1435,1.1256,1.1208,1.1208,1.1208,1.1256,1.1298,1.1298,1.1415,1.1653,1.2135,0.0,0.0,0.0,1.3542,1.3521,1.2776,1.2763,1.2598,1.2049,1.1956,1.1813,1.1653,1.1113,1.0898,1.0983,1.071,1.0768,1.1273,1.0346,0.9842,0.9842,0.9957,1.0038,1.012,1.0038,1.0038,1.012,1.0038,0.9994,0.9994,0.9994,0.9861,0.9667,0.9625,0.963,0.9667,0.962,0.9771,0.9994,0.9994,0.9994,0.9994,1.4298,1.4298,1.4298,1.4298,1.425,1.425,1.4298,1.425,1.425,1.4298,1.425,1.4058,1.3539,1.3491,1.3249,1.2759,1.2759,1.2516,1.198,1.2419,1.2116,1.0929,1.0504,1.0405,1.0554,1.0593,1.0809,1.1198,1.1284,1.1284,1.1278,1.1714,1.1972,1.1972,1.24,1.2619,1.2619,1.2619,1.2619,1.2662,1.2662,1.2662,1.2705,1.2705,1.2705,1.2705,1.2705,1.2705,1.2705,1.2705,1.2705,1.2705,1.2705,1.2705,1.2705,1.2705,1.2693,1.262,1.2379,1.23,1.2222,1.1956,1.167,1.1483,1.1465,1.1459,1.1459,1.1459,1.1657,1.1826,1.1826,1.1648,1.1868,1.3001,0.0,0.0,1.3409,1.3398,1.3048,1.2413,1.2609,1.2656,1.2299,1.2065,1.2085,1.2572,1.1914,1.1634,1.1903,1.1461,1.1515,1.22,1.1123,1.0524,1.0524,1.0202,1.0207,1.0549,1.0164,1.0207,1.0549,1.0164,0.9994,0.9994,0.9994,0.9985,0.9956,0.9682,0.9757,0.9952,0.9677,0.9771,0.9994,0.9994,0.9994,0.9994,1.4298,1.4298,1.4298,1.4298,1.4298,1.4298,1.4298,1.4298,1.4298,1.4298,1.4298,1.4202,1.4016,1.401,1.3775,1.3298,1.3249,1.3001,1.2516,1.2716,1.2448,1.1641,1.1328,1.1139,1.103,1.1322,1.1413,1.1284,1.1886,1.2015,1.1752,1.2229,1.2448,1.2443,1.2619,1.2705,1.2705,1.2705,1.2705,1.2705,1.2705,1.2705,1.2705,1.2705,1.2705,1.2705,1.2705,1.2705,1.2705,1.2705,1.2705,1.2705,1.2705,1.2705,1.2705,1.2705,1.2705,1.2681,1.2584,1.2554,1.2493,1.2234,1.2089,1.1934,1.1772,1.1736,1.1736,1.1736,1.1814,1.188,1.188,1.1802,1.1939,1.2566,0.0,1.285,1.3306,1.3591,1.3518,1.2934,1.2951,1.2927,1.2572,1.2469,1.2487,1.2687,1.2184,1.2003,1.2394,1.2662,1.3082,1.376,1.3112,1.2388,1.1666,1.1111,1.0895,1.1025,1.0593,1.0463,1.0593,1.0164,0.9994,0.9994,0.9994,1.0053,1.0179,1.01,1.0283,1.0598,1.0516,1.0614,1.0766,1.0467,1.0549,1.0766,1.4298,1.4298,1.4298,1.4298,1.4298,1.4298,1.4298,1.4298,1.4298,1.4298,1.4298,1.4298,1.4298,1.4298,1.4154,1.3775,1.3732,1.3534,1.3055,1.3007,1.2692,1.2013,1.1892,1.17,1.1505,1.1843,1.1929,1.1752,1.2357,1.2534,1.2229,1.2528,1.2705,1.2705,1.2705,1.2705,1.2705,1.2705,1.2705,1.2705,1.2705,1.2705,1.2705,1.2705,1.2705,1.2705,1.2705,1.2705,1.2705,1.2705,1.2705,1.2705,1.2705,1.2705,1.2723,1.2813,1.2771,1.2741,1.291,1.2831,1.2662,1.2481,1.2373,1.227,1.2083,1.2047,1.2047,1.2047,1.2073,1.2198,1.2241,1.2228,1.2252,1.2524,1.2828,1.3057,1.3057,1.3383,1.35,1.3099,1.3057,1.2966,1.2729,1.2705,1.2705,1.2705,1.2406,1.2443,1.3003,1.3646,1.4321,1.4985,1.4517,1.3964,1.3366,1.2431,1.1918,1.1837,1.1235,1.089,1.0809,1.0381,1.0125,1.0038,1.0294,1.0383,1.0413,1.0588,1.0837,1.109,1.1138,1.1187,1.1278,1.0933,1.1025,1.1241,1.4298,1.4298,1.4298,1.4298,1.4298,1.4298,1.4298,1.4298,1.4298,1.4298,1.4298,1.4298,1.4298,1.4298,1.4298,1.4298,1.4298,1.4058,1.3539,1.3491,1.3073,1.2064,1.1997,1.1997,1.2026,1.2015,1.2229,1.2705,1.2705,1.2705,1.2705,1.2705,1.2705,1.2705,1.2705,1.2705,1.2705,1.2705,1.2705,1.2705,1.2705,1.2705,1.2705,1.2705,1.2705,1.2705,1.2705,1.2705,1.2705,1.2705,1.2705,1.2705,1.2705,1.2705,1.2765,1.2999,1.2928,1.2825,1.3369,1.3121,1.2711,1.2705,1.2512,1.2318,1.2318,1.2318,1.2324,1.2318,1.253,1.2795,1.3079,1.2898,1.2801,1.3079,1.2892,1.2711,1.2705,1.2705,1.2705,1.2705,1.2705,1.2705,1.2705,1.2705,1.2705,1.2705,1.2705,1.3003,1.3652,1.4363,1.5026,1.5692,1.5068,1.5033,1.5699,1.4119,1.3197,1.3003,1.2126,1.1569,1.1278,1.0809,1.0376,1.0081,1.0939,1.102,1.0636,1.1198,1.1375,1.1327,1.1375,1.1375,1.1327,1.1327,1.1327,1.1241,1.4298,1.4298,1.4298,1.4298,1.4298,1.4298,1.4298,1.4298,1.4298,1.4298,1.4298,1.4298,1.4298,1.4298,1.4298,1.4298,1.4298,1.425,1.4064,1.4058,1.3862,1.3333,1.3146,1.2941,1.2788,1.2586,1.2577,1.2705,1.2705,1.2705,1.2705,1.2705,1.2705,1.2705,1.2705,1.2705,1.2705,1.2705,1.2705,1.2705,1.2705,1.2705,1.2705,1.2705,1.2705,1.2705,1.2705,1.2705,1.2705,1.2705,1.2705,1.2741,1.2934,1.3,1.3049,1.332,1.3338,1.3308,1.3471,1.3393,1.323,1.3043,1.294,1.2831,1.2632,1.288,1.3103,1.2922,1.3091,1.343,1.4046,1.3639,1.3413,1.3818,1.3547,1.3139,1.2759,1.2874,1.2928,1.2729,1.3137,1.3215,1.2747,1.313,1.3222,1.2747,1.3137,1.3688,1.4356,1.5332,1.598,1.6409,1.6476,1.6607,1.6818,1.5126,1.3844,1.3003,1.2394,1.1832,1.1278,1.0809,1.0722,1.0939,1.1192,1.1413,1.1585,1.1757,1.2123,1.254,1.239,1.2388,1.249,1.1997,1.2015,1.2186,1.4675,1.449,1.4394,1.4675,1.4484,1.4298,1.4298,1.4298,1.4298,1.4298,1.4532,1.4627,1.4346,1.4586,1.4627,1.4346,1.4298,1.4298,1.4298,1.4298,1.4226,1.4069,1.3809,1.355,1.3239,1.3012,1.2868,1.2868,1.2759,1.2705,1.2705,1.2705,1.2705,1.2705,1.2705,1.2705,1.2705,1.2705,1.2705,1.2705,1.2705,1.2705,1.2705,1.2705,1.2705,1.2705,1.2705,1.2705,1.2723,1.2831,1.294,1.3055,1.3224,1.3278,1.3332,1.3592,1.3598,1.3562,1.3767,1.367,1.3501,1.3447,1.3357,1.3236,1.3061,1.3501,1.3871,1.371,1.4072,1.4572,1.5135,1.4884,1.4683,1.5068,1.4844,1.4405,1.391,1.3941,1.3833,1.3544,1.3992,1.4064,1.3336,1.3745,1.3896,1.3498,1.4063,1.4754,1.5483,1.6402,1.6982,1.7151,1.7358,1.752,1.752,1.6432,1.5326,1.4143,1.3317,1.2531,1.1843,1.1198,1.1025,1.1322,1.1671,1.1929,1.202,1.2302,1.2644,1.2952,1.2892,1.291,1.2891,1.2422,1.2448,1.2577,1.5248,1.4819,1.4538,1.5296,1.4771,1.4298,1.4298,1.4346,1.4388,1.4388,1.5057,1.5248,1.458,1.5057,1.5153,1.4436,1.4346,1.4298,1.4298,1.4298,1.4298,1.4298,1.4069,1.3827,1.3592,1.3308,1.3157,1.3157,1.2904,1.2777,1.2777,1.2777,1.2777,1.2777,1.2753,1.2741,1.2741,1.2711,1.2705,1.2705,1.2705,1.2705,1.2705,1.2705,1.2705,1.2705,1.2705,1.2723,1.2783,1.3067,1.3314,1.3519,1.3544,1.355,1.3604,1.3863,1.3773,1.3688,1.4165,1.3948,1.364,1.3882,1.3761,1.3574,1.3525,1.4088,1.4656,1.463,1.5266,1.5953,1.6274,1.6278,1.6324,1.6638,1.6387,1.6039,1.5655,1.5449,1.5162,1.4726,1.5056,1.5014,1.4237,1.4479,1.4681,1.4591,1.5301,1.605,1.6756,1.7445,1.7846,1.7814,1.7846,1.7862,1.7862,1.7862,1.7203,1.5921,1.4676,1.3659,1.282,1.2,1.1602,1.1666,1.2528,1.2613,1.2203,1.2895,1.3008,1.2801,1.2987,1.2982,1.2777,1.2777,1.2747,1.2625,1.5248,1.4819,1.4538,1.5296,1.4771,1.4298,1.4298,1.4771,1.5153,1.5153,1.5866,1.6298,1.6109,1.5676,1.5337,1.5201,1.4627,1.4298,1.4298,1.4298,1.4298,1.4298,1.4244,1.4183,1.4129,1.367,1.3429,1.3429,1.3369,1.3338,1.3338,1.3338,1.3338,1.3332,1.3127,1.2987,1.3019,1.2795,1.2705,1.2705,1.2705,1.2705,1.2705,1.2705,1.2705,1.2705,1.2705,1.2843,1.3029,1.3338,1.3471,1.355,1.3755,1.3821,1.3876,1.4135,1.4171,1.4153,1.4268,1.4214,1.4141,1.4201,1.4171,1.402,1.361,1.4383,1.5191,1.4969,1.5703,1.6632,1.724,1.689,1.6654,1.7066,1.6605,1.6084,1.5782,1.572,1.5436,1.4719,1.5164,1.5243,1.4538,1.5126,1.5294,1.4636,1.5784,1.6624,1.6793,1.7671,1.8057,1.7822,1.8041,1.8184,1.8184,1.8184,1.7463,1.6053,1.5782,1.5138,1.416,1.3987,1.3913,1.3971,1.4181,1.3893,1.3355,1.3504,1.3449,1.3326,1.3181,1.3212,1.3338,1.3338,1.3073,1.263,1.5818,1.5676,1.5629,1.6372,1.5575,1.4962,1.5343,1.5391,1.5527,1.5913,1.6669,1.6998,1.6629,1.652,1.619,1.548,1.5057,1.4675,1.4346,1.4298,1.4298,1.4298,1.4298,1.4298,1.4298,1.4032,1.3827,1.3701,1.3574,1.3513,1.3513,1.3513,1.3513,1.3507,1.3369,1.3242,1.3071,1.2964,1.2825,1.2705,1.2705,1.2783,1.2904,1.2904,1.2982,1.3091,1.3091,1.3266,1.3519,1.3652,1.3785,1.3912,1.4051,1.4093,1.4123,1.4256,1.4298,1.4298,1.4298,1.4298,1.4298,1.4298,1.4298,1.4226,1.3954,1.4659,1.5345,1.5196,1.6228,1.7232,1.7645,1.7652,1.7747,1.798,1.7667,1.7318,1.7034,1.6989,1.6795,1.6197,1.658,1.6652,1.6116,1.6137,1.6137,1.6085,1.6813,1.7357,1.7725,1.8265,1.847,1.8279,1.8454,1.8549,1.8549,1.8549,1.8129,1.7394,1.6683,1.6042,1.5442,1.5034,1.4996,1.5204,1.5056,1.461,1.3919,1.3789,1.3484,1.3115,1.2976,1.3181,1.363,1.3755,1.3963,1.4143,1.6629,1.6676,1.6817,1.7552,1.652,1.5818,1.6487,1.615,1.6048,1.6716,1.7419,1.7652,1.7052,1.7419,1.7077,1.5527,1.5534,1.5242,1.4346,1.4442,1.4436,1.4298,1.4298,1.4298,1.4298,1.4298,1.4189,1.3972,1.3755,1.3646,1.3646,1.3646,1.3646,1.3646,1.3604,1.3459,1.3209,1.3212,1.3055,1.2843,1.2843,1.2982,1.3149,1.3149,1.3326,1.3513,1.3513,1.3682,1.3912,1.396,1.4117,1.4298,1.4298,1.4298,1.4298,1.4298,1.4298,1.4298,1.4298,1.4298,1.4298,1.4298,1.4298,1.4346,1.4436,1.5057,1.5629,1.5629,1.6796,1.7878,1.7878,1.8404,1.8781,1.8781,1.8781,1.8678,1.843,1.839,1.8234,1.7845,1.8029,1.7941,1.7382,1.6998,1.6998,1.7458,1.7645,1.8017,1.8781,1.8781,1.8781,1.8781,1.8781,1.8781,1.8781,1.8781,1.8781,1.8781,1.7545,1.6876,1.6714,1.5981,1.5819,1.6117,1.585,1.5274,1.4512,1.4156,1.3625,1.3114,1.2985,1.3327,1.3962,1.4273,1.5018,1.58,1.7271,1.7044,1.6817,1.7552,1.6998,1.6487,1.6588,1.7037,1.7412,1.7552,1.821,1.8589,1.8504,1.8025,1.7077,1.5527,1.6062,1.5825,1.4394,1.4914,1.4962,1.4346,1.4298,1.4298,1.4298,1.4298,1.428,1.4244,1.4208,1.4189,1.4189,1.4189,1.4189,1.4183,1.3954,1.3833,1.3785,1.3556,1.3441,1.3405,1.3405,1.3429,1.3465,1.3465,1.3483,1.3513,1.3513,1.3682,1.3942,1.4165,1.4268,1.4298,1.4298,1.4298,1.4298,1.4298,1.4298,1.4298,1.4298,1.4298,1.4298,1.4298,1.4298,1.449,1.5105,1.5866,1.644,1.644,1.7606,1.8635,1.8635,1.8735,1.8781,1.8781,1.8781,1.8765,1.8764,1.871,1.8502,1.7796,1.7733,1.722,1.5852,1.685,1.7326,1.677,1.7318,1.8017,1.8781,1.8781,1.8781,1.8781,1.8781,1.8781,1.8781,1.8781,1.8781,1.8781,1.8588,1.8338,1.8045,1.7911,1.7739,1.7545,1.7498,1.6929,1.5977,1.5354,1.4954,1.4738,1.4139,1.4312,1.4917,1.5081,1.559,1.6088,1.7544,1.7792,1.7939,1.8257,1.7699,1.7372,1.7753,1.7746,1.7831,1.8257,1.8589,1.8781,1.8781,1.8496,1.7878,1.6796,1.699,1.6567,1.501,1.5629,1.5534,1.4346,1.4675,1.4723,1.4298,1.4298,1.4298,1.4298,1.4298,1.4298,1.4298,1.4298,1.4298,1.4292,1.4177,1.4045,1.39,1.3779,1.3646,1.3513,1.3513,1.3604,1.3731,1.3731,1.3827,1.3995,1.4415,1.4349,1.4189,1.4734,1.4627,1.4298,1.4298,1.4298,1.4298,1.4298,1.4298,1.4298,1.4298,1.4298,1.4298,1.4298,1.4627,1.501,1.5343,1.6332,1.7091,1.6676,1.7652,1.8488,1.821,1.8765,1.9142,1.8827,1.8781,1.892,1.9188,1.9234,1.9142,1.8804,1.8488,1.8071,1.7365,1.7924,1.8172,1.7846,1.8125,1.845,1.8781,1.8781,1.8781,1.8781,1.8781,1.8781,1.8781,1.8781,1.8781,1.8781,1.8781,1.8694,1.8597,1.8597,1.851,1.8351,1.8152,1.7515,1.6532,1.6051,1.5476,1.4852,1.4554,1.5104,1.6097,1.6532,1.7085,1.759]}]]